[[{"header":{"parameterUnit":"m.s-1","parameterCategory":1,"la1":30.6,"la2":29.2853,"lo1":-89.7004,"lo2":-87.6739,"dy":0.0162,"dx":0.0183,"nx":112,"ny":82,"refTime":"2024-07-20T18:00:00:Z","depth":0,"parameterNumber":2,"parameterNumberName":"U-component_of_WINDS"},"data":[0.0,0.0,0.0,0.0,0.0,0.0,0.0,0.0,0.0,0.0,0.0,0.0,0.0,0.0,0.0,0.0,0.0,0.0,0.0,0.0,0.0,0.0,0.0,0.0,0.0,0.0,0.0,0.0,0.0,0.0,0.0,0.0,0.0,0.0,0.0,0.0,0.0,0.0,0.0,0.0,0.0,0.0,0.0,0.0,0.0,0.0,0.0,0.0,0.0,0.0,0.0,0.0,0.0,0.0,0.0,0.0,0.0,0.0,0.0,0.0,0.0,0.0,0.0,0.0,0.0,0.0,0.0,0.0,0.0,0.0,0.0,0.0,0.0,0.0,0.0,0.0,0.0,0.0,0.0,0.0,0.0,0.0,0.0,0.0,0.0,0.0,0.0,0.0,0.0,0.0,0.0,-0.9021,-1.2314,-1.4456,-1.4537,-1.4948,-1.4154,-1.1613,0.0,0.0,0.0,0.0,0.0,0.0,0.0,0.0,0.0,0.0,0.0,0.0,0.0,0.0,0.0,0.0,0.0,0.0,0.0,0.0,0.0,0.0,0.0,0.0,0.0,0.0,0.0,0.0,0.0,0.0,0.0,0.0,0.0,0.0,0.0,0.0,0.0,0.0,0.0,0.0,0.0,0.0,0.0,0.0,0.0,0.0,0.0,0.0,0.0,0.0,0.0,0.0,0.0,0.0,0.0,0.0,0.0,0.0,0.0,0.0,0.0,0.0,0.0,0.0,0.0,0.0,0.0,0.0,0.0,0.0,0.0,0.0,0.0,0.0,0.0,0.0,0.0,0.0,0.0,0.0,0.0,0.0,0.0,0.0,0.0,0.0,0.0,0.0,0.0,0.0,0.0,0.0,0.0,0.0,0.0,0.0,0.0,0.0,0.0,0.0,0.0,0.0,0.0,0.0,-0.8522,-1.134,-1.2569,-1.3382,-1.3886,-1.3652,-1.285,-1.1338,0.0,0.0,0.0,0.0,0.0,0.0,0.0,0.0,0.0,0.0,0.0,0.0,0.0,0.0,0.0,0.0,0.0,0.0,0.0,0.0,0.0,0.0,0.0,0.0,0.0,0.0,0.0,0.0,0.0,0.0,0.0,0.0,0.0,0.0,0.0,0.0,0.0,0.0,0.0,0.0,0.0,0.0,0.0,0.0,0.0,0.0,0.0,0.0,0.0,0.0,0.0,0.0,0.0,0.0,0.0,0.0,0.0,0.0,0.0,0.0,0.0,0.0,0.0,0.0,0.0,0.0,0.0,0.0,0.0,0.0,0.0,0.0,0.0,0.0,0.0,0.0,0.0,0.0,0.0,0.0,0.0,0.0,0.0,0.0,0.0,0.0,0.0,0.0,0.0,0.0,0.0,0.0,0.0,0.0,0.0,0.0,0.0,0.0,0.0,0.0,0.0,0.0,0.0,-0.7895,-0.9411,-1.2278,-1.307,-1.3505,-1.3779,-1.4202,-1.3515,-1.1343,-1.0443,0.0,0.0,0.0,0.0,0.0,0.0,0.0,0.0,0.0,0.0,0.0,0.0,0.0,0.0,0.0,0.0,0.0,0.0,0.0,0.0,0.0,0.0,0.0,0.0,0.0,0.0,0.0,0.0,0.0,0.0,0.0,0.0,0.0,0.0,0.0,0.0,0.0,0.0,0.0,0.0,0.0,0.0,0.0,0.0,0.0,0.0,0.0,0.0,0.0,0.0,0.0,0.0,0.0,0.0,0.0,0.0,0.0,0.0,0.0,0.0,0.0,0.0,0.0,0.0,0.0,0.0,0.0,0.0,0.0,0.0,0.0,0.0,0.0,0.0,0.0,0.0,0.0,0.0,0.0,0.0,0.0,0.0,0.0,0.0,0.0,0.0,0.0,0.0,0.0,0.0,0.0,0.0,0.0,0.0,0.0,0.0,0.0,0.0,0.0,0.0,0.0,0.0,-0.932,-1.0473,-1.2652,-1.331,-1.3708,-1.398,-1.4451,-1.379,-1.1547,-1.042,0.0,0.0,0.0,0.0,0.0,0.0,0.0,0.0,0.0,0.0,0.0,0.0,0.0,0.0,0.0,0.0,0.0,0.0,0.0,0.0,0.0,0.0,0.0,0.0,0.0,0.0,0.0,0.0,0.0,0.0,0.0,0.0,0.0,0.0,0.0,0.0,0.0,0.0,0.0,0.0,0.0,0.0,0.0,0.0,0.0,0.0,0.0,0.0,0.0,0.0,0.0,0.0,0.0,0.0,0.0,0.0,0.0,0.0,0.0,0.0,0.0,0.0,0.0,0.0,0.0,0.0,0.0,0.0,0.0,0.0,0.0,0.0,0.0,0.0,0.0,0.0,0.0,0.0,0.0,0.0,0.0,0.0,0.0,0.0,0.0,0.0,0.0,0.0,0.0,0.0,0.0,0.0,0.0,0.0,0.0,0.0,0.0,0.0,0.0,0.0,0.0,0.0,-1.0112,-1.1797,-1.2798,-1.2954,-1.343,-1.4537,-1.3117,-1.2129,-1.2029,-0.9608,0.0,0.0,0.0,0.0,0.0,0.0,0.0,0.0,0.0,0.0,0.0,0.0,0.0,0.0,0.0,0.0,0.0,0.0,0.0,0.0,0.0,0.0,0.0,0.0,0.0,0.0,0.0,0.0,0.0,0.0,0.0,0.0,0.0,0.0,0.0,0.0,0.0,0.0,0.0,0.0,0.0,0.0,0.0,0.0,0.0,0.0,0.0,0.0,0.0,0.0,0.0,0.0,0.0,0.0,0.0,0.0,0.0,0.0,0.0,0.0,0.0,0.0,0.0,0.0,0.0,0.0,0.0,0.0,0.0,0.0,0.0,0.0,0.0,0.0,0.0,0.0,0.0,0.0,0.0,0.0,0.0,0.0,0.0,0.0,0.0,0.0,0.0,0.0,0.0,0.0,0.0,0.0,0.0,0.0,0.0,0.0,0.0,0.0,0.0,0.0,0.0,0.0,-0.9725,-1.133,0.0,-1.2905,-1.3089,-1.3549,-1.3311,-1.2393,-1.0644,0.0,0.0,0.0,0.0,0.0,0.0,0.0,0.0,0.0,0.0,0.0,0.0,0.0,0.0,0.0,0.0,0.0,0.0,0.0,0.0,0.0,0.0,0.0,0.0,0.0,0.0,0.0,0.0,0.0,0.0,0.0,0.0,0.0,0.0,0.0,0.0,0.0,0.0,0.0,0.0,0.0,0.0,0.0,0.0,0.0,0.0,0.0,0.0,0.0,0.0,0.0,0.0,0.0,0.0,0.0,0.0,0.0,0.0,0.0,0.0,0.0,0.0,0.0,0.0,0.0,0.0,0.0,0.0,0.0,0.0,0.0,0.0,0.0,0.0,0.0,0.0,0.0,0.0,0.0,0.0,0.0,0.0,0.0,0.0,0.0,0.0,0.0,0.0,0.0,0.0,0.0,0.0,0.0,0.0,0.0,0.0,0.0,0.0,0.0,0.0,0.0,0.0,-0.8143,-0.9715,-1.1271,0.0,-1.2905,-1.2968,-1.3176,-1.3071,-1.2089,-1.0053,0.0,0.0,0.0,0.0,0.0,0.0,0.0,0.0,0.0,0.0,0.0,0.0,0.0,0.0,0.0,0.0,0.0,0.0,0.0,0.0,0.0,0.0,0.0,0.0,0.0,0.0,0.0,0.0,0.0,0.0,0.0,0.0,0.0,0.0,0.0,0.0,0.0,0.0,0.0,0.0,0.0,0.0,0.0,0.0,0.0,0.0,0.0,0.0,0.0,0.0,0.0,0.0,0.0,0.0,0.0,0.0,0.0,0.0,0.0,0.0,0.0,0.0,0.0,0.0,0.0,0.0,0.0,0.0,0.0,0.0,0.0,0.0,0.0,0.0,0.0,0.0,0.0,0.0,0.0,0.0,0.0,0.0,0.0,0.0,0.0,0.0,0.0,0.0,0.0,0.0,0.0,0.0,0.0,0.0,0.0,0.0,0.0,0.0,0.0,0.0,0.0,0.0,-0.8498,-1.0359,-1.1917,-1.2817,-1.2905,-1.3152,-1.3732,-1.2089,-1.0896,0.0,0.0,0.0,0.0,0.0,0.0,0.0,0.0,0.0,0.0,0.0,0.0,0.0,0.0,0.0,0.0,0.0,0.0,0.0,0.0,0.0,0.0,0.0,0.0,0.0,0.0,0.0,0.0,0.0,0.0,0.0,0.0,0.0,0.0,0.0,0.0,0.0,0.0,0.0,0.0,0.0,0.0,0.0,0.0,0.0,0.0,0.0,0.0,0.0,0.0,0.0,0.0,0.0,0.0,0.0,0.0,0.0,0.0,0.0,0.0,0.0,0.0,0.0,0.0,0.0,0.0,0.0,0.0,0.0,0.0,0.0,0.0,0.0,0.0,0.0,0.0,0.0,0.0,0.0,0.0,0.0,0.0,0.0,0.0,0.0,0.0,0.0,0.0,0.0,0.0,0.0,0.0,0.0,0.0,0.0,0.0,0.0,0.0,0.0,0.0,0.0,0.0,0.0,-0.8498,-1.0359,-1.1917,-1.2817,-1.3286,-1.3433,-1.32,-1.2796,-1.1666,-0.9598,0.0,0.0,0.0,0.0,0.0,0.0,0.0,0.0,0.0,0.0,0.0,0.0,0.0,0.0,0.0,0.0,0.0,0.0,0.0,0.0,0.0,0.0,0.0,0.0,0.0,0.0,0.0,0.0,0.0,0.0,0.0,0.0,0.0,0.0,0.0,0.0,0.0,0.0,0.0,0.0,0.0,0.0,0.0,0.0,0.0,0.0,0.0,0.0,0.0,0.0,0.0,0.0,0.0,0.0,0.0,0.0,0.0,0.0,0.0,0.0,0.0,0.0,0.0,0.0,0.0,0.0,0.0,0.0,0.0,0.0,0.0,0.0,0.0,0.0,0.0,0.0,0.0,0.0,0.0,0.0,0.0,0.0,0.0,0.0,0.0,0.0,0.0,0.0,0.0,0.0,0.0,0.0,0.0,0.0,0.0,0.0,0.0,0.0,0.0,0.0,0.0,0.0,-0.867,-1.0553,-1.21,-1.2827,-1.3214,-1.3286,-1.2929,-1.305,-1.2001,-0.9401,0.0,0.0,0.0,0.0,0.0,0.0,0.0,0.0,0.0,0.0,0.0,0.0,0.0,0.0,0.0,0.0,0.0,0.0,0.0,0.0,0.0,0.0,0.0,0.0,0.0,0.0,0.0,0.0,0.0,0.0,0.0,0.0,0.0,0.0,0.0,0.0,0.0,0.0,0.0,0.0,0.0,0.0,0.0,0.0,0.0,0.0,0.0,0.0,0.0,0.0,0.0,0.0,0.0,0.0,0.0,0.0,0.0,0.0,0.0,0.0,0.0,0.0,0.0,0.0,0.0,0.0,0.0,0.0,0.0,0.0,0.0,0.0,0.0,0.0,0.0,0.0,0.0,0.0,0.0,0.0,0.0,0.0,0.0,0.0,0.0,0.0,0.0,0.0,0.0,0.0,0.0,0.0,0.0,0.0,0.0,0.0,0.0,0.0,0.0,0.0,0.0,0.0,-0.9004,-1.0897,-1.2369,-1.2856,-1.3002,-1.3017,-1.2905,-1.3081,-1.2193,-0.9813,0.0,0.0,0.0,0.0,0.0,0.0,0.0,0.0,0.0,0.0,0.0,0.0,0.0,0.0,0.0,0.0,0.0,0.0,0.0,0.0,0.0,0.0,0.0,0.0,0.0,0.0,0.0,0.0,0.0,0.0,0.0,0.0,0.0,0.0,0.0,0.0,0.0,0.0,0.0,0.0,0.0,0.0,0.0,0.0,0.0,0.0,0.0,0.0,0.0,0.0,0.0,0.0,0.0,0.0,0.0,0.0,0.0,0.0,0.0,0.0,-0.9666,0.0,0.0,0.0,0.0,0.0,0.0,0.0,0.0,0.0,0.0,0.0,0.0,0.0,0.0,0.0,0.0,0.0,0.0,0.0,0.0,0.0,0.0,0.0,0.0,0.0,0.0,0.0,0.0,0.0,0.0,0.0,0.0,0.0,0.0,0.0,0.0,0.0,0.0,0.0,0.0,0.0,-0.9387,-1.1083,-1.2369,-1.2856,-1.3752,-1.3931,-1.2968,-1.3915,-1.3307,-1.034,0.0,0.0,0.0,0.0,0.0,0.0,0.0,0.0,0.0,0.0,0.0,0.0,0.0,0.0,0.0,0.0,0.0,0.0,0.0,0.0,0.0,0.0,0.0,0.0,0.0,0.0,0.0,0.0,0.0,0.0,0.0,0.0,0.0,0.0,0.0,0.0,0.0,0.0,0.0,0.0,0.0,0.0,0.0,0.0,0.0,0.0,0.0,0.0,0.0,0.0,0.0,0.0,0.0,0.0,0.0,0.0,0.0,0.0,0.0,0.0,0.0,-1.0751,0.0,0.0,0.0,0.0,0.0,0.0,0.0,0.0,0.0,0.0,0.0,0.0,0.0,0.0,0.0,0.0,0.0,0.0,0.0,0.0,0.0,0.0,0.0,0.0,0.0,0.0,0.0,0.0,0.0,0.0,0.0,0.0,0.0,0.0,0.0,0.0,0.0,0.0,0.0,0.0,-1.023,-1.1896,-1.3178,-1.3697,-1.4061,-1.4131,-1.3789,-1.4168,-1.3672,-1.1905,-1.1406,0.0,0.0,0.0,0.0,0.0,0.0,0.0,0.0,0.0,0.0,0.0,0.0,0.0,0.0,0.0,0.0,0.0,0.0,0.0,0.0,0.0,0.0,0.0,0.0,0.0,0.0,0.0,0.0,0.0,0.0,0.0,0.0,0.0,0.0,0.0,0.0,0.0,0.0,0.0,0.0,0.0,0.0,0.0,0.0,0.0,0.0,0.0,0.0,0.0,0.0,0.0,0.0,0.0,-1.4331,-1.4062,-1.4049,-1.3541,-1.3828,-1.4651,-1.3584,-1.3203,-1.3278,-1.2291,0.0,0.0,0.0,0.0,0.0,0.0,0.0,0.0,0.0,0.0,0.0,0.0,0.0,0.0,0.0,0.0,0.0,0.0,0.0,0.0,0.0,0.0,0.0,0.0,-1.4003,-1.3909,0.0,0.0,0.0,0.0,0.0,0.0,0.0,0.0,0.0,0.0,0.0,0.0,-1.1251,-1.2903,-1.4143,-1.4663,-1.4352,-1.4272,-1.4675,-1.4445,-1.4071,-1.3557,-1.2835,-1.2012,0.0,0.0,0.0,0.0,0.0,0.0,0.0,0.0,0.0,0.0,0.0,0.0,0.0,0.0,0.0,0.0,0.0,0.0,0.0,0.0,0.0,0.0,0.0,0.0,0.0,0.0,0.0,0.0,0.0,0.0,0.0,0.0,-0.7153,-0.7766,0.0,0.0,0.0,0.0,0.0,0.0,0.0,0.0,0.0,0.0,0.0,0.0,0.0,-1.1323,-1.3782,-1.6086,-1.7207,-1.7165,-1.7426,-1.7551,-1.7539,-1.7124,-1.7011,-1.7099,-1.63,0.0,-1.3934,-1.3253,0.0,0.0,0.0,0.0,0.0,0.0,0.0,0.0,0.0,0.0,0.0,0.0,0.0,0.0,0.0,0.0,0.0,0.0,0.0,0.0,0.0,0.0,-1.6817,-1.7345,-1.7533,-1.752,0.0,-1.4157,-1.1359,-1.1153,-1.038,0.0,0.0,0.0,0.0,0.0,0.0,0.0,-1.2203,-1.3663,-1.4606,-1.4686,-1.5096,-1.5186,-1.4744,-1.5589,-1.5536,-1.4098,-1.4325,-1.3916,-1.2581,-1.1389,0.0,0.0,0.0,0.0,0.0,0.0,0.0,0.0,0.0,0.0,0.0,0.0,0.0,0.0,0.0,0.0,0.0,0.0,0.0,0.0,0.0,0.0,0.0,0.0,0.0,0.0,0.0,0.0,0.0,-0.6583,-0.784,-0.8252,-0.8723,-0.8801,0.0,0.0,0.0,0.0,0.0,0.0,0.0,0.0,0.0,-1.4026,-1.3631,-1.4384,-1.6475,-1.7804,-1.8304,-1.7953,-1.8129,-1.8204,-1.8204,-1.8318,-1.8393,-1.8381,-1.8356,-1.7953,-1.7222,-1.6111,-1.4807,-1.3441,0.0,0.0,0.0,0.0,-1.4011,-1.4048,-1.5153,-1.5229,0.0,-1.504,0.0,0.0,0.0,0.0,0.0,0.0,0.0,0.0,0.0,0.0,-1.7549,-1.8078,-1.8204,-1.8204,-1.8204,-1.665,-1.4931,0.0,-1.2932,-1.1784,-0.995,0.0,0.0,0.0,0.0,0.0,-1.3699,-1.4668,-1.5332,-1.5678,-1.5644,-1.5632,-1.57,-1.5898,-1.5845,-1.5464,-1.5385,-1.5077,-1.4461,-1.3186,-1.196,0.0,0.0,0.0,0.0,0.0,0.0,0.0,0.0,0.0,0.0,0.0,0.0,0.0,0.0,0.0,0.0,0.0,0.0,0.0,0.0,0.0,0.0,0.0,0.0,0.0,0.0,0.0,0.0,-0.7767,-0.874,-0.9103,-0.9961,-1.0234,0.0,0.0,0.0,0.0,0.0,0.0,-1.3178,-1.3521,-1.45,-1.6283,-1.6283,-1.6939,-1.8405,-1.8995,-1.9133,-1.8832,-1.8982,-1.9045,-1.9058,-1.9346,-1.9597,-1.981,-2.0374,-2.0552,-2.0263,-1.8781,-1.7526,-1.6563,-1.7011,-1.6911,-1.6588,-1.714,-1.6923,-1.6522,-1.7777,-1.794,-1.7498,-1.6773,0.0,-1.5487,-1.4099,0.0,0.0,0.0,0.0,-1.6328,-1.7032,-1.7608,-1.8103,-1.8518,-1.8618,-1.8618,-1.8618,-1.8505,-1.7933,0.0,-1.5478,-1.4288,-1.1827,0.0,0.0,0.0,0.0,-1.327,-1.5131,-1.5642,-1.6008,-1.6445,-1.6095,-1.6008,-1.6457,-1.6095,-1.603,-1.6466,-1.6132,-1.5906,-1.5906,-1.4718,-1.3527,-1.2406,0.0,0.0,0.0,0.0,0.0,0.0,0.0,0.0,0.0,0.0,0.0,0.0,0.0,0.0,0.0,0.0,0.0,0.0,0.0,0.0,0.0,0.0,0.0,0.0,0.0,0.0,0.0,0.0,0.0,-1.1362,-1.2375,0.0,0.0,0.0,0.0,-1.2246,-1.3312,-1.44,-1.5467,-1.6568,-1.7426,-1.8053,-1.838,-1.8657,-1.8958,-2.0186,-2.0713,-2.0578,-2.1106,-2.1317,-2.1305,-2.0964,-2.1174,-2.1904,-2.2631,-2.2543,-2.1779,-2.0313,-1.9648,-1.9698,-2.0778,-2.0539,-1.9585,-1.9623,-1.8982,-1.8091,-1.8179,-1.8191,-1.8242,-1.8682,-1.8469,-1.7928,-1.7335,-1.7149,0.0,0.0,-1.7969,-1.882,-1.8883,-1.9284,-1.9685,-1.971,-1.9723,-1.9723,-1.9723,-1.9334,-1.8782,0.0,-1.7567,-1.6788,-1.5696,0.0,-1.4677,-1.4677,-1.4783,-1.521,-1.6204,-1.6402,-1.6466,-1.65,-1.6466,-1.6466,-1.65,-1.6466,-1.6466,-1.65,-1.6475,-1.645,-1.645,-1.5898,-1.4901,-1.3452,-1.1887,0.0,0.0,0.0,0.0,0.0,0.0,0.0,0.0,0.0,0.0,0.0,0.0,0.0,0.0,0.0,0.0,0.0,0.0,0.0,0.0,0.0,0.0,0.0,0.0,0.0,0.0,0.0,0.0,-1.2563,-1.3609,0.0,-1.3279,-1.3828,-1.4463,-1.4996,-1.5776,-1.6543,-1.7275,-1.7689,-1.8317,-1.9208,-1.9346,-1.9798,-2.0602,-2.1066,-2.1267,-2.1232,-2.1393,-2.1493,-2.1493,-2.1719,-2.1942,-2.2217,-2.2844,-2.2957,-2.2681,-2.2142,-2.1641,-2.1227,-2.143,-2.138,-2.1189,-2.0978,-2.0639,-2.0313,-2.0313,-2.0313,-2.0288,-2.0137,-1.9698,-1.9196,-1.8995,-1.9233,-1.9522,-1.9522,-2.0063,-2.0614,-2.0614,-2.0752,-2.0891,-2.0891,-2.0891,-2.0891,-2.0891,-2.0464,-2.005,-1.9849,-1.8772,-1.7564,-1.6494,-1.6396,-1.6338,-1.6043,-1.6265,-1.6736,-1.7477,-1.7576,-1.7463,-1.7112,-1.7074,-1.6923,-1.6525,-1.65,-1.65,-1.65,-1.65,-1.65,-1.65,-1.6333,-1.5644,-1.4424,-1.3144,-1.1428,0.0,0.0,0.0,0.0,0.0,0.0,0.0,0.0,0.0,0.0,0.0,0.0,0.0,0.0,0.0,0.0,0.0,0.0,0.0,0.0,0.0,0.0,0.0,0.0,0.0,0.0,-1.317,-1.3704,-1.4927,-1.5512,-1.4959,-1.5894,-1.6697,-1.7061,-1.7614,-1.8179,-1.8719,-1.8932,-1.9447,-2.0338,-2.0363,-2.0815,-2.1757,-2.1769,-2.1999,-2.2431,-2.216,-2.2176,-2.2444,-2.2539,-2.2556,-2.2581,-2.2945,-2.3245,-2.3526,-2.3722,-2.3682,-2.3394,-2.2426,-2.2054,-2.2067,-2.1857,-2.1644,-2.1493,-2.1493,-2.1493,-2.143,-2.1094,-2.0717,-2.0363,-2.0363,-2.0639,-2.0968,-2.0968,-2.137,-2.1732,-2.1543,-2.1631,-2.1719,-2.1531,-2.1493,-2.1493,-2.1493,-2.1232,-2.0968,-2.0968,-1.9748,-1.8471,-1.7554,-1.7666,-1.7764,-1.7446,-1.752,-1.7799,-1.8407,-1.8317,-1.8066,-1.7725,-1.7664,-1.7426,-1.6861,-1.681,-1.6722,-1.65,-1.65,-1.65,-1.65,-1.6333,-1.5806,-1.4928,-1.3591,-1.2212,-1.0747,0.0,0.0,0.0,0.0,0.0,0.0,0.0,0.0,0.0,0.0,0.0,0.0,0.0,0.0,0.0,0.0,0.0,0.0,0.0,0.0,0.0,0.0,0.0,-1.2475,-1.3451,-1.4362,-1.4916,-1.643,-1.7187,-1.66,-1.7589,-1.8254,-1.8254,-1.8757,-1.9296,-1.9823,-2.0415,-2.0968,-2.1493,-2.1506,-2.1782,-2.2334,-2.2305,-2.3007,-2.4319,-2.3539,-2.3599,-2.4374,-2.3565,-2.3175,-2.3175,-2.3175,-2.3654,-2.4385,-2.5001,-2.57,-2.6182,-2.3999,-2.2854,-2.2388,-2.2347,-2.1995,-2.1543,-2.1543,-2.1543,-2.1543,-2.1543,-2.1543,-2.1543,-2.1543,-2.1543,-2.1543,-2.1543,-2.192,-2.2221,-2.1681,-2.1933,-2.2196,-2.1669,-2.1543,-2.1543,-2.1543,-2.1531,-2.1506,-2.1506,-2.0614,-1.9685,-1.9146,-1.9058,-1.9045,-1.9033,-1.8569,0.0,-1.8958,-1.8556,-1.8242,-1.8229,-1.8229,-1.8003,-1.7461,-1.741,-1.7137,-1.6538,-1.65,-1.65,-1.65,-1.6007,-1.5467,-1.4941,-1.3283,-1.2413,-1.2413,0.0,0.0,0.0,0.0,0.0,0.0,0.0,0.0,0.0,0.0,0.0,0.0,0.0,0.0,0.0,0.0,0.0,0.0,0.0,0.0,0.0,0.0,-1.4651,-1.4268,-1.5141,-1.6045,-1.6644,-1.7451,-1.7915,-1.7752,-1.8731,-1.9359,-1.9359,-2.0263,-2.0878,-2.1016,-2.1207,-2.1546,-2.2071,-2.2083,-2.2347,-2.2869,-2.2882,-2.3582,-2.4932,-2.4737,-2.5262,-2.6435,-2.5641,-2.5271,-2.5271,-2.5271,-2.5411,-2.5606,-2.5782,-2.5971,-2.6069,-2.502,-2.4543,-2.4272,-2.3246,-2.2782,-2.2656,-2.2656,-2.2656,-2.2656,-2.2656,-2.2656,-2.2656,-2.2656,-2.2656,-2.2656,-2.2656,-2.2757,-2.2844,-2.2694,-2.2769,-2.2844,-2.2694,-2.2656,-2.2656,-2.2656,-2.2343,-2.2083,-2.2083,-2.1506,-2.0853,-2.0339,-2.0239,-2.0075,-1.966,-1.9459,0.0,-1.9572,-1.9459,-1.9221,-1.882,-1.8782,-1.8417,-1.7486,-1.741,-1.7137,-1.6538,-1.65,-1.65,-1.65,-1.635,-1.6032,-1.548,-1.383,-1.2973,0.0,0.0,0.0,0.0,0.0,0.0,0.0,0.0,0.0,0.0,0.0,0.0,0.0,0.0,0.0,0.0,0.0,0.0,0.0,0.0,0.0,0.0,-1.4902,-1.6095,-1.6267,-1.6823,-1.735,-1.7689,-1.8216,-1.8607,-1.8857,-1.966,-2.0263,-2.0489,-2.1117,-2.1594,-2.182,-2.1832,-2.2196,-2.3,-2.3025,-2.3444,-2.4356,-2.4356,-2.509,-2.654,-2.6217,-2.666,-2.7738,-2.6957,-2.658,-2.6593,-2.6241,-2.6285,-2.656,-2.6459,-2.6614,0.0,0.0,0.0,0.0,0.0,-2.381,-2.381,-2.381,-2.381,-2.381,-2.381,-2.381,-2.381,-2.381,-2.381,-2.376,-2.3534,-2.3471,-2.3409,-2.317,-2.3108,-2.3108,-2.3108,-2.3108,-2.3108,-2.3108,-2.2857,-2.2631,-2.2631,-2.2397,0.0,-2.1443,-2.1182,-2.0842,-2.025,-2.0189,-2.0075,-1.9836,-1.9798,-1.9685,-1.9359,-1.9334,-1.8983,-1.8141,-1.7852,0.0,0.0,0.0,-1.6387,-1.6183,-1.617,0.0,0.0,0.0,0.0,0.0,0.0,0.0,0.0,-1.2852,-1.2714,0.0,0.0,0.0,0.0,0.0,0.0,0.0,0.0,0.0,0.0,0.0,0.0,0.0,0.0,0.0,0.0,-1.6032,-1.7127,-1.8154,-1.8342,-1.8367,-1.8304,-1.8807,-1.9397,-1.9861,-2.0503,-2.1081,-2.1543,-2.1644,-2.1895,-2.2343,0.0,0.0,0.0,0.0,-2.4857,-2.61,-2.6179,-2.7012,-2.8497,-2.785,-2.798,-2.8726,-2.7993,-2.7626,-2.7597,-2.6888,-2.6948,-2.7531,-2.7363,-2.7611,-2.7899,-2.5858,-2.4935,-2.4788,-2.4788,-2.4788,-2.4788,-2.4788,0.0,0.0,-2.4788,-2.4788,-2.4788,-2.4788,-2.4788,-2.4687,-2.423,-2.4092,-2.3979,-2.3434,-2.3246,-2.3195,-2.3195,-2.3158,-2.3108,-2.3108,-2.3108,-2.3108,-2.3108,-2.3108,-2.2945,-2.2456,-2.1945,-2.1408,-2.0779,-2.0691,-2.0478,-1.9874,-1.9798,-1.9798,-1.9798,0.0,0.0,-1.9045,-1.8556,-1.8066,-1.7513,-1.6936,-1.6371,-1.5806,-1.5781,-1.5781,-1.5781,-1.5781,-1.6032,-1.65,-1.65,-1.6271,-1.5743,-1.3785,-1.3634,0.0,0.0,0.0,0.0,0.0,0.0,0.0,0.0,0.0,0.0,0.0,0.0,0.0,0.0,0.0,-1.607,-1.7491,-1.8594,-1.8807,-1.9233,-1.9334,-1.8895,-1.9748,-2.0415,-2.0515,-2.1405,-2.2033,-2.2146,-2.2543,-2.2832,-2.2945,-2.3427,-2.3766,-2.3991,-2.5102,-2.5809,-2.61,-2.6731,-2.7786,-2.9218,0.0,0.0,-3.0863,-3.0073,-2.973,-2.97,-2.9563,-2.9563,-2.9698,-2.9661,-2.9291,-2.8642,-2.711,-2.5788,-2.4788,-2.4788,-2.4788,-2.4788,-2.4788,-2.4788,-2.4788,-2.4788,-2.4788,-2.4788,-2.4788,-2.4788,0.0,-2.4662,-2.4637,-2.4612,-2.4499,-2.4167,-2.3841,-2.3841,-2.3446,-2.3108,-2.3108,-2.3108,-2.3108,-2.3108,-2.3108,-2.307,-2.2957,-2.2493,-2.182,-2.0842,-2.0691,-2.0478,-1.9874,-1.9798,-1.9798,-1.9798,-1.9798,-1.9597,-1.9045,-1.8907,-1.8607,-1.8078,-1.7526,-1.6961,-1.6384,-1.6337,-1.6337,-1.6337,-1.6337,-1.6387,-1.65,-1.65,-1.6437,-1.6325,-1.5898,-1.5655,0.0,0.0,0.0,0.0,0.0,0.0,0.0,0.0,0.0,0.0,0.0,-1.381,-1.4344,0.0,-1.681,-1.7616,-1.8456,-1.9196,-1.9773,-2.0075,-2.0137,-1.9874,-2.0352,-2.0905,-2.1443,-2.1995,-2.2393,-2.2681,-2.2945,-2.3419,-2.4124,-2.4451,-2.5049,-2.6087,-2.6768,-2.7496,-2.8183,-2.8607,-2.9374,-3.0455,-3.0455,-3.082,-3.1511,-3.1087,-3.0896,-3.0866,-3.0464,-3.0299,-3.0269,-2.9827,-2.938,-2.8943,-2.823,-2.7245,-2.6258,-2.6258,-2.5988,-2.5636,-2.5636,-2.5636,-2.5636,-2.5636,-2.5636,-2.5636,-2.5636,-2.5636,-2.5586,-2.5285,-2.5209,-2.5146,-2.4863,-2.4587,-2.4406,-2.4406,-2.3979,-2.3534,-2.3534,-2.3308,-2.3108,-2.3108,-2.3108,-2.3108,-2.3108,-2.2882,-2.2447,-2.1606,-2.1282,-2.0905,-2.0313,-1.9987,-1.9798,-1.9798,-1.9798,-1.9698,-1.9409,-1.9146,-1.877,-1.8242,-1.7953,-1.7664,-1.7375,-1.734,-1.734,-1.734,-1.734,-1.7225,-1.6948,-1.7225,-1.7378,-1.7398,-1.7682,-1.7514,0.0,0.0,0.0,0.0,0.0,0.0,0.0,0.0,-1.3127,-1.3453,-1.4601,-1.5676,-1.6095,-1.7011,-1.8028,-1.8995,-1.9246,-1.9698,-2.0717,-2.0855,-2.0893,-2.0993,-2.1018,-2.1358,-2.2234,-2.238,-2.2631,-2.307,-2.3334,-2.3996,-2.5144,-2.5578,-2.6532,-2.8155,-2.846,-2.9165,-3.0299,-3.045,-3.0866,-3.1511,-3.1511,-3.1511,-3.1511,-3.1511,-3.1511,-3.1467,-3.0807,-3.0524,-3.0494,-2.9797,-2.9473,-2.9473,-2.9473,-2.8971,-2.8182,-2.8019,-2.7537,-2.6973,-2.6782,-2.6714,-2.6714,-2.6555,-2.6499,-2.6499,-2.6499,-2.6499,-2.6399,-2.59,-2.5762,-2.5674,-2.5247,-2.5059,-2.4971,-2.4971,-2.4556,-2.413,-2.4017,-2.364,-2.3246,-2.3133,-2.3108,-2.3108,-2.3108,-2.3108,-2.292,-2.2397,-2.1933,-2.1443,-2.0918,-2.0352,-1.9962,-1.9962,-1.9874,-1.9798,-1.9798,-1.9384,-1.892,-1.8405,-1.8367,-1.8317,-1.8204,-1.8204,-1.8275,-1.8367,-1.8367,-1.8244,-1.7933,-1.8359,-1.8595,-1.8645,-1.9105,-1.9043,-1.1027,-1.127,0.0,-1.3266,-1.2961,-1.3205,0.0,0.0,-1.5756,-1.725,-1.7702,-1.7852,-1.7915,-1.8406,-1.9008,-1.9623,-2.015,-2.0729,-2.1333,-2.1393,-2.1581,-2.2071,-2.2133,-2.2184,-2.2297,-2.2732,-2.3045,-2.3095,-2.4266,-2.5031,-2.5187,-2.6884,-2.7967,-2.8183,-2.9399,-3.0136,-3.0299,-3.0999,-3.1409,-3.1511,-3.1511,-3.1511,-3.1511,-3.1511,-3.1511,-3.1511,-3.1409,-3.138,-3.1351,-3.1248,-3.1219,-3.1219,-3.1219,-3.0718,-2.9919,-2.9129,-2.8812,-2.862,-2.7835,-2.7571,-2.7451,-2.6714,-2.6499,-2.6499,-2.6499,-2.6499,-2.6474,-2.6411,-2.6399,-2.6386,-2.6323,-2.59,-2.5511,-2.5511,-2.5109,-2.4562,-2.4104,-2.3954,-2.3753,-2.3208,-2.3108,-2.3108,-2.3108,-2.3108,-2.292,-2.2397,-2.2259,-2.202,-2.1496,-2.0943,-2.0591,-2.0591,-2.0112,-1.9798,-1.9798,-1.9748,-1.9497,-1.8945,-1.8907,-1.8694,-1.8229,-1.8204,-1.8448,-1.8995,-1.8995,-1.9262,-1.9803,-1.985,-1.9893,-1.9911,-1.9958,-1.9958,-1.4019,0.0,0.0,0.0,-1.639,-1.6755,-1.8453,-1.8545,-1.8355,-1.866,-1.8996,-1.9136,-1.8754,-1.9096,-1.966,0.0,-2.0541,-2.0993,-2.1845,-2.1694,-2.1694,-2.2246,-2.2309,-2.2406,-2.2732,-2.297,-2.3246,-2.3615,-2.4602,-2.5731,-2.687,-2.8192,-2.9255,-3.0074,-3.0705,-3.0999,-3.0999,-3.1322,-3.1511,-3.1511,-3.1511,-3.1511,-3.1511,-3.1511,-3.1511,-3.1511,-3.1511,-3.1511,-3.1511,-3.1511,-3.1511,-3.1511,-3.1511,-3.1278,-3.0837,-2.9473,-2.9002,-2.8876,-2.7986,-2.7703,-2.7637,-2.7317,-2.6871,-2.6499,-2.6499,-2.6499,-2.6499,-2.6499,-2.6499,-2.6499,-2.6499,-2.6311,-2.6135,-2.6135,-2.5674,-2.5121,-2.4594,-2.423,-2.3828,-2.3221,-2.3108,-2.3108,-2.3108,-2.3108,-2.302,-2.2794,-2.2493,-2.2234,-2.1995,-2.1493,-2.1043,-2.0729,-2.0478,-2.0189,-1.9823,-1.9798,-1.971,-1.9497,-1.9472,-1.9371,-1.9145,-1.9503,-1.9819,-2.008,-2.0432,-2.0603,-2.057,-2.0867,-2.1069,-2.1155,-2.1467,-2.1814,-1.5778,0.0,0.0,-1.8277,-1.9083,-1.9489,-1.9859,-2.0146,-2.018,-1.9674,-1.9919,-2.002,-1.9333,-1.9547,0.0,-2.0805,-2.0918,-2.1307,-2.2355,-2.2071,-2.192,-2.2443,-2.2397,-2.2493,-2.3045,-2.3108,-2.3455,-2.4256,-2.5239,-2.6573,-2.843,-2.9462,-3.0455,-3.1452,-3.1511,-3.1511,-3.1511,-3.1511,-3.1511,-3.1511,-3.1511,-3.1511,-3.1511,-3.1511,-3.16,-3.178,-3.178,-3.178,-3.178,-3.178,-3.1675,-3.1511,-3.1511,-3.1511,-3.1322,-2.9889,-2.9504,-2.9566,-2.8716,-2.8427,-2.8363,-2.8149,-2.767,-2.7196,-2.7196,-2.7196,-2.7196,-2.7196,-2.7196,-2.7129,-2.6871,-2.685,-2.6782,-2.6555,-2.6172,-2.5649,-2.4938,-2.4474,-2.4004,-2.3246,-2.3108,-2.3108,-2.3108,-2.3108,-2.3108,-2.3108,-2.2769,-2.2506,-2.2506,-2.2058,-2.1506,-2.0981,-2.0779,-2.0515,-2.0075,-1.9899,-1.9875,-2.0055,-2.008,-2.0144,-2.032,-2.0807,-2.1151,-2.1321,-2.1748,-2.1866,-2.1648,-2.2036,-2.2263,-2.2381,-2.2783,-2.3187,0.0,0.0,-1.8333,-1.9704,-2.0073,-2.0342,-2.1383,-2.124,-2.0854,-2.0771,-2.0756,-2.057,-1.9901,-1.9798,-2.0162,-2.128,-2.1496,-2.1845,-2.292,-2.2606,-2.2456,-2.3007,-2.2606,-2.2493,0.0,-2.3108,-2.3671,-2.5057,-2.644,-2.7874,-2.9305,-3.0674,-3.1452,-3.1511,-3.1511,-3.1511,-3.1511,-3.1511,-3.1511,-3.1511,-3.1511,-3.1511,-3.1511,-3.1511,-3.1854,-3.2452,-3.2452,-3.2452,-3.2452,-3.2452,-3.2079,-3.1511,-3.1511,-3.1511,-3.1409,-3.0584,-3.0748,-3.1307,-3.0494,-3.0238,-3.0072,-2.9254,-2.8939,-2.8907,-2.8907,-2.8907,-2.8907,-2.8907,-2.8907,-2.8716,-2.7887,-2.767,-2.7484,-2.6679,-2.6474,-2.6172,-2.5059,-2.4775,-2.4437,-2.3321,-2.3108,-2.3108,-2.3108,-2.3108,-2.3108,-2.3108,-2.3095,-2.3083,-2.3083,-2.2594,-2.2071,-2.1518,-2.1018,-2.0679,-2.0666,-2.0151,-2.008,-2.0721,-2.0771,-2.1028,-2.1625,-2.1649,-2.1983,-2.2626,-2.2649,-2.2965,-2.3522,-2.3537,-2.3537,-2.3543,-2.3573,-2.3573,0.0,0.0,-1.98,-2.1409,-2.1831,-2.2035,-2.2795,-2.2819,-2.2336,-2.1116,-2.0879,-2.0429,-1.8989,-1.9045,-1.9648,-2.0792,-2.1282,-2.187,-2.2945,-2.3061,-2.2923,-2.2619,-2.3289,0.0,0.0,0.0,0.0,-2.5054,-2.6937,-2.8412,-2.9275,-3.0704,-3.1511,-3.1511,-3.1511,-3.1511,-3.1511,-3.1511,-3.1511,-3.1511,-3.1511,-3.1735,-3.2138,-3.1705,-3.2108,-3.311,-3.2213,-3.2079,-3.2482,-3.2019,-3.1705,-3.1511,-3.1511,-3.1511,-3.1467,-3.119,-3.1278,-3.138,-3.0584,-3.0299,-3.0238,-2.995,-2.9473,-2.9002,-2.9002,-2.9002,-2.9002,-2.9002,-2.9002,-2.8939,-2.8652,-2.8556,-2.8492,-2.8214,-2.7736,-2.7076,-2.6356,-2.5748,-2.5158,-2.4554,-2.4015,-2.373,-2.3861,-2.3454,-2.3108,-2.3108,-2.3108,-2.3108,-2.3108,-2.2945,-2.2619,-2.2096,-2.187,-2.1817,-2.1953,-2.1772,-2.1772,-2.2029,-2.2051,-2.1958,-2.1724,-2.2123,-2.2475,-2.2694,-2.3098,-2.3399,-2.3595,-2.3595,-2.3595,-2.361,-2.4073,-2.4261,0.0,-2.0318,-2.1054,-2.264,-2.3032,-2.3116,-2.3505,-2.3286,-2.2586,-2.1195,-2.0561,-1.9848,-1.8443,-1.8469,-1.9158,-2.0478,-2.0993,-2.1756,-2.3322,-2.3451,-2.3484,-2.3746,-2.442,-2.4833,0.0,0.0,0.0,-2.6251,-2.7824,-2.9146,-3.0032,-3.0982,-3.1511,-3.1511,-3.1511,-3.1511,-3.1511,-3.1511,-3.163,-3.1854,-3.2093,-3.2452,-3.2841,-3.2392,-3.2826,-3.3799,-3.2961,-3.2826,-3.3155,-3.2497,-3.2064,-3.1824,-3.1585,-3.1511,-3.1511,-3.1511,-3.1511,-3.1438,-3.0896,-3.0748,-3.0748,-3.0748,-3.0359,-2.9889,-2.9889,-2.9889,-2.9889,-2.9889,-2.9889,-2.9827,-2.9535,-2.9473,-2.938,-2.9066,-2.8556,-2.8021,-2.7494,-2.6916,-2.6416,-2.5975,-2.5342,-2.4895,-2.5027,-2.4411,-2.393,-2.393,-2.393,-2.3813,-2.356,-2.3543,-2.3508,-2.3423,-2.2974,-2.286,-2.3259,-2.3097,-2.3099,-2.3407,-2.3428,-2.3205,-2.2771,-2.314,-2.3257,-2.3024,-2.3399,-2.3595,-2.3595,-2.3595,-2.3729,-2.3984,-2.4395,-2.4724,-2.0148,-2.1015,-2.2128,-2.331,-2.3625,-2.3625,-2.3565,-2.2708,-2.1686,-2.091,-1.9831,-1.8812,0.0,0.0,-1.8681,-2.0314,-2.0666,-2.1557,-2.3916,-2.3847,-2.4265,0.0,0.0,0.0,0.0,0.0,0.0,-2.8495,0.0,-3.0046,-3.1392,-3.1481,-3.1511,-3.1511,-3.1511,-3.1511,-3.1511,-3.154,-3.1884,-3.2572,-3.32,-3.3514,-3.3544,-3.3514,-3.3873,-3.4563,-3.4488,-3.4474,-3.4459,-3.3769,-3.3125,-3.2467,-3.1809,-3.1555,-3.1555,-3.1511,-3.1511,-3.1511,-3.1511,-3.1511,-3.1511,-3.1511,-3.1511,-3.1511,-3.1511,-3.1511,-3.1511,-3.1511,-3.1511,-3.1322,-3.0554,-3.0359,-3.0133,-2.9317,-2.9097,-2.8945,-2.8424,-2.8269,-2.8074,-2.7496,-2.6884,-2.6439,-2.641,-2.5826,-2.5398,-2.5398,-2.5425,-2.5175,-2.4452,-2.435,-2.4624,-2.5315,-2.4269,-2.3809,-2.4527,-2.4132,-2.4129,-2.4761,-2.481,-2.4751,-2.4657,-2.4649,-2.435,-2.3714,-2.3699,-2.3699,-2.3699,-2.3699,-2.4044,-2.4649,-2.4694,-2.5038,-2.1759,-2.2933,-2.3812,-2.364,-2.3984,-2.4096,-2.3152,-2.2399,-2.1334,-1.9362,-1.8405,-1.746,-1.6013,0.0,0.0,-1.8694,-2.0239,0.0,-2.3416,-2.4797,0.0,0.0,0.0,-2.8453,-2.8154,-2.9241,0.0,0.0,-3.0136,-3.037,-3.0733,-3.1227,-3.1511,-3.1511,-3.1511,-3.1511,-3.1511,-3.1989,-3.2572,-3.3245,-3.341,-3.3754,-3.4234,-3.3724,-3.4143,-3.519,-3.4188,-3.4054,-3.4459,-3.3769,-3.3395,-3.3185,-3.2497,-3.2243,-3.2168,-3.169,-3.1511,-3.1511,-3.1511,-3.1511,-3.1511,-3.1511,-3.1511,-3.1511,-3.1511,-3.1511,-3.1511,-3.1511,-3.1511,-3.1438,-3.1248,-3.119,-3.1161,-3.0925,-3.0389,-2.9938,-2.9811,-2.9234,-2.8805,-2.8792,-2.7926,-2.7045,-2.6495,-2.5826,-2.5398,-2.5398,-2.5864,-2.596,-2.5203,-2.5119,-2.5175,-2.537,-2.5094,-2.519,-2.5934,-2.5857,-2.5882,-2.6105,-2.6124,-2.589,-2.5367,-2.5337,-2.5247,-2.5091,-2.5091,-2.5091,-2.5091,-2.5091,-2.5196,-2.5352,-2.5869,-2.6183,-2.2823,-2.3834,-2.4515,-2.4126,-2.4321,-2.4186,-2.2607,-2.1489,-2.0144,-1.7969,-1.6906,0.0,0.0,0.0,0.0,0.0,0.0,0.0,-2.3608,-2.5354,-2.6749,0.0,-2.9085,0.0,-2.9765,-3.049,-3.0956,0.0,-3.0956,-3.0956,-3.0956,-3.1301,-3.1511,-3.1511,-3.1511,-3.1645,-3.1929,-3.2901,-3.3559,-3.3918,-3.4233,-3.4562,-3.4921,-3.4547,-3.4801,-3.5459,0.0,-3.4592,-3.4876,-3.4234,-3.3918,-3.3858,-3.32,-3.2766,-3.2437,-3.2064,-3.175,-3.1511,-3.1511,-3.1511,-3.1511,-3.1511,-3.1511,-3.1511,-3.1511,-3.1511,-3.1511,-3.1511,-3.1511,-3.1511,-3.1511,-3.1511,-3.1511,-3.1511,-3.1161,-3.0837,-3.0837,-3.0419,-3.0037,-2.9856,-2.9268,-2.8526,-2.7533,-2.7035,-2.6705,-2.6418,-2.6707,-2.6837,-2.6428,-2.581,-2.5646,-2.6295,-2.5783,-2.5837,-2.6878,-2.6982,-2.699,-2.7051,-2.7046,-2.6746,-2.6063,-2.6033,-2.5899,-2.5615,-2.5615,-2.5615,-2.5615,-2.5615,-2.5749,-2.6048,-2.6422,-2.6752,-2.3535,-2.4216,-2.4709,-2.4634,-2.4605,-2.4044,-2.1963,-2.0226,-1.8503,-1.656,0.0,0.0,-1.329,0.0,-1.5957,-1.7109,0.0,-2.0927,-2.3848,-2.5578,-2.7272,-2.923,-3.0138,-3.0853,-3.1451,-3.1511,-3.1511,-3.1511,-3.1511,-3.1511,-3.1511,-3.1511,-3.154,-3.163,-3.163,-3.1989,-3.2766,-3.3903,-3.4548,-3.4653,-3.522,-3.5504,-3.5504,-3.5504,-3.5504,-3.5504,-3.5504,0.0,-3.5459,-3.4861,-3.4593,-3.4444,-3.3754,-3.3095,-3.2497,-3.2392,-3.1989,-3.1511,-3.1511,-3.1511,-3.1511,-3.1511,-3.1511,-3.1511,-3.1511,-3.1511,-3.1511,-3.1511,-3.1511,-3.1511,-3.1511,-3.1511,-3.1511,-3.1511,-3.1511,-3.1511,-3.1511,-3.1511,-3.1331,-3.0761,-3.0567,-3.0118,-2.8936,-2.8667,-2.8368,-2.7705,-2.76,-2.76,-2.76,-2.6481,-2.6188,-2.7458,-2.6455,-2.6215,-2.7484,-2.76,-2.76,-2.76,-2.76,-2.7345,-2.6752,-2.6722,-2.6452,-2.5884,-2.5869,-2.5869,-2.5869,-2.5869,-2.6153,-2.6722,-2.6722,-2.7046,-2.4096,-2.4918,-2.5277,-2.4739,-2.4605,-2.3859,-2.1028,-1.9056,0.0,0.0,0.0,-1.2764,-1.2576,-1.3898,0.0,-1.6484,0.0,0.0,0.0,0.0,-2.7635,0.0,0.0,0.0,0.0,0.0,0.0,0.0,0.0,-3.1511,-3.1511,-3.1511,-3.175,-3.2303,-3.2318,-3.2916,-3.4159,-3.4399,-3.4788,-3.5325,-3.5444,-3.5504,-3.5504,-3.5504,-3.5504,-3.5504,-3.5504,0.0,-3.5489,-3.537,-3.4996,-3.4444,-3.3754,-3.3095,-3.2422,-3.1869,-3.16,-3.1511,-3.1511,-3.1511,-3.1511,-3.1511,-3.1511,-3.1511,-3.1511,-3.1511,-3.1511,-3.1511,-3.1511,-3.1511,-3.1511,-3.1511,-3.1511,-3.1511,-3.1511,-3.1511,-3.1511,-3.1511,-3.1466,-3.1346,-3.0896,-3.0268,-2.9535,-2.8966,-2.8368,-2.7705,-2.76,-2.76,-2.76,-2.7382,-2.7331,-2.7575,-2.7382,-2.7316,-2.7575,-2.76,-2.76,-2.76,-2.76,-2.754,-2.7435,-2.742,-2.7375,-2.7255,-2.7255,-2.7255,-2.7255,-2.7255,-2.7315,-2.742,-2.742,-2.748,-2.4246,-2.5083,-2.545,-2.4769,-2.4605,-2.3718,-2.0357,0.0,0.0,0.0,0.0,-1.1801,-1.1211,0.0,0.0,0.0,0.0,0.0,0.0,0.0,0.0,0.0,0.0,0.0,0.0,0.0,0.0,0.0,0.0,-3.1511,-3.1511,-3.1511,-3.1645,-3.1974,-3.2677,-3.332,-3.3963,-3.4666,-3.5175,-3.5504,-3.5504,-3.5504,-3.5504,-3.5504,-3.5504,-3.5504,-3.5504,0.0,-3.5504,-3.5504,-3.51,-3.4474,-3.4159,-3.3395,-3.2452,-3.2123,-3.1795,-3.1511,-3.1511,-3.1511,-3.1511,-3.1511,-3.1511,-3.1511,-3.1511,-3.1511,-3.1511,-3.1511,-3.1511,-3.1511,-3.1511,-3.1511,-3.1511,-3.1511,-3.1511,-3.1511,-3.1511,-3.1511,-3.1511,-3.1511,-3.1241,-3.0731,-2.9744,-2.9325,-2.8757,-2.775,-2.76,-2.76,-2.76,-2.76,-2.76,-2.76,-2.7255,-2.7163,-2.7575,-2.76,-2.76,-2.76,-2.76,-2.76,-2.76,-2.76,-2.76,-2.76,-2.76,-2.76,-2.76,-2.76,-2.76,-2.76,-2.76,-2.76,-2.4066,-2.4874,-2.5247,-2.4739,-2.4395,-2.3264,-1.9754,-1.7516,0.0,0.0,0.0,-1.0999,-1.0219,0.0,0.0,0.0,0.0,0.0,0.0,0.0,0.0,0.0,0.0,0.0,0.0,0.0,0.0,0.0,0.0,0.0,-3.1511,-3.1511,-3.157,-3.1705,-3.2886,-3.3559,-3.3709,-3.4906,-3.5504,-3.5504,-3.5504,-3.5504,-3.5504,-3.5504,-3.5504,-3.5504,-3.5504,0.0,0.0,-3.534,-3.4876,-3.4279,-3.4144,-3.3335,-3.2273,-3.2273,-3.1944,-3.1511,-3.1511,-3.1511,-3.1511,-3.1511,-3.1511,-3.1511,-3.1511,-3.1511,-3.1511,-3.1511,-3.1511,-3.1511,-3.1511,-3.1511,-3.1511,-3.1511,-3.1511,-3.1511,-3.1511,-3.1511,-3.1511,-3.1511,-3.1511,-3.1137,-2.9983,-2.9696,-2.9202,-2.7989,-2.769,-2.76,-2.76,-2.76,-2.76,-2.76,-2.7086,-2.6956,-2.7534,-2.76,-2.76,-2.76,-2.76,-2.76,-2.76,-2.76,-2.76,-2.76,-2.76,-2.76,-2.76,-2.76,-2.76,-2.76,-2.76,-2.76,-2.3505,-2.4171,-2.4679,-2.4619,-2.3729,-2.2093,-1.9139,0.0,0.0,0.0,-1.08,-1.0169,-1.057,0.0,0.0,0.0,0.0,0.0,0.0,0.0,0.0,0.0,0.0,0.0,0.0,0.0,0.0,0.0,0.0,0.0,-3.1511,-3.1511,-3.178,-3.2378,-3.3125,-3.3784,-3.4414,-3.513,-3.5504,-3.5504,-3.5504,-3.5504,-3.5504,-3.5504,-3.5504,-3.5504,-3.5504,0.0,0.0,-3.4831,-3.4219,-3.3529,-3.2931,-3.2228,-3.1585,-3.1585,-3.1555,-3.1511,-3.1511,-3.1511,-3.1511,-3.1511,-3.1511,-3.1511,-3.1511,-3.1511,-3.1511,-3.1511,-3.1511,-3.1511,-3.1511,-3.1511,-3.1511,-3.1511,-3.1511,-3.1511,-3.1511,-3.1511,-3.1511,-3.1511,-3.1511,-3.1271,-3.0552,-2.9953,-2.9367,-2.8622,-2.8004,-2.76,-2.76,-2.76,-2.76,-2.76,-2.7549,-2.7524,-2.76,-2.76,-2.76,-2.76,-2.76,-2.76,-2.76,-2.76,-2.76,-2.76,-2.76,-2.76,-2.76,-2.76,-2.76,-2.76,-2.76,-2.76,-2.2757,-2.3819,-2.45,-2.4096,-2.3325,-2.1945,-1.9072,0.0,0.0,-1.2045,-1.0684,-0.9968,-1.0181,-1.0682,-1.1575,0.0,-1.451,0.0,0.0,0.0,0.0,0.0,0.0,0.0,0.0,0.0,0.0,0.0,0.0,0.0,-3.1511,-3.1511,-3.163,-3.1884,-3.2557,-3.3215,-3.3873,-3.4547,-3.51,-3.5504,-3.5504,-3.5504,-3.5504,-3.5504,-3.5504,-3.5489,-3.507,0.0,0.0,-3.4158,-3.3499,-3.2886,-3.2617,-3.2079,-3.1511,-3.1511,-3.1511,-3.1511,-3.1511,-3.1511,-3.1511,-3.1511,-3.1511,-3.1511,-3.1511,-3.1511,-3.1511,-3.1511,-3.1511,-3.1511,-3.1511,-3.1511,-3.1511,-3.1511,-3.1511,-3.1511,-3.1511,-3.1511,-3.1511,-3.1511,-3.1511,-3.1286,-3.0627,-3.0298,-2.9924,-2.928,-2.8622,-2.8188,-2.8188,-2.7854,-2.76,-2.76,-2.76,-2.76,-2.76,-2.76,-2.76,-2.76,-2.76,-2.76,-2.76,-2.76,-2.76,-2.76,-2.76,-2.76,-2.76,-2.76,-2.76,-2.76,-2.76,-2.76,-2.172,-2.2906,-2.3618,-2.3161,-2.2444,-2.121,0.0,0.0,-1.4001,-1.2015,-1.0684,-0.9905,-0.9905,-1.0344,-1.1069,-1.2212,-1.3431,-1.5339,-1.855,0.0,0.0,0.0,0.0,0.0,0.0,0.0,0.0,0.0,0.0,0.0,-3.1511,-3.1511,-3.1511,-3.1511,-3.2138,-3.2826,-3.3484,-3.4174,-3.4848,-3.5504,-3.5504,-3.54,-3.519,-3.519,-3.51,-3.4876,-3.4397,0.0,0.0,-3.3469,-3.2931,-3.2497,-3.2273,-3.1914,-3.1511,-3.1511,-3.1511,-3.1511,-3.1511,-3.1511,-3.1511,-3.1511,-3.1511,-3.1511,-3.1511,-3.1511,-3.1511,-3.1511,-3.1511,-3.1511,-3.1511,-3.1511,-3.1511,-3.1511,-3.1511,-3.1511,-3.1511,-3.1511,-3.1511,-3.1511,-3.1511,-3.1346,-3.0896,-3.0642,-3.0357,-2.9924,-2.931,-2.8891,-2.8891,-2.8293,-2.7899,-2.7899,-2.772,-2.76,-2.76,-2.76,-2.76,-2.76,-2.76,-2.76,-2.76,-2.76,-2.76,-2.76,-2.76,-2.76,-2.76,-2.76,-2.76,-2.76,-2.76,-2.76,-2.0269,-2.1216,-2.1724,-2.1724,-2.0813,-1.9511,0.0,-1.5688,-1.3554,-1.1923,-1.0684,-0.9905,-0.9905,-1.0344,-1.1069,-1.2212,-1.3752,-1.5622,0.0,0.0,0.0,0.0,0.0,0.0,0.0,0.0,0.0,0.0,0.0,0.0,-3.1511,-3.1511,-3.1511,-3.1511,-3.2138,-3.2826,-3.3484,-3.4174,-3.4848,-3.5504,-3.5504,-3.5145,-3.4518,-3.4518,-3.4159,0.0,0.0,0.0,0.0,-3.2796,-3.2497,-3.2422,-3.1765,-3.1511,-3.1511,-3.1511,-3.1511,-3.1511,-3.1511,-3.1511,-3.1511,-3.1511,-3.1511,-3.1511,-3.1511,-3.1511,-3.1511,-3.1511,-3.1511,-3.1511,-3.1511,-3.1511,-3.1511,-3.1511,-3.1511,-3.1511,-3.1511,-3.1511,-3.1511,-3.1511,-3.1511,-3.1511,-3.1496,-3.0928,-3.0507,-3.0492,-2.9968,-2.9592,-2.9592,-2.8996,-2.8592,-2.8592,-2.8004,-2.76,-2.76,-2.76,-2.76,-2.76,-2.76,-2.76,-2.76,-2.76,-2.76,-2.76,-2.76,-2.76,-2.76,-2.76,-2.76,-2.76,-2.76,-2.76,-1.8044,-1.8942,-1.954,-1.9074,-1.8461,-1.7565,-1.5952,-1.447,-1.2975,-1.134,-1.0408,-0.9905,-0.9905,-1.0344,-1.1182,-1.2697,-1.3729,0.0,0.0,0.0,0.0,0.0,0.0,0.0,0.0,0.0,0.0,0.0,0.0,0.0,-3.1511,-3.1511,-3.1511,-3.1511,-3.1705,-3.2123,-3.2826,-3.3036,-3.3694,-3.4801,-3.4337,-3.4247,-3.4488,-3.4039,-3.3694,0.0,0.0,0.0,0.0,-3.2079,-3.1809,-3.1795,-3.1585,-3.1511,-3.1511,-3.1511,-3.1511,-3.1511,-3.1511,-3.1511,-3.1511,-3.1511,-3.1511,-3.1511,-3.1511,-3.1511,-3.1511,-3.1511,-3.1511,-3.1511,-3.1511,-3.1511,-3.1511,-3.1511,-3.1511,-3.1511,-3.1511,-3.1511,-3.1511,-3.1511,-3.1511,-3.1511,-3.1511,-3.1316,-3.1182,-3.1182,-3.0642,-3.0223,-3.0223,-2.9265,-2.8607,-2.8607,-2.8004,-2.76,-2.76,-2.76,-2.76,-2.76,-2.76,-2.76,-2.76,-2.76,-2.76,-2.76,-2.76,-2.76,-2.76,-2.76,-2.76,-2.7625,-2.8018,-2.7993,0.0,-1.701,-1.7505,-1.7086,-1.6637,-1.5947,-1.464,-1.3506,-1.2361,-1.0981,-1.0269,-0.9968,-1.0156,-1.0657,-1.1447,-1.2701,-1.374,0.0,0.0,0.0,0.0,0.0,0.0,0.0,0.0,0.0,0.0,0.0,0.0,0.0,-3.1511,-3.1511,-3.1511,-3.1511,-3.1511,-3.1824,-3.2497,-3.2512,-3.3051,-3.4129,-3.3694,-3.3589,-3.3724,-3.3305,-3.2991,0.0,0.0,0.0,0.0,-3.1675,-3.1511,-3.1511,-3.1511,-3.1511,-3.1511,-3.1511,-3.1511,-3.1511,-3.1511,-3.1511,-3.1511,-3.1511,-3.1511,-3.1511,-3.1511,-3.1511,-3.1511,-3.1511,-3.1511,-3.1511,-3.1511,-3.1511,-3.1511,-3.1511,-3.1511,-3.1511,-3.1511,-3.1511,-3.1511,-3.1511,-3.1511,-3.1511,-3.1511,-3.1511,-3.1511,-3.1511,-3.1137,-3.0806,-3.0537,-2.9609,-2.8876,-2.8622,-2.8004,-2.76,-2.76,-2.76,-2.76,-2.76,-2.76,-2.76,-2.76,-2.76,-2.76,-2.76,-2.76,-2.76,-2.76,-2.76,-2.771,-2.7959,-2.8319,-2.8415,0.0,-1.5241,-1.5529,-1.5529,-1.5169,-1.4567,-1.3695,-1.2696,0.0,-1.0814,-1.0244,-1.0081,-1.067,-1.1261,-1.1864,-1.2526,0.0,0.0,0.0,0.0,0.0,0.0,0.0,0.0,0.0,0.0,0.0,0.0,0.0,0.0,-3.1511,-3.1511,-3.1511,-3.1511,-3.1511,-3.1795,-3.2407,-3.2437,-3.2781,-3.3425,-3.338,-3.3066,-3.2512,-3.2437,-3.2079,0.0,0.0,0.0,0.0,-3.1511,-3.1511,-3.1511,-3.1511,-3.1511,-3.1511,-3.1511,-3.1511,-3.1511,-3.1511,-3.1511,-3.1511,-3.1511,-3.1511,-3.1511,-3.1511,-3.1511,-3.1511,-3.1511,-3.1511,-3.1511,-3.1511,-3.1511,-3.1511,-3.1511,-3.1511,-3.1511,-3.1511,-3.1511,-3.1511,-3.1511,-3.1511,-3.1511,-3.1511,-3.1511,-3.1511,-3.1511,-3.1511,-3.1271,-3.0657,-3.0028,-2.9415,-2.8801,-2.8109,-2.766,-2.766,-2.763,-2.76,-2.76,-2.76,-2.76,-2.76,-2.76,-2.76,-2.76,-2.76,-2.76,-2.76,-2.7635,-2.7944,-2.8487,-2.8583,-2.8935,-1.1151,0.0,-1.2732,-1.2732,-1.2802,-1.2634,0.0,-1.1467,-1.1147,0.0,0.0,-1.0207,-1.1199,-1.1839,-1.2806,0.0,0.0,0.0,0.0,0.0,0.0,0.0,0.0,0.0,0.0,0.0,0.0,0.0,0.0,-3.1511,-3.1511,-3.1511,-3.1511,-3.1511,-3.1511,-3.1585,-3.1735,-3.1735,-3.2064,-3.2736,-3.2213,-3.2153,-3.2467,-3.1974,-3.1645,0.0,0.0,0.0,-3.1511,-3.1511,-3.1511,-3.1511,-3.1511,-3.1511,-3.1511,-3.1511,-3.1511,-3.1511,-3.1511,-3.1511,-3.1511,-3.1511,-3.1511,-3.1511,-3.1511,-3.1511,-3.1511,-3.1511,-3.1511,-3.1511,-3.1511,-3.1511,-3.1511,-3.1511,-3.1511,-3.1511,-3.1511,-3.1511,-3.1511,-3.1511,-3.1511,-3.1511,-3.1511,-3.1511,-3.1511,-3.1511,-3.1511,-3.1451,-3.1286,-3.0702,-3.0223,-3.0073,-2.9041,-2.8353,-2.8353,-2.7899,-2.76,-2.76,-2.76,-2.76,-2.76,-2.76,-2.76,-2.76,-2.76,-2.76,-2.76,-2.8067,-2.8367,-2.8511,-2.9451,-3.0008,-0.9701,-1.1093,-1.234,-1.2643,-1.2831,-1.2771,-1.2135,0.0,0.0,0.0,0.0,0.0,-1.2086,0.0,0.0,0.0,0.0,0.0,0.0,0.0,0.0,0.0,0.0,0.0,0.0,0.0,0.0,0.0,0.0,-3.1511,-3.1511,-3.1511,-3.1668,-3.1979,-3.2007,-3.1853,-3.1511,-3.1511,-3.169,-3.2034,-3.1675,-3.1877,-3.254,-3.2175,-3.2188,0.0,0.0,0.0,-3.2446,-3.2446,-3.2446,-3.2434,-3.2132,-3.2007,-3.1951,-3.1611,-3.1511,-3.1511,-3.1511,-3.1511,-3.1511,-3.1511,-3.1511,-3.1511,-3.1511,-3.1511,-3.1511,-3.1511,-3.1511,-3.1511,-3.1511,-3.1511,-3.1511,-3.1511,-3.1511,-3.1511,-3.1511,-3.1511,-3.1511,-3.1511,-3.1511,-3.1511,-3.1511,-3.1511,-3.1511,-3.1511,-3.1511,-3.1391,-3.1077,-3.0731,-3.0387,-3.0118,-2.946,-2.8921,-2.8622,-2.8263,-2.7929,-2.7615,-2.76,-2.76,-2.76,-2.76,-2.76,-2.76,-2.7885,-2.8018,-2.8018,-2.8614,-2.9058,-2.9339,-2.9995,-3.0672,-0.9494,-1.1363,-1.3059,-1.354,-1.381,-1.3838,-1.3406,0.0,0.0,0.0,0.0,0.0,0.0,0.0,0.0,0.0,0.0,0.0,0.0,0.0,0.0,0.0,0.0,0.0,0.0,0.0,0.0,0.0,0.0,-3.1553,-3.1668,-3.1668,-3.2007,-3.2749,-3.2734,-3.2449,-3.1838,-3.1809,-3.1809,-3.1809,-3.1809,-3.216,-3.2734,-3.2734,-3.3066,-3.3582,0.0,0.0,-3.3582,-3.3582,-3.3582,-3.3531,-3.296,-3.2734,-3.2652,-3.1923,-3.1668,-3.1668,-3.1539,-3.1511,-3.1511,-3.1511,-3.1511,-3.1511,-3.1511,-3.1511,-3.1511,-3.1511,-3.1511,-3.1511,-3.1511,-3.1511,-3.1511,-3.1511,-3.1511,-3.1511,-3.1511,-3.1511,-3.1511,-3.1511,-3.1511,-3.1511,-3.1511,-3.1511,-3.1511,-3.1511,-3.1511,-3.1286,-3.0731,-3.0657,-3.0462,-2.9939,-2.9789,-2.9505,-2.8936,-2.8801,-2.8502,-2.7944,-2.7705,-2.7635,-2.7735,-2.7735,-2.7785,-2.787,-2.8367,-2.8654,-2.8654,-2.9248,-2.987,-3.0458,-3.0542,-3.132,-1.0793,-1.253,-1.354,-1.3074,-1.3807,-1.4416,0.0,0.0,0.0,0.0,0.0,0.0,0.0,0.0,0.0,0.0,0.0,0.0,0.0,0.0,0.0,0.0,0.0,0.0,0.0,0.0,0.0,0.0,0.0,-3.1768,-3.241,-3.2437,-3.2734,-3.3401,-3.3443,-3.3375,-3.3287,-3.3287,-3.3287,-3.3287,-3.3287,-3.3339,-3.3443,-3.3443,-3.3495,-3.3582,0.0,-3.3582,-3.3582,-3.3582,-3.3582,-3.3582,-3.3495,-3.3443,-3.3365,-3.268,-3.2437,-3.2355,-3.171,-3.1511,-3.1511,-3.1511,-3.1511,-3.1511,-3.1511,-3.1511,-3.1511,-3.1511,-3.1511,-3.1511,-3.1511,-3.1511,-3.1511,-3.1511,-3.1511,-3.1511,-3.1511,-3.1511,-3.1511,-3.1511,-3.1511,-3.1511,-3.1511,-3.1511,-3.1511,-3.1511,-3.1511,-3.1466,-3.1361,-3.1346,-3.1316,-3.1212,-3.0717,-3.0313,-3.0223,-2.9729,-2.9412,-2.9307,-2.8229,-2.7835,-2.8343,-2.8367,-2.8591,-2.9111,-2.9203,-2.9248,-2.9248,-2.987,-3.0542,-3.1226,-3.1763,-3.2769,-1.0249,-1.1984,-1.3358,-1.3777,-1.5126,-1.6249,0.0,0.0,0.0,0.0,0.0,0.0,0.0,0.0,0.0,0.0,0.0,0.0,0.0,0.0,0.0,0.0,0.0,0.0,0.0,0.0,0.0,0.0,0.0,0.0,-3.2586,-3.2933,-3.3443,-3.4112,-3.4137,-3.4309,-3.4681,-3.4681,-3.4325,-3.3582,-3.3582,-3.3786,-3.4137,-3.4137,-3.4333,-3.4681,0.0,-3.4681,-3.4681,-3.4681,-3.4681,-3.464,-3.4284,-3.4137,-3.4062,-3.3391,-3.2922,-3.2547,-3.2216,-3.1824,-3.1511,-3.1511,-3.1511,-3.1511,-3.1511,-3.1511,-3.1511,-3.1511,-3.1511,-3.1511,-3.1511,-3.1511,-3.1511,-3.1511,-3.1511,-3.1511,-3.1511,-3.1511,-3.1511,-3.1511,-3.1511,-3.1511,-3.1511,-3.1511,-3.1511,-3.1511,-3.1511,-3.1511,-3.1511,-3.1511,-3.1511,-3.1511,-3.1212,-3.0883,-3.0537,-3.0238,-2.9922,-2.9565,-2.8976,-2.8728,-2.8982,-2.8989,-2.9111,-2.9384,-2.9717,-2.9908,-2.9908,-3.0497,-3.1165,-3.1888,-3.2154,-3.3089,-0.971,-1.1321,-1.2954,-1.4616,0.0,0.0,0.0,0.0,0.0,0.0,0.0,0.0,0.0,0.0,0.0,0.0,0.0,0.0,0.0,0.0,0.0,0.0,0.0,0.0,0.0,0.0,0.0,0.0,0.0,0.0,-3.2815,-3.3469,-3.4137,-3.4807,-3.483,-3.5075,-3.56,-3.56,-3.5091,-3.4078,-3.4078,-3.435,-3.483,-3.483,-3.5098,-3.56,-3.56,-3.56,-3.56,-3.56,-3.56,-3.5538,-3.5012,-3.4736,-3.4528,-3.4037,-3.3417,-3.2815,-3.2641,-3.2216,-3.171,-3.1553,-3.1511,-3.1524,-3.1726,-3.1768,-3.1768,-3.1768,-3.1768,-3.171,-3.1524,-3.1511,-3.1511,-3.1511,-3.1511,-3.1511,-3.1511,-3.1511,-3.1511,-3.1511,-3.1511,-3.1511,-3.1511,-3.1511,-3.1511,-3.1511,-3.1511,-3.1511,-3.1511,-3.1511,-3.1511,-3.1511,-3.1511,-3.1286,-3.0791,-3.09,-3.0769,-3.0251,-2.9754,-2.961,-2.9842,-2.9687,-2.9673,-2.9805,-3.0288,-3.0601,-3.0767,-3.1227,-3.1938,-3.2818,-3.2818,-3.3512,-1.0224,-1.1286,-1.2478,-1.5079,0.0,0.0,0.0,0.0,0.0,0.0,0.0,0.0,0.0,0.0,0.0,0.0,0.0,0.0,0.0,0.0,0.0,0.0,0.0,0.0,0.0,0.0,0.0,0.0,0.0,0.0,-3.3479,-3.4161,-3.4847,-3.5515,-3.5515,-3.5538,-3.56,-3.56,-3.5538,-3.5447,-3.5447,-3.547,-3.5515,-3.5515,-3.5538,-3.56,-3.56,-3.56,-3.56,-3.56,-3.56,-3.56,-3.5538,-3.5144,-3.4576,-3.4552,-3.4112,-3.3443,-3.2815,-3.2574,-3.241,-3.171,-3.1511,-3.164,-3.2299,-3.252,-3.252,-3.252,-3.252,-3.2355,-3.1697,-3.1511,-3.1511,-3.1511,-3.1511,-3.1511,-3.1511,-3.1511,-3.1511,-3.1511,-3.1511,-3.1511,-3.1511,-3.1511,-3.1511,-3.1511,-3.1511,-3.1511,-3.1511,-3.1511,-3.1511,-3.1511,-3.1511,-3.1481,-3.1436,-3.2071,-3.2413,-3.2288,-3.0541,-3.003,-3.1216,-3.0596,-3.0497,-3.1055,-3.1112,-3.1472,-3.2148,-3.2205,-3.2953,-3.4336,-3.4336,-3.4776,-0.9815,-1.1311,-1.2969,-1.5229,0.0,0.0,0.0,0.0,0.0,0.0,0.0,0.0,0.0,0.0,0.0,0.0,0.0,0.0,0.0,0.0,0.0,0.0,0.0,0.0,0.0,0.0,0.0,0.0,0.0,0.0,-3.4211,-3.4871,-3.5339,-3.56,-3.56,-3.56,-3.56,-3.56,-3.56,-3.56,-3.56,-3.56,-3.56,-3.56,-3.56,-3.56,-3.56,-3.56,-3.56,-3.56,-3.56,-3.56,-3.56,-3.5447,-3.523,-3.523,-3.48,-3.4186,-3.3937,-3.3556,-3.3198,-3.2906,-3.2826,-3.2864,-3.313,-3.3209,-3.3209,-3.3209,-3.2922,-3.2437,-3.1697,-3.1511,-3.1511,-3.1511,-3.1511,-3.1511,-3.1511,-3.1511,-3.1511,-3.1511,-3.1511,-3.1511,-3.1511,-3.1511,-3.1511,-3.1511,-3.1511,-3.1511,-3.1511,-3.1511,-3.1511,-3.1511,-3.191,-3.216,-3.216,-3.2815,-3.3409,-3.3787,-3.2652,-3.2164,-3.2629,-3.1934,-3.1866,-3.256,-3.1664,-3.1546,-3.2293,-3.2293,-3.2598,-3.3156,-3.4066,-3.4404,-0.9659,-1.1321,-1.3235,0.0,0.0,0.0,0.0,0.0,0.0,0.0,0.0,0.0,0.0,0.0,0.0,0.0,0.0,0.0,0.0,0.0,0.0,0.0,0.0,0.0,0.0,0.0,0.0,0.0,0.0,0.0,0.0,-3.523,-3.56,-3.56,-3.56,-3.56,-3.56,-3.56,-3.56,-3.56,-3.56,-3.56,-3.56,-3.56,-3.56,-3.56,-3.56,-3.56,-3.56,-3.56,-3.56,-3.56,-3.56,-3.56,-3.56,-3.56,-3.5316,-3.4894,-3.4688,-3.4309,-3.3887,-3.3659,-3.3582,-3.3633,-3.3862,-3.3761,-3.3633,-3.3862,-3.3287,-3.2492,-3.1979,-3.1653,-3.1553,-3.1796,-3.1668,-3.1511,-3.1511,-3.1511,-3.1511,-3.1511,-3.1511,-3.1511,-3.1511,-3.1511,-3.1511,-3.1511,-3.1511,-3.1511,-3.1511,-3.1511,-3.1582,-3.1824,-3.2299,-3.2695,-3.2895,-3.3531,-3.4112,-3.4576,-3.4336,-3.4029,-3.3757,-3.2835,-3.2547,-3.3034,-3.1833,-3.1546,-3.2293,-3.2293,-3.2429,-3.2662,-3.3677,-3.388,-0.9905,-1.1336,0.0,0.0,0.0,0.0,0.0,0.0,0.0,0.0,0.0,0.0,0.0,0.0,0.0,0.0,0.0,0.0,0.0,0.0,0.0,0.0,0.0,0.0,0.0,0.0,0.0,0.0,0.0,0.0,0.0,-3.5214,-3.5583,-3.5583,-3.5583,-3.5583,-3.5583,-3.5583,-3.5583,-3.5583,-3.56,-3.56,-3.56,-3.56,-3.56,-3.56,-3.56,-3.56,-3.56,-3.56,-3.56,-3.56,-3.56,-3.56,-3.56,-3.56,-3.56,-3.5515,-3.483,-3.46,-3.4503,-3.3836,-3.3608,-3.3735,-3.4406,-3.4161,-3.3761,-3.4431,-3.3633,-3.2614,-3.2614,-3.2064,-3.1682,-3.241,-3.2035,-3.1511,-3.1511,-3.1511,-3.1511,-3.1511,-3.1511,-3.1511,-3.1511,-3.1511,-3.1511,-3.1511,-3.1511,-3.1511,-3.1511,-3.1511,-3.1796,-3.2532,-3.2629,-3.2895,-3.3556,-3.4235,-3.46,-3.46,-3.523,-3.5261,-3.4539,-3.3106,-3.2327,-3.2327,-3.1579,-3.1582,-3.231,-3.2293,-3.2662,-3.3389,-3.3406,-3.3406,-1.0538,0.0,0.0,0.0,0.0,0.0,0.0,0.0,0.0,0.0,0.0,0.0,0.0,0.0,0.0,0.0,0.0,0.0,0.0,0.0,0.0,0.0,0.0,0.0,0.0,0.0,0.0,0.0,0.0,0.0,0.0,-3.3941,-3.4044,-3.4044,-3.4044,-3.4044,-3.4044,-3.4573,-3.4827,-3.4827,-3.5346,-3.56,-3.56,-3.56,-3.56,-3.56,-3.56,-3.56,-3.56,-3.56,-3.56,-3.56,-3.56,-3.56,-3.56,-3.56,-3.56,-3.5577,-3.5362,-3.5316,-3.5276,-3.5052,-3.5005,-3.5028,-3.523,-3.5161,-3.5045,-3.5253,-3.435,-3.3417,-3.3887,-3.2756,-3.1553,-3.1768,-3.1668,-3.1511,-3.1511,-3.1511,-3.1511,-3.1511,-3.1511,-3.1511,-3.1511,-3.1511,-3.1511,-3.1511,-3.1511,-3.1697,-3.2203,-3.2272,-3.2532,-3.3235,-3.3735,-3.4087,-3.4284,-3.4918,-3.5316,-3.5316,-3.5492,-3.5498,-3.5278,-3.4353,-3.4083,-3.4624,-3.2865,-3.2344,-3.3068,-3.2564,-3.2158,-3.1884,-3.2916,-3.2848,-1.2168,0.0,0.0,0.0,0.0,0.0,0.0,0.0,0.0,0.0,0.0,0.0,0.0,0.0,0.0,0.0,0.0,0.0,0.0,0.0,0.0,0.0,0.0,0.0,0.0,0.0,0.0,0.0,0.0,0.0,0.0,-3.3406,-3.3406,-3.3406,-3.3406,-3.3406,-3.3406,-3.3846,-3.4066,-3.4066,-3.4501,-3.4873,-3.5182,-3.5464,-3.56,-3.56,-3.56,-3.56,-3.56,-3.56,-3.56,-3.56,-3.56,-3.56,-3.56,-3.56,-3.56,-3.56,-3.56,-3.56,-3.56,-3.56,-3.56,-3.56,-3.56,-3.5407,-3.5253,-3.5515,-3.4633,-3.3761,-3.4431,-3.3463,-3.2284,-3.2007,-3.171,-3.1511,-3.1511,-3.1511,-3.1511,-3.1511,-3.1511,-3.1511,-3.1511,-3.1739,-3.1923,-3.1923,-3.1992,-3.2076,-3.2132,-3.2652,-3.3145,-3.3556,-3.3962,-3.4406,-3.4941,-3.5362,-3.56,-3.56,-3.56,-3.56,-3.56,-3.4895,-3.4709,-3.5143,-3.3292,-3.253,-3.2949,-3.2205,-3.1613,-3.1207,-3.2104,-3.2053,0.0,0.0,0.0,0.0,0.0,0.0,0.0,0.0,0.0,0.0,0.0,0.0,0.0,0.0,0.0,0.0,0.0,0.0,0.0,0.0,0.0,0.0,0.0,0.0,0.0,0.0,0.0,0.0,0.0,0.0,0.0,-3.3203,-3.3203,-3.3203,-3.3203,-3.3203,-3.3203,-3.3271,-3.3305,-3.3305,-3.3372,-3.3744,-3.4421,-3.5143,-3.5532,-3.56,-3.56,-3.56,-3.56,-3.56,-3.56,-3.56,-3.56,-3.56,-3.56,-3.56,-3.56,-3.56,-3.56,-3.56,-3.56,-3.56,-3.56,-3.56,-3.56,-3.5184,-3.4807,-3.5447,-3.4681,-3.3836,-3.4431,-3.4112,-3.3443,-3.2841,-3.2188,-3.1682,-3.1682,-3.1682,-3.1682,-3.1682,-3.1682,-3.1682,-3.1682,-3.2244,-3.2668,-3.2641,-3.2826,-3.2664,-3.1781,-3.2826,-3.3633,-3.3761,-3.3786,-3.4276,-3.5492,-3.56,-3.56,-3.56,-3.56,-3.56,-3.56,-3.4962,-3.459,-3.459,-3.3156,-3.2395,-3.2395,-3.1579,-3.119,-3.119,-3.119,-3.119,0.0,0.0,0.0,0.0,0.0,0.0,0.0,0.0,0.0,0.0,0.0,0.0,0.0,0.0,0.0,0.0,0.0,0.0,0.0,0.0,0.0,0.0,0.0,0.0,0.0,0.0,0.0,0.0,0.0,0.0,-3.1664,-3.1664,-3.1664,-3.1664,-3.1664,-3.1664,-3.1664,-3.2259,-3.2547,0.0,-3.3119,-3.3491,-3.366,-3.4404,-3.5064,-3.56,-3.56,-3.56,-3.56,-3.56,-3.56,-3.56,-3.56,-3.56,-3.56,-3.56,-3.56,-3.56,-3.56,-3.56,-3.56,-3.56,-3.56,-3.56,-3.56,-3.5492,-3.5407,-3.5577,-3.5005,-3.4431,-3.4552,-3.4112,-3.3556,-3.3417,-3.3261,-3.3156,-3.3156,-3.3156,-3.3156,-3.3156,-3.3156,-3.3156,-3.3156,-3.3287,-3.3261,-3.2906,-3.3182,-3.3391,-3.3182,-3.3401,-3.3987,-3.5068,-3.5161,-3.5293,-3.5577,-3.56,-3.56,-3.56,-3.56,-3.56,-3.56,-3.5447,-3.5346,-3.5346,-3.3914,-3.3169,-3.3169,-3.1833,-3.119,-3.119,-3.119,-3.119,0.0,0.0,0.0,0.0,0.0,0.0,0.0,0.0,0.0,0.0,0.0,0.0,0.0,0.0,0.0,0.0,0.0,0.0,0.0,0.0,0.0,0.0,0.0,0.0,0.0,0.0,0.0,0.0,0.0,-3.119,-3.119,-3.119,-3.119,-3.119,-3.119,-3.119,-3.119,-3.1562,-3.1769,-3.1785,-3.2154,-3.2527,-3.2899,-3.3643,-3.4387,-3.5081,-3.5081,-3.5261,-3.56,-3.56,-3.56,-3.56,-3.56,-3.56,-3.56,-3.56,-3.56,-3.56,-3.56,-3.56,-3.56,-3.56,-3.56,-3.56,-3.56,-3.56,-3.56,-3.56,-3.5362,-3.5075,-3.5075,-3.4823,-3.456,-3.456,-3.4078,-3.3582,-3.3582,-3.3582,-3.3582,-3.3582,-3.3582,-3.3582,-3.3582,-3.3786,-3.3987,-3.4178,-3.4399,-3.456,-3.456,-3.456,-3.484,-3.5532,-3.56,-3.56,-3.56,-3.56,-3.56,-3.56,-3.56,-3.56,-3.56,-3.56,-3.56,-3.56,-3.4167,-3.3406,-3.3406,-3.1918,-3.119,-3.119,-3.119,-3.119,0.0,0.0,0.0,0.0,0.0,0.0,0.0,0.0,0.0,0.0,0.0,0.0,0.0,0.0,0.0,0.0,0.0,0.0,0.0,0.0,0.0,0.0,0.0,0.0,0.0,0.0,0.0,0.0,0.0,-3.119,-3.119,-3.119,-3.119,-3.119,-3.119,-3.119,-3.119,-3.119,-3.119,-3.119,-3.119,-3.1532,-3.2141,-3.2747,-3.3491,-3.432,-3.4438,-3.4844,-3.5414,-3.5549,-3.56,-3.56,-3.56,-3.56,-3.56,-3.56,-3.56,-3.56,-3.56,-3.56,-3.56,-3.56,-3.56,-3.56,-3.56,-3.56,-3.56,-3.56,-3.56,-3.56,-3.56,-3.56,-3.56,-3.56,-3.4752,-3.3953,-3.3953,-3.3953,-3.3953,-3.3953,-3.3953,-3.3953,-3.3953,-3.4276,-3.4752,-3.5492,-3.56,-3.56,-3.56,-3.56,-3.56,-3.56,-3.56,-3.56,-3.56,-3.56,-3.56,-3.56,-3.56,-3.56,-3.56,-3.56,-3.5532,-3.5397,-3.41,-3.3406,-3.3406,-3.1918,-3.119,-3.119,-3.119,-3.119,0.0,0.0,0.0,0.0,0.0,0.0,0.0,0.0,0.0,0.0,0.0,0.0,0.0,0.0,0.0,0.0,0.0,0.0,0.0,0.0,0.0,0.0,0.0,0.0,0.0,0.0,0.0,0.0,-3.119,-3.119,-3.119,-3.119,-3.119,-3.119,-3.119,-3.119,-3.119,-3.119,-3.119,-3.119,-3.119,-3.1241,-3.1343,-3.1444,-3.2239,-3.3592,-3.4218,-3.4556,-3.4692,-3.5329,-3.56,-3.56,-3.56,-3.56,-3.56,-3.56,-3.56,-3.56,-3.56,-3.56,-3.56,-3.56,-3.56,-3.56,-3.56,-3.56,-3.56,-3.56,-3.56,-3.56,-3.56,-3.56,-3.56,-3.56,-3.547,-3.5339,-3.5339,-3.5339,-3.5339,-3.5339,-3.5339,-3.5339,-3.5339,-3.5385,-3.547,-3.5577,-3.56,-3.56,-3.56,-3.56,-3.56,-3.56,-3.56,-3.56,-3.56,-3.56,-3.56,-3.56,-3.56,-3.56,-3.56,-3.56,-3.5295,-3.4658,-3.3829,-3.3406,-3.3406,-3.1918,-3.119,-3.119,-3.119,-3.119,0.0,0.0,0.0,0.0,0.0,0.0,0.0,0.0,0.0,0.0,0.0,0.0,0.0,0.0,0.0,0.0,0.0,0.0,0.0,0.0,0.0,0.0,0.0,0.0,0.0,0.0,0.0,0.0,-3.119,-3.119,-3.119,-3.119,-3.119,-3.119,-3.119,-3.119,-3.119,-3.119,-3.119,-3.119,-3.119,-3.119,-3.119,-3.119,-3.1765,-3.2797,-3.3139,-3.3491,-3.3947,-3.4675,-3.4979,-3.503,-3.543,-3.56,-3.56,-3.56,-3.56,-3.56,-3.56,-3.56,-3.56,-3.56,-3.56,-3.56,-3.56,-3.56,-3.56,-3.56,-3.56,-3.56,-3.56,-3.56,-3.56,-3.56,-3.56,-3.56,-3.56,-3.56,-3.56,-3.56,-3.56,-3.56,-3.56,-3.56,-3.56,-3.56,-3.56,-3.56,-3.56,-3.56,-3.56,-3.56,-3.56,-3.56,-3.56,-3.56,-3.56,-3.56,-3.56,-3.56,-3.56,-3.56,-3.5447,-3.5131,-3.3998,-3.3203,-3.278,-3.1715,-3.119,-3.119,-3.119,-3.119,0.0,0.0,0.0,0.0,0.0,0.0,0.0,0.0,0.0,0.0,0.0,0.0,0.0,0.0,0.0,0.0,0.0,0.0,0.0,0.0,0.0,0.0,0.0,0.0,0.0,0.0,0.0,0.0,-3.119,-3.119,-3.119,-3.119,-3.119,-3.119,-3.119,-3.119,-3.119,-3.119,-3.119,-3.119,-3.119,-3.119,-3.119,-3.119,-3.1515,-3.2039,-3.2226,-3.2615,-3.3169,-3.3914,-3.432,-3.4539,-3.5115,-3.543,-3.56,-3.56,-3.56,-3.56,-3.56,-3.56,-3.56,-3.56,-3.56,-3.56,-3.56,-3.56,-3.56,-3.56,-3.56,-3.56,-3.56,-3.56,-3.56,-3.56,-3.56,-3.56,-3.56,-3.56,-3.56,-3.56,-3.56,-3.56,-3.56,-3.56,-3.56,-3.56,-3.56,-3.56,-3.56,-3.56,-3.56,-3.56,-3.56,-3.56,-3.56,-3.56,-3.56,-3.56,-3.56,-3.56,-3.56,-3.56,-3.5498,-3.5312,-3.4066,-3.3136,-3.2581,-3.1667,-3.119,-3.119,-3.119,-3.119,0.0,0.0,0.0,0.0,0.0,0.0,0.0,0.0,0.0,0.0,0.0,0.0,0.0,0.0,0.0,0.0,0.0,0.0,0.0,0.0,0.0,0.0,0.0,0.0,0.0,0.0,0.0,0.0,-3.119,-3.119,-3.119,-3.119,-3.119,-3.119,-3.119,-3.119,-3.119,-3.119,-3.119,-3.119,-3.119,-3.119,-3.119,-3.119,-3.1207,-3.1292,-3.2005,-3.2327,-3.2412,-3.3152,-3.388,-3.4489,-3.4539,-3.4979,-3.56,-3.56,-3.56,-3.56,-3.56,-3.56,-3.56,-3.56,-3.56,-3.56,-3.56,-3.56,-3.56,-3.56,-3.56,-3.56,-3.56,-3.56,-3.56,-3.56,-3.56,-3.56,-3.56,-3.56,-3.56,-3.56,-3.56,-3.56,-3.56,-3.56,-3.56,-3.56,-3.56,-3.56,-3.56,-3.56,-3.56,-3.56,-3.56,-3.56,-3.56,-3.56,-3.56,-3.56,-3.56,-3.56,-3.56,-3.56,-3.5261,-3.4573,-3.3795,-3.3389,-3.3339,-3.1901,-3.119,-3.119,-3.119,-3.119,0.0,0.0,0.0,0.0,0.0,0.0,0.0,0.0,0.0,0.0,0.0,0.0,0.0,0.0,0.0,0.0,0.0,0.0,0.0,0.0,0.0,0.0,0.0,0.0,0.0,0.0,0.0,0.0,0.0,-2.9788,-2.9788,-2.9788,-2.9788,-2.9788,-3.0243,-3.0717,-3.119,-3.119,-3.119,-3.119,-3.119,-3.119,-3.119,-3.119,-3.119,-3.1207,-3.1481,-3.1599,-3.1667,-3.2395,-3.2852,-3.3139,-3.3609,-3.3964,-3.418,-3.418,-3.4506,-3.4895,-3.4895,-3.5194,-3.56,-3.56,-3.56,-3.56,-3.56,-3.56,-3.56,-3.56,-3.56,-3.56,-3.56,-3.56,-3.56,-3.56,-3.56,-3.56,-3.56,-3.56,-3.56,-3.56,-3.56,-3.56,-3.56,-3.56,-3.56,-3.56,-3.56,-3.56,-3.56,-3.56,-3.56,-3.56,-3.56,-3.56,-3.56,-3.56,-3.56,-3.56,-3.56,-3.56,-3.56,-3.56,-3.5245,-3.4506,-3.3778,-3.3169,-3.2679,-3.1681,-3.119,-3.119,-3.119,-3.119,0.0,0.0,0.0,0.0,0.0,0.0,0.0,0.0,0.0,0.0,0.0,0.0,0.0,0.0,0.0,0.0,0.0,0.0,0.0,0.0,0.0,0.0,0.0,0.0,0.0,0.0,0.0,0.0,0.0,0.0,-2.8993,-2.8993,-2.8993,-2.8993,-2.9719,-3.0345,-3.0835,-3.1072,-3.119,-3.119,-3.119,-3.119,-3.119,-3.119,-3.119,-3.119,-3.119,-3.119,-3.1241,-3.1735,-3.209,-3.2344,-3.2831,-3.3186,-3.3406,-3.3406,-3.3711,-3.4134,-3.4134,-3.4455,-3.4856,-3.4856,-3.4856,-3.4856,-3.4856,-3.4974,-3.5131,-3.5131,-3.5368,-3.5515,-3.5216,-3.5182,-3.5301,-3.5532,-3.56,-3.56,-3.56,-3.56,-3.56,-3.56,-3.56,-3.56,-3.56,-3.56,-3.56,-3.56,-3.56,-3.56,-3.56,-3.56,-3.56,-3.56,-3.56,-3.56,-3.56,-3.56,-3.56,-3.56,-3.56,-3.56,-3.56,-3.56,-3.5245,-3.4506,-3.3778,-3.3034,-3.2293,-3.1546,-3.119,-3.119,-3.119,-3.119,0.0,0.0,0.0,0.0,0.0,0.0,0.0,0.0,0.0,0.0,0.0,0.0,0.0,0.0,0.0,0.0,0.0,0.0,0.0,0.0,0.0,0.0,0.0,0.0,0.0,0.0,0.0,0.0,-2.8925,-2.8925,-2.8925,-2.8925,-2.8942,-2.8959,-2.9651,-3.0038,-3.0074,-3.0801,-3.1157,-3.1157,-3.119,-3.119,-3.119,-3.119,-3.119,-3.119,-3.119,-3.119,-3.119,-3.119,-3.1633,-3.2276,-3.2276,-3.2696,-3.3339,-3.3339,-3.3355,-3.3372,-3.3372,-3.3389,-3.3406,-3.3406,-3.3406,-3.3406,-3.3406,-3.3744,-3.4172,-3.424,-3.4861,-3.5312,-3.4409,-3.4324,-3.4641,-3.538,-3.5549,-3.5566,-3.5583,-3.56,-3.56,-3.56,-3.56,-3.56,-3.56,-3.56,-3.56,-3.56,-3.56,-3.56,-3.56,-3.56,-3.56,-3.56,-3.56,-3.56,-3.56,-3.56,-3.56,-3.56,-3.56,-3.56,-3.56,-3.5583,-3.5211,-3.4472,-3.3744,-3.3,-3.2276,-3.1565,-3.119,-3.119,-3.119,-3.119,-0.9985,0.0,0.0,0.0,0.0,0.0,0.0,0.0,0.0,0.0,0.0,0.0,0.0,0.0,0.0,0.0,0.0,0.0,0.0,0.0,0.0,0.0,0.0,0.0,0.0,0.0,0.0,0.0,-2.7351,-2.7351,-2.7351,-2.7351,-2.7571,-2.8111,-2.8331,-2.8721,-2.9314,-3.004,-3.0412,-3.0412,-3.0954,-3.119,-3.119,-3.119,-3.119,-3.119,-3.119,-3.119,-3.119,-3.119,-3.1309,-3.1495,-3.1495,-3.163,-3.1799,-3.1799,-3.2138,-3.2615,-3.2615,-3.2949,-3.3406,-3.3406,-3.3406,-3.3406,-3.3406,-3.3271,-3.3406,-3.4827,-3.4619,-3.3858,-3.3271,-3.3406,-3.3846,-3.4438,-3.4573,-3.4776,-3.5447,-3.56,-3.56,-3.56,-3.56,-3.56,-3.56,-3.56,-3.56,-3.56,-3.56,-3.56,-3.56,-3.56,-3.56,-3.56,-3.56,-3.56,-3.56,-3.56,-3.56,-3.56,-3.56,-3.56,-3.56,-3.5098,-3.4455,-3.3728,-3.2966,-3.2242,-3.1495,-3.1292,-3.119,-3.119,-3.119,-3.119,0.0,0.0,0.0,0.0,0.0,0.0,0.0,0.0,0.0,0.0,0.0,0.0,0.0,0.0,0.0,0.0,0.0,0.0,0.0,0.0,0.0,0.0,0.0,0.0,0.0,-2.6691,-2.6691,-2.6691,-2.6691,-2.6691,-2.6691,-2.6691,-2.6894,-2.7317,-2.7638,-2.8027,-2.8484,-2.9262,-2.9634,-2.9651,-3.0074,-3.0429,-3.0734,-3.0734,-3.0903,-3.119,-3.119,-3.119,-3.119,-3.119,-3.119,-3.119,-3.119,-3.119,-3.119,-3.119,-3.1461,-3.1853,-3.1853,-3.2121,-3.2476,-3.2476,-3.2476,-3.2476,-3.2476,-3.229,-3.2307,-3.3457,-3.3325,-3.288,-3.3034,-3.3291,-3.3668,-3.437,-3.4653,-3.4928,-3.5481,-3.56,-3.56,-3.56,-3.56,-3.56,-3.56,-3.56,-3.56,-3.56,-3.56,-3.56,-3.56,-3.56,-3.56,-3.56,-3.56,-3.56,-3.56,-3.56,-3.56,-3.56,-3.56,-3.5447,-3.5143,-3.4726,-3.3998,-3.2949,-3.253,-3.1938,-3.119,-3.119,-3.119,-3.119,-3.119,-3.119,0.0,-1.3562,0.0,0.0,0.0,0.0,-1.8058,-1.7592,0.0,0.0,0.0,0.0,0.0,0.0,0.0,0.0,0.0,0.0,0.0,0.0,0.0,0.0,0.0,0.0,-2.6454,-2.6454,-2.6454,-2.6454,-2.6522,-2.6607,-2.6691,-2.6691,-2.6691,-2.6691,-2.7351,-2.7672,-2.7672,-2.8467,-2.8874,-2.8874,-2.8959,-2.933,-2.9989,-2.9989,-3.0378,-3.1072,-3.1072,-3.1123,-3.119,-3.119,-3.119,-3.119,-3.119,-3.119,-3.119,-3.119,-3.119,-3.119,-3.119,-3.119,-3.119,-3.119,-3.119,-3.119,-3.119,-3.119,-3.121,-3.1271,-3.1693,-3.2319,-3.3244,-3.3452,-3.3641,-3.4399,-3.4846,-3.5194,-3.5532,-3.56,-3.56,-3.56,-3.56,-3.56,-3.56,-3.56,-3.56,-3.56,-3.56,-3.56,-3.56,-3.56,-3.56,-3.56,-3.56,-3.56,-3.56,-3.56,-3.5566,-3.5481,-3.5481,-3.5143,-3.4404,-3.4286,-3.3668,-3.2391,-3.2309,-3.1933,-3.119,-3.119,-3.119,-3.119,-3.119,-3.119,-1.6214,-1.6855,-1.7743,0.0,0.0,0.0,0.0,-1.506,0.0,0.0,0.0,0.0,0.0,0.0,0.0,0.0,0.0,0.0,0.0,0.0,0.0,0.0,0.0,0.0,-2.4931,-2.4931,-2.4931,-2.4931,-2.5473,-2.6065,-2.6657,-2.6691,-2.6691,-2.6691,-2.6843,-2.6911,-2.6911,-2.7655,-2.8027,-2.8043,-2.8687,-2.9077,-2.9213,-2.9213,-2.9617,-3.0311,-3.0311,-3.0649,-3.119,-3.119,-3.119,-3.119,-3.119,-3.119,-3.119,-3.119,-3.119,-3.119,-3.119,-3.119,-3.119,-3.119,-3.119,-3.119,-3.119,-3.119,-3.1291,-3.1786,-3.2003,-3.2197,-3.2614,-3.2546,-3.2315,-3.2015,-3.2001,-3.2713,-3.5092,-3.56,-3.56,-3.56,-3.56,-3.56,-3.56,-3.56,-3.56,-3.56,-3.56,-3.56,-3.56,-3.56,-3.56,-3.56,-3.56,-3.56,-3.56,-3.56,-3.5346,-3.4742,-3.4709,-3.4387,-3.3643,-3.3055,-3.2784,-3.2869,-3.2378,-3.183,-3.119,-3.119,-3.119,-3.119,-3.119,-3.119,0.0,-1.8606,-1.927,-1.8538,0.0,0.0,0.0,0.0,0.0,0.0,0.0,0.0,0.0,0.0,0.0,0.0,0.0,0.0,0.0,0.0,0.0,0.0,0.0,0.0,-2.4491,-2.4491,-2.4491,-2.4491,-2.4846,-2.5372,-2.6116,-2.615,-2.6319,-2.6691,-2.6691,-2.6691,-2.6691,-2.7063,-2.7249,-2.7266,-2.7655,-2.8062,-2.8399,-2.8399,-2.8822,-2.9567,-2.9939,-3.0311,-3.0683,-3.1055,-3.119,-3.119,-3.119,-3.119,-3.119,-3.119,-3.119,-3.119,-3.119,-3.119,-3.119,-3.119,-3.119,-3.119,-3.119,-3.119,-3.131,-3.1823,-3.2127,-3.2384,-3.2666,-3.284,-3.2872,-3.2565,-3.1824,-3.1613,-3.3085,-3.3406,-3.3406,-3.3406,-3.3406,-3.3858,-3.5346,-3.56,-3.56,-3.56,-3.56,-3.56,-3.56,-3.56,-3.56,-3.56,-3.56,-3.56,-3.56,-3.5313,-3.5045,-3.4778,-3.4645,-3.4261,-3.3536,-3.3138,-3.2814,-3.2558,-3.1958,-3.1504,-3.119,-3.2074,-3.2264,-3.186,-3.2281,-3.235,0.0,0.0,0.0,0.0,0.0,-1.8454,0.0,0.0,0.0,-1.8076,0.0,0.0,0.0,0.0,0.0,0.0,0.0,0.0,0.0,0.0,0.0,0.0,0.0,0.0,0.0,-2.3712,-2.3814,-2.4254,-2.4034,-2.4321,-2.5338,-2.5524,-2.5879,-2.6471,-2.6623,-2.6691,-2.6691,-2.6691,-2.6691,-2.6691,-2.6691,-2.7012,-2.7587,-2.7587,-2.8027,-2.8789,-2.9414,-2.9753,-2.9939,-3.0531,-3.0852,-3.1004,-3.114,-3.119,-3.119,-3.119,-3.119,-3.119,-3.119,-3.119,-3.119,-3.119,-3.119,-3.119,-3.119,-3.1252,-3.1391,-3.1807,-3.2264,-3.2713,-3.3063,-3.348,-3.3807,-3.3807,-3.2466,-3.119,-3.119,-3.119,-3.119,-3.119,-3.119,-3.1952,-3.4332,-3.4737,-3.494,-3.5515,-3.56,-3.56,-3.56,-3.56,-3.56,-3.56,-3.56,-3.56,-3.56,-3.4938,-3.4624,-3.4876,-3.4728,-3.427,-3.3422,-3.3455,-3.3001,-3.1949,-3.1769,-3.1695,-3.1695,-3.3118,-3.3433,-3.2761,-3.3375,-3.3422,0.0,0.0,0.0,0.0,-2.0416,0.0,0.0,0.0,-1.7343,-1.6204,0.0,0.0,0.0,0.0,0.0,0.0,0.0,0.0,0.0,0.0,0.0,0.0,0.0,0.0,0.0,-2.094,-2.135,-2.3359,-2.2307,-2.246,-2.4525,-2.5236,-2.5642,-2.5711,-2.6353,-2.6691,-2.6691,-2.6691,-2.6691,-2.6691,-2.6691,-2.6742,-2.6826,-2.6826,-2.7232,-2.7942,-2.8027,-2.8467,-2.9128,-2.9213,-2.9653,-3.0294,-3.0937,-3.119,-3.119,-3.119,-3.119,-3.119,-3.119,-3.119,-3.119,-3.119,-3.119,-3.119,-3.119,-3.1449,-3.1825,-3.2299,-3.2761,-3.3214,-3.3606,-3.3748,-3.3807,-3.3807,-3.2466,-3.119,-3.119,-3.119,-3.119,-3.119,-3.119,-3.1309,-3.163,-3.1698,-3.2594,-3.5211,-3.56,-3.56,-3.56,-3.56,-3.56,-3.56,-3.56,-3.56,-3.56,-3.4551,-3.4062,-3.4435,-3.4453,-3.3888,-3.2678,-3.2904,-3.2506,-3.1329,-3.2759,-3.3504,-3.3504,-3.3689,-3.3748,-3.3634,-3.3258,-3.3047,0.0,0.0,0.0,0.0,0.0,0.0,0.0,0.0,-1.776,0.0,0.0,0.0,0.0,0.0,0.0,0.0,0.0,0.0,0.0,0.0,0.0,0.0,0.0,0.0,0.0,0.0,0.0,0.0,-2.1289,-2.1576,-2.3364,-2.419,-2.5015,-2.5874,-2.601,-2.6268,-2.6691,-2.6691,-2.6691,-2.6691,-2.6691,-2.6691,-2.6691,-2.6691,-2.686,-2.7199,-2.7604,-2.7993,-2.8349,-2.8807,-2.9179,-2.9482,-2.9805,-3.0448,-3.119,-3.119,-3.119,-3.119,-3.119,-3.119,-3.119,-3.119,-3.119,-3.1232,-3.147,-3.166,-3.1951,-3.2697,-3.3045,-3.3288,-3.3694,-3.3807,-3.3807,-3.3807,-3.3237,-3.2711,-3.2711,-3.1914,-3.119,-3.119,-3.119,-3.119,-3.119,-3.119,-3.1613,-3.2865,-3.392,-3.4551,-3.4551,-3.4551,-3.4551,-3.4551,-3.4551,-3.4551,-3.4551,-3.409,-3.3877,-3.4055,-3.4043,-3.3814,-3.3273,-3.339,-3.3225,-3.2727,-3.3433,-3.3807,-3.3807,-3.3807,-3.3807,-3.3788,-3.3564,-3.3465,-2.2324,0.0,0.0,0.0,0.0,0.0,0.0,0.0,0.0,0.0,0.0,0.0,0.0,0.0,0.0,0.0,0.0,0.0,0.0,0.0,0.0,0.0,0.0,0.0,0.0,0.0,0.0,0.0,0.0,-2.0315,-2.2279,-2.307,-2.4081,-2.5446,-2.5561,-2.5862,-2.6387,-2.659,-2.6758,-2.6857,-2.6857,-2.6923,-2.7019,-2.7019,-2.7019,-2.7053,-2.7585,-2.7826,-2.7877,-2.8459,-2.8819,-2.899,-2.8885,-2.9734,-3.1025,-3.0925,-3.1021,-3.119,-3.119,-3.119,-3.119,-3.119,-3.119,-3.1271,-3.1678,-3.188,-3.2161,-3.2965,-3.3273,-3.3419,-3.3721,-3.3807,-3.3807,-3.3807,-3.3807,-3.3807,-3.3807,-3.2433,-3.119,-3.119,-3.119,-3.1349,-3.1824,-3.1524,-3.119,-3.119,-3.2679,-3.3807,-3.3807,-3.3807,-3.3807,-3.3807,-3.3807,-3.3807,-3.3807,-3.3807,-3.3807,-3.3807,-3.3807,-3.3807,-3.3807,-3.3807,-3.3807,-3.3807,-3.3807,-3.3807,-3.3807,-3.3807,-3.3807,-3.3807,-3.3807,-3.3807,0.0,0.0,0.0,-2.042,0.0,0.0,0.0,0.0,-1.8872,0.0,0.0,0.0,0.0,0.0,0.0,-1.6902,0.0,0.0,0.0,0.0,0.0,0.0,0.0,0.0,0.0,0.0,0.0,0.0,0.0,0.0,-2.1448,-2.2091,-2.2849,-2.3936,-2.5033,-2.5609,-2.5642,-2.6336,-2.689,-2.7288,-2.7288,-2.7485,-2.7869,-2.7869,-2.7869,-2.7869,-2.7886,-2.7904,-2.7904,-2.7922,-2.8367,-2.8961,-2.856,-2.9316,-3.0575,-3.0241,-3.0598,-3.119,-3.119,-3.119,-3.119,-3.119,-3.119,-3.1271,-3.1678,-3.2127,-3.2583,-3.306,-3.348,-3.3775,-3.3807,-3.3807,-3.3807,-3.3807,-3.3807,-3.3807,-3.3807,-3.2433,-3.119,-3.119,-3.119,-3.1732,-3.3433,-3.2315,-3.119,-3.119,-3.2679,-3.3807,-3.3807,-3.3807,-3.3807,-3.3807,-3.3807,-3.3807,-3.3807,-3.3807,-3.3807,-3.3807,-3.3807,-3.3807,-3.3807,-3.3807,-3.3807,-3.3807,-3.3807,-3.3807,-3.3807,-3.3807,-3.3807,-3.3807,-3.3807,-3.3807,0.0,0.0,-2.2601,-2.1367,0.0,0.0,0.0,0.0,0.0,0.0,0.0,0.0,0.0,0.0,-1.8572,-1.7591,-1.661,0.0,0.0,0.0,0.0,0.0,0.0,0.0,0.0,0.0,0.0,0.0,-1.7986,0.0,0.0,-2.2482,-2.3506,-2.4142,-2.4835,-2.5333,-2.5609,-2.6336,-2.6906,-2.7303,-2.7303,-2.75,-2.7897,-2.7897,-2.7897,-2.7897,-2.7897,-2.7897,-2.7897,-2.7897,-2.8057,-2.8272,-2.8126,-2.8667,-2.9589,-2.9961,-3.074,-3.164,-3.195,-3.2056,-3.2056,-3.2056,-3.2056,-3.2127,-3.2582,-3.284,-3.3045,-3.3494,-3.3694,-3.3807,-3.3807,-3.3807,-3.3807,-3.3807,-3.3807,-3.3807,-3.3807,-3.3343,-3.2916,-3.2916,-3.2916,-3.3118,-3.3707,-3.3314,-3.2916,-3.2916,-3.3415,-3.3807,-3.3807,-3.3807,-3.3807,-3.3807,-3.3807,-3.3807,-3.3807,-3.3807,-3.3807,-3.3807,-3.3807,-3.3807,-3.3807,-3.3807,-3.3807,-3.3807,-3.3807,-3.3807,-3.3807,-3.3807,-3.3807,-3.3807,-3.3807,-3.3807,-2.3224,-2.32,0.0,-2.2358,-2.1861,0.0,-2.0293,0.0,0.0,0.0,0.0,0.0,0.0,0.0,0.0,-1.8003,-1.6779,0.0,0.0,0.0,0.0,0.0,0.0,0.0,0.0,0.0,-1.5532,-1.7123,0.0,0.0,0.0,0.0,-2.3019,-2.4064,-2.4524,-2.5024,-2.5551,-2.6325,-2.7041,-2.7689,-2.7689,-2.789,-2.8281,-2.8281,-2.8281,-2.8281,-2.8281,-2.8281,-2.8281,-2.8281,-2.8281,-2.8268,-2.8129,-2.8542,-2.9242,-2.9589,-3.0508,-3.1707,-3.2295,-3.2501,-3.2484,-3.2384,-3.2417,-3.2583,-3.2999,-3.3169,-3.3288,-3.3694,-3.3807,-3.3807,-3.3807,-3.3807,-3.3807,-3.3807,-3.3807,-3.3807,-3.3807,-3.3807,-3.3807,-3.3807,-3.3807,-3.3807,-3.3807,-3.3807,-3.3807,-3.3807,-3.3807,-3.3807,-3.3807,-3.3807,-3.3807,-3.3807,-3.3807,-3.3807,-3.3807,-3.3807,-3.3807,-3.3807,-3.3807,-3.3807,-3.3807,-3.3807,-3.3807,-3.3807,-3.3807,-3.3807,-3.3807,-3.3807,-3.3807,-3.3807,-3.3807,-3.3807]},{"header":{"parameterUnit":"m.s-1","parameterCategory":1,"la1":30.6,"la2":29.2853,"lo1":-89.7004,"lo2":-87.6739,"dy":0.0162,"dx":0.0183,"nx":112,"ny":82,"refTime":"2024-07-20T18:00:00:Z","depth":0,"parameterNumber":3,"parameterNumberName":"V-component_of_WINDS"},"data":[0.0,0.0,0.0,0.0,0.0,0.0,0.0,0.0,0.0,0.0,0.0,0.0,0.0,0.0,0.0,0.0,0.0,0.0,0.0,0.0,0.0,0.0,0.0,0.0,0.0,0.0,0.0,0.0,0.0,0.0,0.0,0.0,0.0,0.0,0.0,0.0,0.0,0.0,0.0,0.0,0.0,0.0,0.0,0.0,0.0,0.0,0.0,0.0,0.0,0.0,0.0,0.0,0.0,0.0,0.0,0.0,0.0,0.0,0.0,0.0,0.0,0.0,0.0,0.0,0.0,0.0,0.0,0.0,0.0,0.0,0.0,0.0,0.0,0.0,0.0,0.0,0.0,0.0,0.0,0.0,0.0,0.0,0.0,0.0,0.0,0.0,0.0,0.0,0.0,0.0,0.0,-1.7609,-1.985,-2.1182,-2.1102,-2.0621,-1.8998,-1.5874,0.0,0.0,0.0,0.0,0.0,0.0,0.0,0.0,0.0,0.0,0.0,0.0,0.0,0.0,0.0,0.0,0.0,0.0,0.0,0.0,0.0,0.0,0.0,0.0,0.0,0.0,0.0,0.0,0.0,0.0,0.0,0.0,0.0,0.0,0.0,0.0,0.0,0.0,0.0,0.0,0.0,0.0,0.0,0.0,0.0,0.0,0.0,0.0,0.0,0.0,0.0,0.0,0.0,0.0,0.0,0.0,0.0,0.0,0.0,0.0,0.0,0.0,0.0,0.0,0.0,0.0,0.0,0.0,0.0,0.0,0.0,0.0,0.0,0.0,0.0,0.0,0.0,0.0,0.0,0.0,0.0,0.0,0.0,0.0,0.0,0.0,0.0,0.0,0.0,0.0,0.0,0.0,0.0,0.0,0.0,0.0,0.0,0.0,0.0,0.0,0.0,0.0,0.0,0.0,-1.6372,-2.0198,-2.1498,-2.1945,-2.1536,-2.0873,-1.946,-1.7089,0.0,0.0,0.0,0.0,0.0,0.0,0.0,0.0,0.0,0.0,0.0,0.0,0.0,0.0,0.0,0.0,0.0,0.0,0.0,0.0,0.0,0.0,0.0,0.0,0.0,0.0,0.0,0.0,0.0,0.0,0.0,0.0,0.0,0.0,0.0,0.0,0.0,0.0,0.0,0.0,0.0,0.0,0.0,0.0,0.0,0.0,0.0,0.0,0.0,0.0,0.0,0.0,0.0,0.0,0.0,0.0,0.0,0.0,0.0,0.0,0.0,0.0,0.0,0.0,0.0,0.0,0.0,0.0,0.0,0.0,0.0,0.0,0.0,0.0,0.0,0.0,0.0,0.0,0.0,0.0,0.0,0.0,0.0,0.0,0.0,0.0,0.0,0.0,0.0,0.0,0.0,0.0,0.0,0.0,0.0,0.0,0.0,0.0,0.0,0.0,0.0,0.0,0.0,-1.5749,-1.7515,-2.1373,-2.1859,-2.1823,-2.1628,-2.0858,-1.9482,-1.7342,-1.5666,0.0,0.0,0.0,0.0,0.0,0.0,0.0,0.0,0.0,0.0,0.0,0.0,0.0,0.0,0.0,0.0,0.0,0.0,0.0,0.0,0.0,0.0,0.0,0.0,0.0,0.0,0.0,0.0,0.0,0.0,0.0,0.0,0.0,0.0,0.0,0.0,0.0,0.0,0.0,0.0,0.0,0.0,0.0,0.0,0.0,0.0,0.0,0.0,0.0,0.0,0.0,0.0,0.0,0.0,0.0,0.0,0.0,0.0,0.0,0.0,0.0,0.0,0.0,0.0,0.0,0.0,0.0,0.0,0.0,0.0,0.0,0.0,0.0,0.0,0.0,0.0,0.0,0.0,0.0,0.0,0.0,0.0,0.0,0.0,0.0,0.0,0.0,0.0,0.0,0.0,0.0,0.0,0.0,0.0,0.0,0.0,0.0,0.0,0.0,0.0,0.0,0.0,-1.7762,-1.8893,-2.1969,-2.1988,-2.1673,-2.1476,-2.0448,-1.9024,-1.716,-1.5021,0.0,0.0,0.0,0.0,0.0,0.0,0.0,0.0,0.0,0.0,0.0,0.0,0.0,0.0,0.0,0.0,0.0,0.0,0.0,0.0,0.0,0.0,0.0,0.0,0.0,0.0,0.0,0.0,0.0,0.0,0.0,0.0,0.0,0.0,0.0,0.0,0.0,0.0,0.0,0.0,0.0,0.0,0.0,0.0,0.0,0.0,0.0,0.0,0.0,0.0,0.0,0.0,0.0,0.0,0.0,0.0,0.0,0.0,0.0,0.0,0.0,0.0,0.0,0.0,0.0,0.0,0.0,0.0,0.0,0.0,0.0,0.0,0.0,0.0,0.0,0.0,0.0,0.0,0.0,0.0,0.0,0.0,0.0,0.0,0.0,0.0,0.0,0.0,0.0,0.0,0.0,0.0,0.0,0.0,0.0,0.0,0.0,0.0,0.0,0.0,0.0,0.0,-1.8289,-2.0433,-2.211,-2.2268,-2.1915,-2.1102,-1.9447,-1.7898,-1.6633,-1.3563,0.0,0.0,0.0,0.0,0.0,0.0,0.0,0.0,0.0,0.0,0.0,0.0,0.0,0.0,0.0,0.0,0.0,0.0,0.0,0.0,0.0,0.0,0.0,0.0,0.0,0.0,0.0,0.0,0.0,0.0,0.0,0.0,0.0,0.0,0.0,0.0,0.0,0.0,0.0,0.0,0.0,0.0,0.0,0.0,0.0,0.0,0.0,0.0,0.0,0.0,0.0,0.0,0.0,0.0,0.0,0.0,0.0,0.0,0.0,0.0,0.0,0.0,0.0,0.0,0.0,0.0,0.0,0.0,0.0,0.0,0.0,0.0,0.0,0.0,0.0,0.0,0.0,0.0,0.0,0.0,0.0,0.0,0.0,0.0,0.0,0.0,0.0,0.0,0.0,0.0,0.0,0.0,0.0,0.0,0.0,0.0,0.0,0.0,0.0,0.0,0.0,0.0,-1.7544,-1.9575,0.0,-2.2296,-2.2166,-2.1842,-2.0303,-1.8592,-1.6748,0.0,0.0,0.0,0.0,0.0,0.0,0.0,0.0,0.0,0.0,0.0,0.0,0.0,0.0,0.0,0.0,0.0,0.0,0.0,0.0,0.0,0.0,0.0,0.0,0.0,0.0,0.0,0.0,0.0,0.0,0.0,0.0,0.0,0.0,0.0,0.0,0.0,0.0,0.0,0.0,0.0,0.0,0.0,0.0,0.0,0.0,0.0,0.0,0.0,0.0,0.0,0.0,0.0,0.0,0.0,0.0,0.0,0.0,0.0,0.0,0.0,0.0,0.0,0.0,0.0,0.0,0.0,0.0,0.0,0.0,0.0,0.0,0.0,0.0,0.0,0.0,0.0,0.0,0.0,0.0,0.0,0.0,0.0,0.0,0.0,0.0,0.0,0.0,0.0,0.0,0.0,0.0,0.0,0.0,0.0,0.0,0.0,0.0,0.0,0.0,0.0,0.0,-1.56,-1.7437,-1.9473,0.0,-2.2296,-2.2237,-2.2092,-2.0272,-1.8395,-1.6608,0.0,0.0,0.0,0.0,0.0,0.0,0.0,0.0,0.0,0.0,0.0,0.0,0.0,0.0,0.0,0.0,0.0,0.0,0.0,0.0,0.0,0.0,0.0,0.0,0.0,0.0,0.0,0.0,0.0,0.0,0.0,0.0,0.0,0.0,0.0,0.0,0.0,0.0,0.0,0.0,0.0,0.0,0.0,0.0,0.0,0.0,0.0,0.0,0.0,0.0,0.0,0.0,0.0,0.0,0.0,0.0,0.0,0.0,0.0,0.0,0.0,0.0,0.0,0.0,0.0,0.0,0.0,0.0,0.0,0.0,0.0,0.0,0.0,0.0,0.0,0.0,0.0,0.0,0.0,0.0,0.0,0.0,0.0,0.0,0.0,0.0,0.0,0.0,0.0,0.0,0.0,0.0,0.0,0.0,0.0,0.0,0.0,0.0,0.0,0.0,0.0,0.0,-1.561,-1.8263,-2.0589,-2.2144,-2.2296,-2.2106,-2.1658,-1.8976,-1.698,0.0,0.0,0.0,0.0,0.0,0.0,0.0,0.0,0.0,0.0,0.0,0.0,0.0,0.0,0.0,0.0,0.0,0.0,0.0,0.0,0.0,0.0,0.0,0.0,0.0,0.0,0.0,0.0,0.0,0.0,0.0,0.0,0.0,0.0,0.0,0.0,0.0,0.0,0.0,0.0,0.0,0.0,0.0,0.0,0.0,0.0,0.0,0.0,0.0,0.0,0.0,0.0,0.0,0.0,0.0,0.0,0.0,0.0,0.0,0.0,0.0,0.0,0.0,0.0,0.0,0.0,0.0,0.0,0.0,0.0,0.0,0.0,0.0,0.0,0.0,0.0,0.0,0.0,0.0,0.0,0.0,0.0,0.0,0.0,0.0,0.0,0.0,0.0,0.0,0.0,0.0,0.0,0.0,0.0,0.0,0.0,0.0,0.0,0.0,0.0,0.0,0.0,0.0,-1.561,-1.8263,-2.0589,-2.2144,-2.2003,-2.1868,-2.2077,-1.9846,-1.7668,-1.5856,0.0,0.0,0.0,0.0,0.0,0.0,0.0,0.0,0.0,0.0,0.0,0.0,0.0,0.0,0.0,0.0,0.0,0.0,0.0,0.0,0.0,0.0,0.0,0.0,0.0,0.0,0.0,0.0,0.0,0.0,0.0,0.0,0.0,0.0,0.0,0.0,0.0,0.0,0.0,0.0,0.0,0.0,0.0,0.0,0.0,0.0,0.0,0.0,0.0,0.0,0.0,0.0,0.0,0.0,0.0,0.0,0.0,0.0,0.0,0.0,0.0,0.0,0.0,0.0,0.0,0.0,0.0,0.0,0.0,0.0,0.0,0.0,0.0,0.0,0.0,0.0,0.0,0.0,0.0,0.0,0.0,0.0,0.0,0.0,0.0,0.0,0.0,0.0,0.0,0.0,0.0,0.0,0.0,0.0,0.0,0.0,0.0,0.0,0.0,0.0,0.0,0.0,-1.556,-1.8512,-2.0957,-2.2161,-2.2046,-2.2003,-2.2282,-2.0633,-1.8569,-1.6201,0.0,0.0,0.0,0.0,0.0,0.0,0.0,0.0,0.0,0.0,0.0,0.0,0.0,0.0,0.0,0.0,0.0,0.0,0.0,0.0,0.0,0.0,0.0,0.0,0.0,0.0,0.0,0.0,0.0,0.0,0.0,0.0,0.0,0.0,0.0,0.0,0.0,0.0,0.0,0.0,0.0,0.0,0.0,0.0,0.0,0.0,0.0,0.0,0.0,0.0,0.0,0.0,0.0,0.0,0.0,0.0,0.0,0.0,0.0,0.0,0.0,0.0,0.0,0.0,0.0,0.0,0.0,0.0,0.0,0.0,0.0,0.0,0.0,0.0,0.0,0.0,0.0,0.0,0.0,0.0,0.0,0.0,0.0,0.0,0.0,0.0,0.0,0.0,0.0,0.0,0.0,0.0,0.0,0.0,0.0,0.0,0.0,0.0,0.0,0.0,0.0,0.0,-1.5595,-1.8922,-2.1478,-2.2212,-2.224,-2.2209,-2.2296,-2.119,-1.9419,-1.6955,0.0,0.0,0.0,0.0,0.0,0.0,0.0,0.0,0.0,0.0,0.0,0.0,0.0,0.0,0.0,0.0,0.0,0.0,0.0,0.0,0.0,0.0,0.0,0.0,0.0,0.0,0.0,0.0,0.0,0.0,0.0,0.0,0.0,0.0,0.0,0.0,0.0,0.0,0.0,0.0,0.0,0.0,0.0,0.0,0.0,0.0,0.0,0.0,0.0,0.0,0.0,0.0,0.0,0.0,0.0,0.0,0.0,0.0,0.0,0.0,-1.1648,0.0,0.0,0.0,0.0,0.0,0.0,0.0,0.0,0.0,0.0,0.0,0.0,0.0,0.0,0.0,0.0,0.0,0.0,0.0,0.0,0.0,0.0,0.0,0.0,0.0,0.0,0.0,0.0,0.0,0.0,0.0,0.0,0.0,0.0,0.0,0.0,0.0,0.0,0.0,0.0,0.0,-1.6299,-1.9244,-2.1478,-2.2212,-2.1691,-2.1554,-2.2237,-2.0581,-1.896,-1.7642,0.0,0.0,0.0,0.0,0.0,0.0,0.0,0.0,0.0,0.0,0.0,0.0,0.0,0.0,0.0,0.0,0.0,0.0,0.0,0.0,0.0,0.0,0.0,0.0,0.0,0.0,0.0,0.0,0.0,0.0,0.0,0.0,0.0,0.0,0.0,0.0,0.0,0.0,0.0,0.0,0.0,0.0,0.0,0.0,0.0,0.0,0.0,0.0,0.0,0.0,0.0,0.0,0.0,0.0,0.0,0.0,0.0,0.0,0.0,0.0,0.0,-1.2956,0.0,0.0,0.0,0.0,0.0,0.0,0.0,0.0,0.0,0.0,0.0,0.0,0.0,0.0,0.0,0.0,0.0,0.0,0.0,0.0,0.0,0.0,0.0,0.0,0.0,0.0,0.0,0.0,0.0,0.0,0.0,0.0,0.0,0.0,0.0,0.0,0.0,0.0,0.0,0.0,-1.6775,-1.9556,-2.1451,-2.1657,-2.1446,-2.14,-2.1645,-2.0858,-1.9754,-1.8375,-1.6595,0.0,0.0,0.0,0.0,0.0,0.0,0.0,0.0,0.0,0.0,0.0,0.0,0.0,0.0,0.0,0.0,0.0,0.0,0.0,0.0,0.0,0.0,0.0,0.0,0.0,0.0,0.0,0.0,0.0,0.0,0.0,0.0,0.0,0.0,0.0,0.0,0.0,0.0,0.0,0.0,0.0,0.0,0.0,0.0,0.0,0.0,0.0,0.0,0.0,0.0,0.0,0.0,0.0,-1.7117,-1.6833,-1.6818,-1.6173,-1.6443,-1.7384,-1.6189,-1.5769,-1.5859,-1.4648,0.0,0.0,0.0,0.0,0.0,0.0,0.0,0.0,0.0,0.0,0.0,0.0,0.0,0.0,0.0,0.0,0.0,0.0,0.0,0.0,0.0,0.0,0.0,0.0,-1.7486,-1.7486,0.0,0.0,0.0,0.0,0.0,0.0,0.0,0.0,0.0,0.0,0.0,0.0,-1.7449,-1.9869,-2.1368,-2.1039,-2.1228,-2.1259,-2.1007,-2.1166,-2.0617,-1.9095,-1.7666,-1.6307,0.0,0.0,0.0,0.0,0.0,0.0,0.0,0.0,0.0,0.0,0.0,0.0,0.0,0.0,0.0,0.0,0.0,0.0,0.0,0.0,0.0,0.0,0.0,0.0,0.0,0.0,0.0,0.0,0.0,0.0,0.0,0.0,-0.8658,-0.9317,0.0,0.0,0.0,0.0,0.0,0.0,0.0,0.0,0.0,0.0,0.0,0.0,0.0,-1.4526,-1.6608,-1.9341,-2.0644,-2.0501,-2.0767,-2.0917,-2.0902,-2.0408,-2.0273,-2.0378,-1.9468,0.0,-1.6532,-1.5829,0.0,0.0,0.0,0.0,0.0,0.0,0.0,0.0,0.0,0.0,0.0,0.0,0.0,0.0,0.0,0.0,0.0,0.0,0.0,0.0,0.0,0.0,-2.013,-2.0809,-2.1034,-2.1019,0.0,-1.7838,-1.5211,-1.5072,-1.4858,0.0,0.0,0.0,0.0,0.0,0.0,0.0,-1.8926,-2.0256,-2.1055,-2.1023,-2.0682,-2.0616,-2.0959,-2.0362,-1.9885,-1.9765,-1.8377,-1.7456,-1.7198,-1.4944,0.0,0.0,0.0,0.0,0.0,0.0,0.0,0.0,0.0,0.0,0.0,0.0,0.0,0.0,0.0,0.0,0.0,0.0,0.0,0.0,0.0,0.0,0.0,0.0,0.0,0.0,0.0,0.0,0.0,-0.8464,-0.966,-0.9878,-1.0629,-1.0868,0.0,0.0,0.0,0.0,0.0,0.0,0.0,0.0,0.0,-1.7015,-1.6758,-1.7605,-1.9678,-2.1265,-2.1814,-2.1395,-2.1605,-2.1695,-2.1695,-2.1879,-2.1969,-2.1954,-2.1924,-2.1395,-2.0479,-1.9243,-1.7686,-1.6054,0.0,0.0,0.0,0.0,-1.6697,-1.6742,-1.8059,-1.8149,0.0,-1.7924,0.0,0.0,0.0,0.0,0.0,0.0,0.0,0.0,0.0,0.0,-2.0868,-2.1545,-2.1695,-2.1695,-2.1695,-2.0243,-1.8645,0.0,-1.7083,-1.6256,-1.4751,0.0,0.0,0.0,0.0,0.0,-1.9161,-2.0051,-2.0532,-2.0294,-2.0296,-2.028,-2.0277,-2.0122,-1.9965,-1.9793,-1.883,-1.8249,-1.8221,-1.6614,-1.5342,0.0,0.0,0.0,0.0,0.0,0.0,0.0,0.0,0.0,0.0,0.0,0.0,0.0,0.0,0.0,0.0,0.0,0.0,0.0,0.0,0.0,0.0,0.0,0.0,0.0,0.0,0.0,0.0,-0.9919,-1.0817,-1.0897,-1.2165,-1.2723,0.0,0.0,0.0,0.0,0.0,0.0,-1.5739,-1.6114,-1.7281,-1.9405,-1.9405,-2.0232,-2.1934,-2.2637,-2.2802,-2.2443,-2.2622,-2.2697,-2.2712,-2.3107,-2.3407,-2.3661,-2.4335,-2.4492,-2.4148,-2.2383,-2.0887,-1.9783,-2.0273,-2.0154,-1.9813,-2.0471,-2.0168,-1.969,-2.1186,-2.138,-2.0808,-1.9989,0.0,-1.8416,-1.6802,0.0,0.0,0.0,0.0,-2.0254,-2.1316,-2.1503,-2.1575,-2.2069,-2.2188,-2.2188,-2.2188,-2.2054,-2.1514,0.0,-1.9458,-1.8579,-1.6658,0.0,0.0,0.0,0.0,-1.882,-1.963,-1.9976,-2.0035,-1.9729,-1.9965,-2.0035,-1.9744,-1.9965,-2.0017,-1.9711,-1.9226,-1.8957,-1.8957,-1.8014,-1.6892,-1.5562,0.0,0.0,0.0,0.0,0.0,0.0,0.0,0.0,0.0,0.0,0.0,0.0,0.0,0.0,0.0,0.0,0.0,0.0,0.0,0.0,0.0,0.0,0.0,0.0,0.0,0.0,0.0,0.0,0.0,-1.354,-1.4781,0.0,0.0,0.0,0.0,-1.4659,-1.583,-1.7085,-1.8433,-1.9702,-2.0767,-2.1515,-2.1904,-2.2283,-2.2643,-2.411,-2.4739,-2.447,-2.5098,-2.5405,-2.539,-2.5039,-2.5347,-2.6162,-2.7031,-2.6926,-2.6012,-2.4208,-2.3415,-2.3475,-2.4762,-2.4477,-2.334,-2.3385,-2.2622,-2.156,-2.1665,-2.168,-2.1739,-2.2313,-2.2059,-2.1365,-2.0613,-2.0438,0.0,0.0,-2.1509,-2.2529,-2.2604,-2.3032,-2.346,-2.349,-2.3505,-2.3505,-2.3505,-2.3041,-2.2433,0.0,-2.1839,-2.1633,-2.0181,0.0,-2.0671,-2.0671,-1.9797,-1.9644,-2.1023,-2.0345,-1.9711,-1.9708,-1.9711,-1.9711,-1.9708,-1.9711,-1.9711,-1.9708,-1.9678,-1.9648,-1.9648,-1.8989,-1.8116,-1.7026,-1.4977,0.0,0.0,0.0,0.0,0.0,0.0,0.0,0.0,0.0,0.0,0.0,0.0,0.0,0.0,0.0,0.0,0.0,0.0,0.0,0.0,0.0,0.0,0.0,0.0,0.0,0.0,0.0,0.0,-1.5005,-1.6219,0.0,-1.5756,-1.6443,-1.7236,-1.7911,-1.876,-1.9672,-2.0587,-2.1081,-2.1829,-2.2892,-2.3056,-2.3595,-2.4552,-2.5106,-2.5345,-2.5247,-2.5495,-2.5615,-2.5615,-2.5884,-2.6207,-2.6537,-2.7285,-2.742,-2.7091,-2.6447,-2.5848,-2.5353,-2.554,-2.548,-2.5309,-2.5001,-2.4597,-2.4208,-2.4208,-2.4208,-2.4178,-2.3999,-2.3475,-2.2877,-2.2637,-2.2871,-2.3214,-2.3214,-2.3857,-2.4567,-2.4567,-2.4732,-2.4896,-2.4896,-2.4896,-2.4896,-2.4896,-2.4388,-2.3842,-2.3603,-2.2671,-2.169,-2.097,-2.1368,-2.1633,-2.1146,-2.1149,-2.1277,-2.1535,-2.1227,-2.0812,-2.0393,-2.0348,-2.0168,-1.9738,-1.9708,-1.9708,-1.9708,-1.9708,-1.9708,-1.9708,-1.9465,-1.8768,-1.7497,-1.5945,-1.4018,0.0,0.0,0.0,0.0,0.0,0.0,0.0,0.0,0.0,0.0,0.0,0.0,0.0,0.0,0.0,0.0,0.0,0.0,0.0,0.0,0.0,0.0,0.0,0.0,0.0,0.0,-1.5695,-1.6368,-1.779,-1.8446,-1.7788,-1.8942,-1.9899,-2.0333,-2.0991,-2.1665,-2.2308,-2.2562,-2.3176,-2.4238,-2.4268,-2.4807,-2.5929,-2.5944,-2.5929,-2.5918,-2.6176,-2.6137,-2.5933,-2.6624,-2.6941,-2.6971,-2.7405,-2.7458,-2.7244,-2.741,-2.7004,-2.6269,-2.6258,-2.6342,-2.6357,-2.6048,-2.5794,-2.5615,-2.5615,-2.5615,-2.554,-2.5083,-2.4634,-2.4268,-2.4268,-2.4597,-2.4933,-2.4933,-2.5412,-2.5899,-2.5674,-2.5779,-2.5884,-2.5659,-2.5615,-2.5615,-2.5615,-2.5247,-2.4933,-2.4933,-2.3535,-2.2209,-2.1774,-2.211,-2.2282,-2.1786,-2.1927,-2.2078,-2.2034,-2.1829,-2.153,-2.1077,-2.1051,-2.0767,-2.0094,-2.0034,-1.9929,-1.9708,-1.9708,-1.9708,-1.9708,-1.9465,-1.8837,-1.7712,-1.6233,-1.4586,-1.2807,0.0,0.0,0.0,0.0,0.0,0.0,0.0,0.0,0.0,0.0,0.0,0.0,0.0,0.0,0.0,0.0,0.0,0.0,0.0,0.0,0.0,0.0,0.0,-1.4901,-1.5994,-1.704,-1.7697,-1.9537,-2.0483,-1.9828,-2.0961,-2.1754,-2.1754,-2.2403,-2.3047,-2.3625,-2.4276,-2.4933,-2.5615,-2.563,-2.5959,-2.6617,-2.6641,-2.6583,-2.6539,-2.7258,-2.7207,-2.6541,-2.7288,-2.7619,-2.7619,-2.7619,-2.7211,-2.6611,-2.7105,-2.6905,-2.6354,-2.7246,-2.7176,-2.6623,-2.6632,-2.6213,-2.5674,-2.5674,-2.5674,-2.5674,-2.5674,-2.5674,-2.5674,-2.5674,-2.5674,-2.5674,-2.5674,-2.6123,-2.6482,-2.5839,-2.6138,-2.6452,-2.5824,-2.5674,-2.5674,-2.5674,-2.5659,-2.563,-2.563,-2.4567,-2.346,-2.2868,-2.2763,-2.2748,-2.2733,-2.2179,0.0,-2.2643,-2.2164,-2.1739,-2.1724,-2.1724,-2.1455,-2.0763,-2.0703,-2.0423,-1.9753,-1.9708,-1.9708,-1.9708,-1.9076,-1.8433,-1.7727,-1.583,-1.4826,-1.4826,0.0,0.0,0.0,0.0,0.0,0.0,0.0,0.0,0.0,0.0,0.0,0.0,0.0,0.0,0.0,0.0,0.0,0.0,0.0,0.0,0.0,0.0,-1.746,-1.6966,-1.8044,-1.9121,-1.9791,-2.0797,-2.135,-2.1156,-2.2323,-2.3071,-2.3071,-2.4148,-2.4881,-2.5046,-2.5217,-2.5621,-2.6303,-2.6318,-2.6632,-2.7315,-2.733,-2.7248,-2.709,-2.7294,-2.7209,-2.69,-2.7738,-2.8128,-2.8128,-2.8128,-2.7975,-2.7822,-2.7952,-2.7911,-2.7712,-2.7485,-2.7258,-2.7135,-2.7278,-2.721,-2.7061,-2.7061,-2.7061,-2.7061,-2.7061,-2.7061,-2.7061,-2.7061,-2.7061,-2.7061,-2.7061,-2.718,-2.7285,-2.7106,-2.7195,-2.7285,-2.7106,-2.7061,-2.7061,-2.7061,-2.6686,-2.6318,-2.6318,-2.563,-2.4852,-2.4186,-2.4066,-2.3924,-2.343,-2.3191,0.0,-2.3325,-2.3191,-2.2906,-2.2478,-2.2433,-2.1949,-2.0793,-2.0703,-2.0423,-1.9753,-1.9708,-1.9708,-1.9708,-1.9528,-1.9106,-1.8448,-1.6518,-1.5529,0.0,0.0,0.0,0.0,0.0,0.0,0.0,0.0,0.0,0.0,0.0,0.0,0.0,0.0,0.0,0.0,0.0,0.0,0.0,0.0,0.0,0.0,-1.776,-1.9181,-1.9343,-2.0049,-2.0677,-2.1081,-2.171,-2.2224,-2.2473,-2.343,-2.4148,-2.4418,-2.5166,-2.5734,-2.6004,-2.6019,-2.6452,-2.741,-2.744,-2.7571,-2.7895,-2.7895,-2.7501,-2.6714,-2.703,-2.6952,-2.6553,-2.7372,-2.7766,-2.778,-2.814,-2.8126,-2.7866,-2.8498,-2.854,0.0,0.0,0.0,0.0,0.0,-2.8438,-2.8438,-2.8438,-2.8438,-2.8438,-2.8438,-2.8438,-2.8438,-2.8438,-2.8438,-2.8378,-2.8109,-2.8034,-2.7959,-2.7675,-2.76,-2.76,-2.76,-2.76,-2.76,-2.76,-2.73,-2.7031,-2.7031,-2.6692,0.0,-2.5555,-2.5187,-2.4784,-2.4133,-2.4007,-2.3924,-2.364,-2.3595,-2.346,-2.3122,-2.3092,-2.2673,-2.162,-2.1276,0.0,0.0,0.0,-1.9573,-1.9286,-1.9271,0.0,0.0,0.0,0.0,0.0,0.0,0.0,0.0,-1.535,-1.5185,0.0,0.0,0.0,0.0,0.0,0.0,0.0,0.0,0.0,0.0,0.0,0.0,0.0,0.0,0.0,0.0,-1.9106,-2.0456,-2.1635,-2.1859,-2.1889,-2.1814,-2.2463,-2.3116,-2.367,-2.438,-2.5068,-2.5674,-2.5794,-2.6093,-2.6686,0.0,0.0,0.0,0.0,-2.8468,-2.8297,-2.8197,-2.7428,-2.5998,-2.6661,-2.661,-2.5978,-2.6739,-2.7089,-2.7119,-2.7904,-2.7845,-2.7352,-2.8584,-2.878,-2.8391,-2.9227,-2.9585,-2.9606,-2.9606,-2.9606,-2.9606,-2.9606,0.0,0.0,-2.9606,-2.9606,-2.9606,-2.9606,-2.9606,-2.9487,-2.8876,-2.8712,-2.8577,-2.7989,-2.7764,-2.7705,-2.7705,-2.766,-2.76,-2.76,-2.76,-2.76,-2.76,-2.76,-2.7405,-2.6821,-2.6153,-2.5457,-2.4709,-2.4605,-2.435,-2.3684,-2.3595,-2.3595,-2.3595,0.0,0.0,-2.2748,-2.2164,-2.153,-2.0872,-2.0183,-1.951,-1.8837,-1.8807,-1.8807,-1.8807,-1.8807,-1.9106,-1.9708,-1.9708,-1.939,-1.8762,-1.6428,-1.6248,0.0,0.0,0.0,0.0,0.0,0.0,0.0,0.0,0.0,0.0,0.0,0.0,0.0,0.0,0.0,-1.9151,-2.0891,-2.2209,-2.2463,-2.2921,-2.3041,-2.2568,-2.3535,-2.4276,-2.4395,-2.551,-2.6258,-2.6393,-2.6926,-2.727,-2.7405,-2.7919,-2.8323,-2.8592,-2.8435,-2.8352,-2.8297,-2.762,-2.7009,-2.654,0.0,0.0,-2.6417,-2.7197,-2.7542,-2.7575,-2.775,-2.775,-2.7634,-2.7902,-2.8347,-2.8893,-2.9199,-2.947,-2.9606,-2.9606,-2.9606,-2.9606,-2.9606,-2.9606,-2.9606,-2.9606,-2.9606,-2.9606,-2.9606,-2.9606,0.0,-2.9457,-2.9427,-2.9397,-2.9262,-2.8801,-2.8412,-2.8412,-2.8004,-2.76,-2.76,-2.76,-2.76,-2.76,-2.76,-2.7555,-2.742,-2.6866,-2.6004,-2.4784,-2.4605,-2.435,-2.3684,-2.3595,-2.3595,-2.3595,-2.3595,-2.3355,-2.2748,-2.2583,-2.2224,-2.1545,-2.0887,-2.0213,-1.9525,-1.9513,-1.9513,-1.9513,-1.9513,-1.9573,-1.9708,-1.9708,-1.9633,-1.9498,-1.8989,-1.8657,0.0,0.0,0.0,0.0,0.0,0.0,0.0,0.0,0.0,0.0,0.0,-1.6458,-1.7132,0.0,-2.0034,-2.1041,-2.2044,-2.2927,-2.3565,-2.3924,-2.3999,-2.3684,-2.4201,-2.4859,-2.5555,-2.6213,-2.6746,-2.7091,-2.7405,-2.7542,-2.7448,-2.7759,-2.8065,-2.8283,-2.8207,-2.8102,-2.7999,-2.7565,-2.7093,-2.6591,-2.6591,-2.6557,-2.6499,-2.6905,-2.7095,-2.7129,-2.755,-2.7703,-2.7736,-2.8182,-2.862,-2.9006,-2.9105,-2.9473,-2.9941,-2.9941,-3.0227,-3.0552,-3.0552,-3.0552,-3.0552,-3.0552,-3.0552,-3.0552,-3.0552,-3.0552,-3.0492,-3.0133,-3.0043,-2.9968,-2.9696,-2.9367,-2.9086,-2.9086,-2.8577,-2.8109,-2.8109,-2.7839,-2.76,-2.76,-2.76,-2.76,-2.76,-2.733,-2.6752,-2.5749,-2.5307,-2.4859,-2.4208,-2.3819,-2.3595,-2.3595,-2.3595,-2.3475,-2.3182,-2.2868,-2.2418,-2.1739,-2.1395,-2.1051,-2.0707,-2.0711,-2.0711,-2.0711,-2.0711,-2.0528,-2.0198,-2.0528,-2.0347,-1.9708,-2.003,-1.984,0.0,0.0,0.0,0.0,0.0,0.0,0.0,0.0,-1.5679,-1.6069,-1.7401,-1.864,-1.9181,-2.0273,-2.1485,-2.2688,-2.2987,-2.3475,-2.4634,-2.4799,-2.4844,-2.4963,-2.4993,-2.5397,-2.6497,-2.6731,-2.7031,-2.7555,-2.7563,-2.7483,-2.7319,-2.7369,-2.7595,-2.7971,-2.7968,-2.7858,-2.7703,-2.7537,-2.7129,-2.6499,-2.6499,-2.6499,-2.6499,-2.6499,-2.6499,-2.6521,-2.7196,-2.7484,-2.7517,-2.8214,-2.8524,-2.8524,-2.8524,-2.9034,-2.9827,-2.9981,-3.045,-3.1029,-3.1219,-3.1278,-3.1278,-3.1438,-3.1511,-3.1511,-3.1511,-3.1511,-3.1391,-3.0866,-3.0702,-3.0597,-3.0088,-2.9864,-2.9759,-2.9759,-2.9265,-2.8757,-2.8622,-2.8173,-2.7764,-2.763,-2.76,-2.76,-2.76,-2.76,-2.7375,-2.6692,-2.6138,-2.5555,-2.4874,-2.4201,-2.3789,-2.3789,-2.3684,-2.3595,-2.3595,-2.3152,-2.2598,-2.1934,-2.1889,-2.1829,-2.1695,-2.1695,-2.1635,-2.1505,-2.1505,-2.1173,-2.0539,-2.1073,-2.0788,-1.9733,-2.0265,-2.0244,-1.1696,-1.2795,0.0,-1.4573,-1.4715,-1.5461,0.0,0.0,-1.8777,-2.0557,-2.1096,-2.1276,-2.135,-2.1984,-2.2703,-2.3385,-2.4014,-2.4649,-2.5367,-2.5495,-2.5719,-2.6303,-2.6378,-2.6437,-2.6572,-2.7151,-2.7525,-2.7585,-2.7428,-2.7317,-2.7306,-2.7717,-2.7967,-2.7999,-2.7838,-2.7736,-2.7703,-2.7007,-2.6589,-2.6499,-2.6499,-2.6499,-2.6499,-2.6499,-2.6499,-2.6499,-2.6589,-2.6624,-2.6658,-2.6748,-2.6782,-2.6782,-2.6782,-2.7297,-2.8084,-2.8876,-2.9192,-2.938,-3.0178,-3.0419,-3.0554,-3.1278,-3.1511,-3.1511,-3.1511,-3.1511,-3.1481,-3.1406,-3.1391,-3.1376,-3.1301,-3.0866,-3.0402,-3.0402,-2.9924,-2.9337,-2.8727,-2.8547,-2.8308,-2.772,-2.76,-2.76,-2.76,-2.76,-2.7375,-2.6692,-2.6527,-2.6243,-2.5561,-2.4903,-2.4485,-2.4485,-2.3969,-2.3595,-2.3595,-2.3535,-2.3236,-2.2628,-2.2583,-2.2328,-2.1724,-2.1695,-2.141,-2.0821,-2.0821,-2.0521,-1.9889,-1.998,-1.9937,-1.9781,-1.9871,-1.9871,-1.4968,0.0,0.0,0.0,-1.6972,-1.7541,-1.8943,-1.9288,-1.9684,-2.086,-2.1424,-2.1821,-2.2202,-2.2808,-2.343,0.0,-2.4425,-2.4963,-2.6033,-2.5854,-2.5854,-2.6512,-2.6587,-2.6761,-2.7151,-2.7435,-2.7764,-2.8143,-2.7625,-2.7413,-2.7703,-2.7404,-2.7221,-2.7138,-2.7046,-2.7007,-2.7007,-2.6692,-2.6499,-2.6499,-2.6499,-2.6499,-2.6499,-2.6499,-2.6499,-2.6499,-2.6499,-2.6499,-2.6499,-2.6499,-2.6499,-2.6499,-2.6499,-2.6714,-2.7162,-2.8524,-2.9002,-2.9129,-3.0011,-3.0299,-3.0359,-3.0673,-3.1117,-3.1511,-3.1511,-3.1511,-3.1511,-3.1511,-3.1511,-3.1511,-3.1511,-3.1286,-3.1077,-3.1077,-3.0597,-2.9939,-2.931,-2.8876,-2.8397,-2.7735,-2.76,-2.76,-2.76,-2.76,-2.7495,-2.7225,-2.6866,-2.6497,-2.6213,-2.5615,-2.5023,-2.4649,-2.435,-2.4007,-2.3625,-2.3595,-2.349,-2.3236,-2.3206,-2.3086,-2.2817,-2.2486,-2.2156,-2.1866,-2.1484,-2.0966,-2.0392,-2.0731,-2.0525,-1.9813,-2.0194,-2.0165,-1.6772,0.0,0.0,-1.7766,-1.859,-1.9152,-1.9136,-1.9625,-2.0313,-2.1098,-2.1643,-2.2185,-2.2837,-2.3295,0.0,-2.4739,-2.4874,-2.5337,-2.6701,-2.6303,-2.6123,-2.6806,-2.6692,-2.6866,-2.7525,-2.76,-2.7767,-2.8213,-2.7603,-2.7338,-2.7635,-2.6997,-2.6591,-2.6508,-2.6499,-2.6499,-2.6499,-2.6499,-2.6499,-2.6499,-2.6499,-2.6499,-2.6499,-2.6499,-2.6575,-2.6725,-2.6725,-2.6725,-2.6725,-2.6725,-2.6637,-2.6499,-2.6499,-2.6499,-2.6692,-2.8117,-2.8492,-2.8427,-2.9286,-2.9566,-2.9628,-2.9858,-3.0329,-3.0807,-3.0807,-3.0807,-3.0807,-3.0807,-3.0807,-3.0866,-3.1117,-3.1161,-3.1219,-3.1438,-3.1122,-3.0567,-2.9786,-2.9232,-2.8607,-2.7764,-2.76,-2.76,-2.76,-2.76,-2.76,-2.76,-2.7195,-2.6881,-2.6881,-2.6288,-2.563,-2.4948,-2.4709,-2.4395,-2.3924,-2.3714,-2.353,-2.3377,-2.3355,-2.3275,-2.3069,-2.2657,-2.2337,-2.2175,-2.17,-2.1162,-2.0543,-2.0957,-2.0715,-1.9801,-2.029,-2.0245,0.0,0.0,-1.8016,-1.8016,-1.8883,-1.9816,-1.994,-2.0377,-2.1129,-2.2372,-2.2651,-2.2846,-2.3457,-2.3595,-2.4029,-2.536,-2.5561,-2.6033,-2.7375,-2.7001,-2.6821,-2.748,-2.7001,-2.6866,0.0,-2.76,-2.7532,-2.7345,-2.7141,-2.6918,-2.6735,-2.6606,-2.6508,-2.6499,-2.6499,-2.6499,-2.6499,-2.6499,-2.6499,-2.6499,-2.6499,-2.6499,-2.6499,-2.6499,-2.6788,-2.7291,-2.7291,-2.7291,-2.7291,-2.7291,-2.6977,-2.6499,-2.6499,-2.6499,-2.6589,-2.7417,-2.7263,-2.6679,-2.7517,-2.7769,-2.792,-2.8748,-2.9066,-2.9097,-2.9097,-2.9097,-2.9097,-2.9097,-2.9097,-2.9286,-3.0103,-3.0329,-3.0524,-3.1307,-3.1481,-3.1122,-2.9864,-2.9592,-2.9187,-2.7854,-2.76,-2.76,-2.76,-2.76,-2.76,-2.76,-2.7585,-2.757,-2.757,-2.6986,-2.6303,-2.5644,-2.4993,-2.459,-2.4575,-2.3962,-2.3355,-2.2762,-2.2717,-2.2452,-2.1767,-2.1744,-2.1462,-2.087,-2.0845,-2.0497,-1.9825,-1.9837,-1.9837,-1.9799,-1.9824,-1.9824,0.0,0.0,-1.8143,-1.8569,-1.8977,-1.9367,-1.9772,-2.0012,-2.0377,-2.1255,-2.1433,-2.1622,-2.2233,-2.2697,-2.3415,-2.4724,-2.5307,-2.6063,-2.7405,-2.6587,-2.6138,-2.6837,-2.5865,0.0,0.0,0.0,0.0,-2.7402,-2.6703,-2.6436,-2.6826,-2.6632,-2.6499,-2.6499,-2.6499,-2.6499,-2.6499,-2.6499,-2.6499,-2.6499,-2.6499,-2.6688,-2.7027,-2.6663,-2.7002,-2.7783,-2.709,-2.6977,-2.7256,-2.6927,-2.6663,-2.6499,-2.6499,-2.6499,-2.6521,-2.6816,-2.6714,-2.6624,-2.7417,-2.7703,-2.7769,-2.8051,-2.8524,-2.9002,-2.9002,-2.9002,-2.9002,-2.9002,-2.9002,-2.9066,-2.9348,-2.9442,-2.9504,-2.9797,-3.0269,-3.047,-2.9594,-2.9816,-2.9652,-2.7876,-2.7932,-2.7969,-2.7029,-2.728,-2.76,-2.76,-2.76,-2.76,-2.76,-2.7405,-2.7016,-2.6333,-2.6063,-2.5545,-2.4597,-2.434,-2.376,-2.2712,-2.2636,-2.2345,-2.1724,-2.1318,-2.1004,-2.0795,-2.0346,-2.0029,-1.9798,-1.9798,-1.9798,-1.9811,-2.02,-2.0402,0.0,-1.8094,-1.8262,-1.9082,-1.9284,-1.9397,-1.9723,-1.98,-1.9982,-2.0647,-2.0787,-2.0961,-2.1594,-2.2059,-2.2832,-2.435,-2.4963,-2.5699,-2.7007,-2.6218,-2.5741,-2.6373,-2.5399,-2.5051,0.0,0.0,0.0,-2.6889,-2.6462,-2.6358,-2.6746,-2.6578,-2.6499,-2.6499,-2.6499,-2.6499,-2.6499,-2.6499,-2.66,-2.6788,-2.6989,-2.7231,-2.7557,-2.7241,-2.7544,-2.836,-2.7657,-2.7544,-2.7821,-2.7268,-2.6964,-2.6763,-2.6562,-2.6499,-2.6499,-2.6499,-2.6499,-2.6555,-2.7095,-2.7263,-2.7263,-2.7263,-2.7637,-2.8117,-2.8117,-2.8117,-2.8117,-2.8117,-2.8117,-2.8182,-2.846,-2.8524,-2.862,-2.8939,-2.9442,-2.9657,-2.8972,-2.9245,-2.9146,-2.7613,-2.7535,-2.7467,-2.6547,-2.664,-2.6811,-2.6811,-2.6811,-2.6916,-2.7163,-2.7203,-2.6924,-2.6243,-2.6197,-2.5725,-2.4563,-2.4233,-2.366,-2.2603,-2.2525,-2.2165,-2.1374,-2.0973,-2.0667,-2.0459,-2.0029,-1.9798,-1.9798,-1.9798,-1.9911,-2.0125,-2.0515,-2.0792,-1.7786,-1.8188,-1.8568,-1.956,-1.9823,-1.9823,-1.9773,-1.9783,-1.9959,-2.0548,-2.0626,-2.0802,0.0,0.0,-2.2263,-2.4156,-2.4575,-2.5073,-2.6272,-2.5911,-2.5682,0.0,0.0,0.0,0.0,0.0,0.0,-2.5883,0.0,-2.6582,-2.6458,-2.6474,-2.6499,-2.6499,-2.6499,-2.6499,-2.6499,-2.6524,-2.6813,-2.7331,-2.7858,-2.8122,-2.8147,-2.8122,-2.8423,-2.8938,-2.8875,-2.8863,-2.885,-2.8335,-2.7795,-2.7304,-2.6751,-2.6537,-2.6537,-2.6499,-2.6499,-2.6499,-2.6499,-2.6499,-2.6499,-2.6499,-2.6499,-2.6499,-2.6499,-2.6499,-2.6499,-2.6499,-2.6499,-2.6692,-2.7451,-2.7637,-2.7855,-2.8684,-2.8907,-2.8756,-2.8116,-2.8023,-2.7831,-2.7138,-2.6534,-2.6152,-2.618,-2.577,-2.5398,-2.5398,-2.537,-2.5618,-2.6336,-2.6457,-2.6176,-2.5481,-2.5463,-2.5199,-2.4473,-2.3818,-2.3149,-2.2442,-2.2388,-2.1897,-2.0781,-2.0729,-2.0478,-1.9899,-1.9886,-1.9886,-1.9886,-1.9886,-2.0175,-2.0729,-2.0767,-2.1056,-1.8461,-1.9371,-2.0025,-1.9836,-2.0125,-2.0264,-1.9384,-1.9514,-1.9592,-1.8862,-1.9017,-1.918,-1.879,0.0,0.0,-2.2278,-2.4066,0.0,-2.5723,-2.5903,0.0,0.0,0.0,-2.5229,-2.6082,-2.5871,0.0,0.0,-2.5795,-2.5881,-2.5845,-2.626,-2.6499,-2.6499,-2.6499,-2.6499,-2.6499,-2.6901,-2.7392,-2.7896,-2.8034,-2.8323,-2.8662,-2.8298,-2.8649,-2.9528,-2.8687,-2.8512,-2.885,-2.8335,-2.8021,-2.7846,-2.7329,-2.7115,-2.7052,-2.665,-2.6499,-2.6499,-2.6499,-2.6499,-2.6499,-2.6499,-2.6499,-2.6499,-2.6499,-2.6499,-2.6499,-2.6499,-2.6499,-2.6555,-2.6748,-2.6816,-2.685,-2.7061,-2.7604,-2.7979,-2.7799,-2.8293,-2.8369,-2.7144,-2.6098,-2.5553,-2.6094,-2.577,-2.5398,-2.5398,-2.4922,-2.4851,-2.5591,-2.5673,-2.5618,-2.5425,-2.5424,-2.5136,-2.4396,-2.4165,-2.3561,-2.2394,-2.2312,-2.2015,-2.1333,-2.1307,-2.1232,-2.1054,-2.1054,-2.1054,-2.1054,-2.1054,-2.1142,-2.132,-2.1707,-2.197,-1.9108,-1.9999,-2.0616,-2.0289,-2.0453,-2.0339,-1.897,-1.9011,-1.895,-1.7466,-1.7776,0.0,0.0,0.0,0.0,0.0,0.0,0.0,-2.4986,-2.5689,-2.6058,0.0,-2.5339,0.0,-2.6103,-2.6041,-2.5975,0.0,-2.5975,-2.5975,-2.5975,-2.6323,-2.6499,-2.6499,-2.6499,-2.6612,-2.6851,-2.7607,-2.816,-2.8461,-2.8725,-2.9001,-2.9302,-2.8988,-2.9202,-2.9754,0.0,-2.9026,-2.9264,-2.8662,-2.8461,-2.8411,-2.7858,-2.7494,-2.7278,-2.6964,-2.67,-2.6499,-2.6499,-2.6499,-2.6499,-2.6499,-2.6499,-2.6499,-2.6499,-2.6499,-2.6499,-2.6499,-2.6499,-2.6499,-2.6499,-2.6499,-2.6499,-2.6499,-2.685,-2.7162,-2.7162,-2.7571,-2.7584,-2.6531,-2.5781,-2.5293,-2.5229,-2.4991,-2.4686,-2.4421,-2.4047,-2.3901,-2.4323,-2.4979,-2.5147,-2.4467,-2.5007,-2.4951,-2.3884,-2.3767,-2.3462,-2.2698,-2.2644,-2.2393,-2.187,-2.1845,-2.1732,-2.1493,-2.1493,-2.1493,-2.1493,-2.1493,-2.1606,-2.1857,-2.2171,-2.2447,-1.9748,-2.0365,-2.0779,-2.0717,-2.0691,-2.0265,-1.8552,-1.8372,-1.8065,-1.6309,0.0,0.0,-1.5874,0.0,-1.9016,-2.0344,0.0,-2.3706,-2.4321,-2.5355,-2.5767,-2.502,-2.5401,-2.5946,-2.6449,-2.6499,-2.6499,-2.6499,-2.6499,-2.6499,-2.6499,-2.6499,-2.6524,-2.66,-2.66,-2.6901,-2.7494,-2.8448,-2.8925,-2.9013,-2.9553,-2.9792,-2.9792,-2.9792,-2.9792,-2.9792,-2.9792,0.0,-2.9754,-2.9252,-2.8963,-2.8838,-2.8323,-2.777,-2.7268,-2.7241,-2.6901,-2.6499,-2.6499,-2.6499,-2.6499,-2.6499,-2.6499,-2.6499,-2.6499,-2.6499,-2.6499,-2.6499,-2.6499,-2.6499,-2.6499,-2.6499,-2.6499,-2.6499,-2.6499,-2.6499,-2.6499,-2.6499,-2.6348,-2.5812,-2.5649,-2.5272,-2.428,-2.4054,-2.3803,-2.3195,-2.3108,-2.3108,-2.3108,-2.4266,-2.4582,-2.3245,-2.4295,-2.4553,-2.3215,-2.3108,-2.3108,-2.3108,-2.3108,-2.2895,-2.2447,-2.2422,-2.2196,-2.1719,-2.1707,-2.1707,-2.1707,-2.1707,-2.1945,-2.2422,-2.2422,-2.2644,-2.0264,-2.0955,-2.1257,-2.0805,-2.0691,-2.0243,-1.8441,-1.7654,0.0,0.0,0.0,-1.5245,-1.502,-1.6563,0.0,-1.9645,0.0,0.0,0.0,0.0,-2.5378,0.0,0.0,0.0,0.0,0.0,0.0,0.0,0.0,-2.6499,-2.6499,-2.6499,-2.67,-2.7165,-2.7178,-2.762,-2.8599,-2.88,-2.9126,-2.9641,-2.9741,-2.9792,-2.9792,-2.9792,-2.9792,-2.9792,-2.9792,0.0,-2.9779,-2.9679,-2.9365,-2.8838,-2.8323,-2.777,-2.7266,-2.6801,-2.6575,-2.6499,-2.6499,-2.6499,-2.6499,-2.6499,-2.6499,-2.6499,-2.6499,-2.6499,-2.6499,-2.6499,-2.6499,-2.6499,-2.6499,-2.6499,-2.6499,-2.6499,-2.6499,-2.6499,-2.6499,-2.6499,-2.6461,-2.6361,-2.5925,-2.5398,-2.4782,-2.4305,-2.3803,-2.3195,-2.3108,-2.3108,-2.3108,-2.3335,-2.3395,-2.3138,-2.3335,-2.3382,-2.3138,-2.3108,-2.3108,-2.3108,-2.3108,-2.3058,-2.297,-2.2957,-2.292,-2.2819,-2.2819,-2.2819,-2.2819,-2.2819,-2.2869,-2.2957,-2.2957,-2.3007,-2.039,-2.1094,-2.1355,-2.083,-2.0691,-2.0167,-1.805,0.0,0.0,0.0,0.0,-1.4064,-1.3361,0.0,0.0,0.0,0.0,0.0,0.0,0.0,0.0,0.0,0.0,0.0,0.0,0.0,0.0,0.0,0.0,-2.6499,-2.6499,-2.6499,-2.6612,-2.6889,-2.7419,-2.7959,-2.8499,-2.9089,-2.9515,-2.9792,-2.9792,-2.9792,-2.9792,-2.9792,-2.9792,-2.9792,-2.9792,0.0,-2.9792,-2.9792,-2.9453,-2.8863,-2.8599,-2.8021,-2.7291,-2.7014,-2.6738,-2.6499,-2.6499,-2.6499,-2.6499,-2.6499,-2.6499,-2.6499,-2.6499,-2.6499,-2.6499,-2.6499,-2.6499,-2.6499,-2.6499,-2.6499,-2.6499,-2.6499,-2.6499,-2.6499,-2.6499,-2.6499,-2.6499,-2.6499,-2.6273,-2.5787,-2.4958,-2.4607,-2.413,-2.3233,-2.3108,-2.3108,-2.3108,-2.3108,-2.3108,-2.3108,-2.3484,-2.356,-2.3138,-2.3108,-2.3108,-2.3108,-2.3108,-2.3108,-2.3108,-2.3108,-2.3108,-2.3108,-2.3108,-2.3108,-2.3108,-2.3108,-2.3108,-2.3108,-2.3108,-2.3108,-2.0239,-2.0918,-2.1232,-2.0805,-2.0515,-1.9826,-1.7787,-1.6441,0.0,0.0,0.0,-1.308,-1.2179,0.0,0.0,0.0,0.0,0.0,0.0,0.0,0.0,0.0,0.0,0.0,0.0,0.0,0.0,0.0,0.0,0.0,-2.6499,-2.6499,-2.6549,-2.6663,-2.7595,-2.816,-2.8285,-2.9289,-2.9792,-2.9792,-2.9792,-2.9792,-2.9792,-2.9792,-2.9792,-2.9792,-2.9792,0.0,0.0,-2.9654,-2.9264,-2.87,-2.8587,-2.7971,-2.714,-2.714,-2.6864,-2.6499,-2.6499,-2.6499,-2.6499,-2.6499,-2.6499,-2.6499,-2.6499,-2.6499,-2.6499,-2.6499,-2.6499,-2.6499,-2.6499,-2.6499,-2.6499,-2.6499,-2.6499,-2.6499,-2.6499,-2.6499,-2.6499,-2.6499,-2.6499,-2.6185,-2.5159,-2.4863,-2.4449,-2.3434,-2.3183,-2.3108,-2.3108,-2.3108,-2.3108,-2.3108,-2.3649,-2.3796,-2.3155,-2.3108,-2.3108,-2.3108,-2.3108,-2.3108,-2.3108,-2.3108,-2.3108,-2.3108,-2.3108,-2.3108,-2.3108,-2.3108,-2.3108,-2.3108,-2.3108,-2.3108,-1.9723,-2.0327,-2.0754,-2.0704,-1.9911,-1.8911,-1.7965,0.0,0.0,0.0,-1.2814,-1.2119,-1.2624,0.0,0.0,0.0,0.0,0.0,0.0,0.0,0.0,0.0,0.0,0.0,0.0,0.0,0.0,0.0,0.0,0.0,-2.6499,-2.6499,-2.6725,-2.7228,-2.7795,-2.8348,-2.8813,-2.9478,-2.9792,-2.9792,-2.9792,-2.9792,-2.9792,-2.9792,-2.9792,-2.9792,-2.9792,0.0,0.0,-2.9227,-2.865,-2.8134,-2.7632,-2.7102,-2.6562,-2.6562,-2.6537,-2.6499,-2.6499,-2.6499,-2.6499,-2.6499,-2.6499,-2.6499,-2.6499,-2.6499,-2.6499,-2.6499,-2.6499,-2.6499,-2.6499,-2.6499,-2.6499,-2.6499,-2.6499,-2.6499,-2.6499,-2.6499,-2.6499,-2.6499,-2.6499,-2.6298,-2.5636,-2.5134,-2.4587,-2.4017,-2.3446,-2.3108,-2.3108,-2.3108,-2.3108,-2.3108,-2.3168,-2.3198,-2.3108,-2.3108,-2.3108,-2.3108,-2.3108,-2.3108,-2.3108,-2.3108,-2.3108,-2.3108,-2.3108,-2.3108,-2.3108,-2.3108,-2.3108,-2.3108,-2.3108,-2.3108,-1.9095,-1.9987,-2.0603,-2.0264,-1.9572,-1.8784,-1.798,0.0,0.0,-1.3856,-1.2732,-1.188,-1.216,-1.2759,-1.3795,0.0,-1.587,0.0,0.0,0.0,0.0,0.0,0.0,0.0,0.0,0.0,0.0,0.0,0.0,0.0,-2.6499,-2.6499,-2.66,-2.6813,-2.7318,-2.7871,-2.8423,-2.8988,-2.9453,-2.9792,-2.9792,-2.9792,-2.9792,-2.9792,-2.9792,-2.9779,-2.9428,0.0,0.0,-2.8662,-2.8109,-2.7595,-2.7369,-2.6977,-2.6499,-2.6499,-2.6499,-2.6499,-2.6499,-2.6499,-2.6499,-2.6499,-2.6499,-2.6499,-2.6499,-2.6499,-2.6499,-2.6499,-2.6499,-2.6499,-2.6499,-2.6499,-2.6499,-2.6499,-2.6499,-2.6499,-2.6499,-2.6499,-2.6499,-2.6499,-2.6499,-2.6311,-2.5699,-2.5423,-2.5109,-2.4569,-2.4017,-2.3653,-2.3653,-2.3321,-2.3108,-2.3108,-2.3108,-2.3108,-2.3108,-2.3108,-2.3108,-2.3108,-2.3108,-2.3108,-2.3108,-2.3108,-2.3108,-2.3108,-2.3108,-2.3108,-2.3108,-2.3108,-2.3108,-2.3108,-2.3108,-2.3108,-1.8265,-1.9221,-1.9862,-1.9434,-1.9042,-1.856,0.0,0.0,-1.4309,-1.3882,-1.2732,-1.1805,-1.1805,-1.2355,-1.325,-1.4586,-1.5081,-1.6058,-1.8268,0.0,0.0,0.0,0.0,0.0,0.0,0.0,0.0,0.0,0.0,0.0,-2.6499,-2.6499,-2.6499,-2.6499,-2.7027,-2.7544,-2.8097,-2.8612,-2.9176,-2.9792,-2.9792,-2.9704,-2.9528,-2.9528,-2.9453,-2.9264,-2.8863,0.0,0.0,-2.8084,-2.7632,-2.7268,-2.714,-2.6839,-2.6499,-2.6499,-2.6499,-2.6499,-2.6499,-2.6499,-2.6499,-2.6499,-2.6499,-2.6499,-2.6499,-2.6499,-2.6499,-2.6499,-2.6499,-2.6499,-2.6499,-2.6499,-2.6499,-2.6499,-2.6499,-2.6499,-2.6499,-2.6499,-2.6499,-2.6499,-2.6499,-2.6361,-2.5925,-2.5711,-2.5473,-2.5109,-2.4594,-2.4243,-2.4243,-2.374,-2.3358,-2.3358,-2.3208,-2.3108,-2.3108,-2.3108,-2.3108,-2.3108,-2.3108,-2.3108,-2.3108,-2.3108,-2.3108,-2.3108,-2.3108,-2.3108,-2.3108,-2.3108,-2.3108,-2.3108,-2.3108,-2.3108,-1.7197,-1.7802,-1.8229,-1.8229,-1.8212,-1.7996,0.0,-1.5965,-1.476,-1.3961,-1.2732,-1.1805,-1.1805,-1.2355,-1.325,-1.4586,-1.5476,-1.6463,0.0,0.0,0.0,0.0,0.0,0.0,0.0,0.0,0.0,0.0,0.0,0.0,-2.6499,-2.6499,-2.6499,-2.6499,-2.7027,-2.7544,-2.8097,-2.8612,-2.9176,-2.9792,-2.9792,-2.949,-2.89,-2.89,-2.8599,0.0,0.0,0.0,0.0,-2.7519,-2.7329,-2.7266,-2.6713,-2.6499,-2.6499,-2.6499,-2.6499,-2.6499,-2.6499,-2.6499,-2.6499,-2.6499,-2.6499,-2.6499,-2.6499,-2.6499,-2.6499,-2.6499,-2.6499,-2.6499,-2.6499,-2.6499,-2.6499,-2.6499,-2.6499,-2.6499,-2.6499,-2.6499,-2.6499,-2.6499,-2.6499,-2.6499,-2.6487,-2.6009,-2.5598,-2.5586,-2.5146,-2.4775,-2.4775,-2.433,-2.3991,-2.3991,-2.3446,-2.3108,-2.3108,-2.3108,-2.3108,-2.3108,-2.3108,-2.3108,-2.3108,-2.3108,-2.3108,-2.3108,-2.3108,-2.3108,-2.3108,-2.3108,-2.3108,-2.3108,-2.3108,-2.3108,-1.5859,-1.6286,-1.6396,-1.604,-1.6154,-1.613,-1.5337,-1.4725,-1.4098,-1.3277,-1.2403,-1.1805,-1.1805,-1.2355,-1.3385,-1.5199,-1.604,0.0,0.0,0.0,0.0,0.0,0.0,0.0,0.0,0.0,0.0,0.0,0.0,0.0,-2.6499,-2.6499,-2.6499,-2.6499,-2.6663,-2.7014,-2.7544,-2.772,-2.8273,-2.9202,-2.8812,-2.8737,-2.8875,-2.8499,-2.8273,0.0,0.0,0.0,0.0,-2.6977,-2.6751,-2.6738,-2.6562,-2.6499,-2.6499,-2.6499,-2.6499,-2.6499,-2.6499,-2.6499,-2.6499,-2.6499,-2.6499,-2.6499,-2.6499,-2.6499,-2.6499,-2.6499,-2.6499,-2.6499,-2.6499,-2.6499,-2.6499,-2.6499,-2.6499,-2.6499,-2.6499,-2.6499,-2.6499,-2.6499,-2.6499,-2.6499,-2.6499,-2.6336,-2.6223,-2.6223,-2.5711,-2.536,-2.536,-2.4556,-2.4004,-2.4004,-2.3446,-2.3108,-2.3108,-2.3108,-2.3108,-2.3108,-2.3108,-2.3108,-2.3108,-2.3108,-2.3108,-2.3108,-2.3108,-2.3108,-2.3108,-2.3108,-2.3108,-2.3078,-2.2537,-2.2567,0.0,-1.4787,-1.4689,-1.4337,-1.4591,-1.4773,-1.4137,-1.3864,-1.3549,-1.2942,-1.2265,-1.188,-1.213,-1.2729,-1.3673,-1.517,-1.6338,0.0,0.0,0.0,0.0,0.0,0.0,0.0,0.0,0.0,0.0,0.0,0.0,0.0,-2.6499,-2.6499,-2.6499,-2.6499,-2.6499,-2.6763,-2.7268,-2.7281,-2.7733,-2.8574,-2.8273,-2.8185,-2.8298,-2.7946,-2.7682,0.0,0.0,0.0,0.0,-2.6637,-2.6499,-2.6499,-2.6499,-2.6499,-2.6499,-2.6499,-2.6499,-2.6499,-2.6499,-2.6499,-2.6499,-2.6499,-2.6499,-2.6499,-2.6499,-2.6499,-2.6499,-2.6499,-2.6499,-2.6499,-2.6499,-2.6499,-2.6499,-2.6499,-2.6499,-2.6499,-2.6499,-2.6499,-2.6499,-2.6499,-2.6499,-2.6499,-2.6499,-2.6499,-2.6499,-2.6499,-2.6185,-2.585,-2.5624,-2.4845,-2.423,-2.4017,-2.3446,-2.3108,-2.3108,-2.3108,-2.3108,-2.3108,-2.3108,-2.3108,-2.3108,-2.3108,-2.3108,-2.3108,-2.3108,-2.3108,-2.3108,-2.3108,-2.2944,-2.2641,-2.2125,-2.2002,0.0,-1.319,-1.2973,-1.2973,-1.3391,-1.3733,-1.34,-1.3262,0.0,-1.2802,-1.2235,-1.2014,-1.2744,-1.3421,-1.4139,-1.496,0.0,0.0,0.0,0.0,0.0,0.0,0.0,0.0,0.0,0.0,0.0,0.0,0.0,0.0,-2.6499,-2.6499,-2.6499,-2.6499,-2.6499,-2.6738,-2.7253,-2.7218,-2.7507,-2.8047,-2.8009,-2.7745,-2.7281,-2.7278,-2.6977,0.0,0.0,0.0,0.0,-2.6499,-2.6499,-2.6499,-2.6499,-2.6499,-2.6499,-2.6499,-2.6499,-2.6499,-2.6499,-2.6499,-2.6499,-2.6499,-2.6499,-2.6499,-2.6499,-2.6499,-2.6499,-2.6499,-2.6499,-2.6499,-2.6499,-2.6499,-2.6499,-2.6499,-2.6499,-2.6499,-2.6499,-2.6499,-2.6499,-2.6499,-2.6499,-2.6499,-2.6499,-2.6499,-2.6499,-2.6499,-2.6499,-2.6298,-2.5724,-2.5197,-2.4682,-2.4167,-2.3534,-2.3158,-2.3158,-2.3133,-2.3108,-2.3108,-2.3108,-2.3108,-2.3108,-2.3108,-2.3108,-2.3108,-2.3108,-2.3108,-2.3108,-2.3035,-2.2628,-2.1908,-2.1784,-2.1313,-1.0062,0.0,-1.0684,-1.0684,-1.1351,-1.1911,0.0,-1.2031,-1.2434,0.0,0.0,-1.2164,-1.3346,-1.4109,-1.5261,0.0,0.0,0.0,0.0,0.0,0.0,0.0,0.0,0.0,0.0,0.0,0.0,0.0,0.0,-2.6499,-2.6499,-2.6499,-2.6499,-2.6499,-2.6499,-2.6562,-2.6688,-2.6688,-2.6964,-2.7469,-2.709,-2.704,-2.7304,-2.6889,-2.6612,0.0,0.0,0.0,-2.6499,-2.6499,-2.6499,-2.6499,-2.6499,-2.6499,-2.6499,-2.6499,-2.6499,-2.6499,-2.6499,-2.6499,-2.6499,-2.6499,-2.6499,-2.6499,-2.6499,-2.6499,-2.6499,-2.6499,-2.6499,-2.6499,-2.6499,-2.6499,-2.6499,-2.6499,-2.6499,-2.6499,-2.6499,-2.6499,-2.6499,-2.6499,-2.6499,-2.6499,-2.6499,-2.6499,-2.6499,-2.6499,-2.6499,-2.6449,-2.6311,-2.5762,-2.536,-2.5234,-2.4368,-2.3791,-2.3791,-2.3358,-2.3108,-2.3108,-2.3108,-2.3108,-2.3108,-2.3108,-2.3108,-2.3108,-2.3108,-2.3108,-2.3108,-2.2476,-2.2063,-2.1877,-2.0526,-2.0336,-0.8754,-0.9686,-1.0331,-1.0608,-1.108,-1.1474,-1.1415,0.0,0.0,0.0,0.0,0.0,-1.369,0.0,0.0,0.0,0.0,0.0,0.0,0.0,0.0,0.0,0.0,0.0,0.0,0.0,0.0,0.0,0.0,-2.6499,-2.6499,-2.6499,-2.628,-2.5838,-2.5804,-2.6025,-2.6499,-2.6499,-2.665,-2.6939,-2.6637,-2.6395,-2.6233,-2.5938,-2.5546,0.0,0.0,0.0,-2.5122,-2.5122,-2.5122,-2.517,-2.5616,-2.5804,-2.5873,-2.6349,-2.6499,-2.6499,-2.6499,-2.6499,-2.6499,-2.6499,-2.6499,-2.6499,-2.6499,-2.6499,-2.6499,-2.6499,-2.6499,-2.6499,-2.6499,-2.6499,-2.6499,-2.6499,-2.6499,-2.6499,-2.6499,-2.6499,-2.6499,-2.6499,-2.6499,-2.6499,-2.6499,-2.6499,-2.6499,-2.6499,-2.6499,-2.6399,-2.6135,-2.5787,-2.5498,-2.5272,-2.472,-2.4268,-2.4017,-2.3715,-2.3384,-2.312,-2.3108,-2.3108,-2.3108,-2.3108,-2.3108,-2.3108,-2.2732,-2.2537,-2.2537,-2.171,-2.1112,-2.0687,-1.9759,-1.954,-0.8399,-0.9791,-1.0933,-1.1362,-1.1588,-1.1766,-1.1965,0.0,0.0,0.0,0.0,0.0,0.0,0.0,0.0,0.0,0.0,0.0,0.0,0.0,0.0,0.0,0.0,0.0,0.0,0.0,0.0,0.0,0.0,-2.6418,-2.628,-2.628,-2.5804,-2.4791,-2.4779,-2.5182,-2.6013,-2.6047,-2.6047,-2.6047,-2.6047,-2.5581,-2.4779,-2.4779,-2.4301,-2.3514,0.0,0.0,-2.3514,-2.3514,-2.3514,-2.3588,-2.4445,-2.4779,-2.4886,-2.5908,-2.628,-2.628,-2.6465,-2.6499,-2.6499,-2.6499,-2.6499,-2.6499,-2.6499,-2.6499,-2.6499,-2.6499,-2.6499,-2.6499,-2.6499,-2.6499,-2.6499,-2.6499,-2.6499,-2.6499,-2.6499,-2.6499,-2.6499,-2.6499,-2.6499,-2.6499,-2.6499,-2.6499,-2.6499,-2.6499,-2.6499,-2.6311,-2.5787,-2.5724,-2.5561,-2.5121,-2.4996,-2.4757,-2.428,-2.4167,-2.3916,-2.3396,-2.3195,-2.3035,-2.2914,-2.2914,-2.2854,-2.272,-2.2063,-2.169,-2.169,-2.0814,-2.0053,-1.9404,-1.9271,-1.9052,-0.9137,-1.0561,-1.1362,-1.0946,-1.156,-1.2231,0.0,0.0,0.0,0.0,0.0,0.0,0.0,0.0,0.0,0.0,0.0,0.0,0.0,0.0,0.0,0.0,0.0,0.0,0.0,0.0,0.0,0.0,0.0,-2.6129,-2.5264,-2.5229,-2.4779,-2.377,-2.3745,-2.3806,-2.3963,-2.3963,-2.3963,-2.3963,-2.3963,-2.3891,-2.3745,-2.3745,-2.3672,-2.3514,0.0,-2.3514,-2.3514,-2.3514,-2.3514,-2.3514,-2.3672,-2.3745,-2.3854,-2.485,-2.5229,-2.5335,-2.6198,-2.6499,-2.6499,-2.6499,-2.6499,-2.6499,-2.6499,-2.6499,-2.6499,-2.6499,-2.6499,-2.6499,-2.6499,-2.6499,-2.6499,-2.6499,-2.6499,-2.6499,-2.6499,-2.6499,-2.6499,-2.6499,-2.6499,-2.6499,-2.6499,-2.6499,-2.6499,-2.6499,-2.6499,-2.6461,-2.6373,-2.6361,-2.6336,-2.6248,-2.5774,-2.5435,-2.536,-2.4946,-2.4625,-2.4537,-2.3634,-2.2793,-2.2094,-2.2063,-2.1741,-2.1005,-2.0878,-2.0814,-2.0814,-1.9911,-1.9598,-1.9797,-1.9038,-1.9062,-0.86,-1.0056,-1.1184,-1.1535,-1.2693,-1.3725,0.0,0.0,0.0,0.0,0.0,0.0,0.0,0.0,0.0,0.0,0.0,0.0,0.0,0.0,0.0,0.0,0.0,0.0,0.0,0.0,0.0,0.0,0.0,0.0,-2.5004,-2.448,-2.3745,-2.2739,-2.2702,-2.244,-2.1935,-2.1935,-2.2451,-2.3514,-2.3514,-2.322,-2.2702,-2.2702,-2.2403,-2.1935,0.0,-2.1935,-2.1935,-2.1935,-2.1935,-2.1962,-2.2478,-2.2702,-2.2813,-2.3818,-2.4528,-2.5087,-2.5511,-2.606,-2.6499,-2.6499,-2.6499,-2.6499,-2.6499,-2.6499,-2.6499,-2.6499,-2.6499,-2.6499,-2.6499,-2.6499,-2.6499,-2.6499,-2.6499,-2.6499,-2.6499,-2.6499,-2.6499,-2.6499,-2.6499,-2.6499,-2.6499,-2.6499,-2.6499,-2.6499,-2.6499,-2.6499,-2.6499,-2.6499,-2.6499,-2.6499,-2.6248,-2.5971,-2.5624,-2.5372,-2.4775,-2.3729,-2.3152,-2.2395,-2.125,-2.1207,-2.1005,-2.0623,-2.0139,-1.989,-1.989,-1.9011,-1.8819,-1.9208,-1.8799,-1.9056,-0.8148,-0.9479,-1.0845,-1.2237,0.0,0.0,0.0,0.0,0.0,0.0,0.0,0.0,0.0,0.0,0.0,0.0,0.0,0.0,0.0,0.0,0.0,0.0,0.0,0.0,0.0,0.0,0.0,0.0,0.0,0.0,-2.4671,-2.3708,-2.2702,-2.1697,-2.1659,-2.1336,-2.0605,-2.0605,-2.1346,-2.2824,-2.2824,-2.2414,-2.1659,-2.1659,-2.1298,-2.0605,-2.0605,-2.0605,-2.0605,-2.0605,-2.0605,-2.0673,-2.1403,-2.1811,-2.2103,-2.285,-2.3781,-2.4671,-2.4933,-2.5511,-2.6198,-2.6418,-2.6499,-2.6452,-2.6211,-2.6129,-2.6129,-2.6129,-2.6129,-2.6198,-2.6452,-2.6499,-2.6499,-2.6499,-2.6499,-2.6499,-2.6499,-2.6499,-2.6499,-2.6499,-2.6499,-2.6499,-2.6499,-2.6499,-2.6499,-2.6499,-2.6499,-2.6499,-2.6499,-2.6499,-2.6499,-2.6499,-2.6499,-2.6311,-2.5837,-2.5585,-2.4695,-2.2848,-2.2728,-2.201,-2.051,-2.0356,-2.0204,-2.0009,-1.9342,-1.9029,-1.9132,-1.8486,-1.8393,-1.89,-1.89,-1.9299,-0.8598,-0.9491,-1.047,-1.2597,0.0,0.0,0.0,0.0,0.0,0.0,0.0,0.0,0.0,0.0,0.0,0.0,0.0,0.0,0.0,0.0,0.0,0.0,0.0,0.0,0.0,0.0,0.0,0.0,0.0,0.0,-2.3661,-2.2664,-2.1669,-2.0712,-2.0712,-2.0673,-2.0605,-2.0605,-2.0673,-2.0828,-2.0828,-2.0789,-2.0712,-2.0712,-2.0673,-2.0605,-2.0605,-2.0605,-2.0605,-2.0605,-2.0605,-2.0605,-2.0673,-2.1221,-2.2027,-2.2065,-2.2739,-2.3745,-2.4671,-2.5052,-2.5264,-2.6198,-2.6499,-2.6314,-2.5406,-2.5123,-2.5123,-2.5123,-2.5123,-2.5335,-2.6245,-2.6499,-2.6499,-2.6499,-2.6499,-2.6499,-2.6499,-2.6499,-2.6499,-2.6499,-2.6499,-2.6499,-2.6499,-2.6499,-2.6499,-2.6499,-2.6499,-2.6499,-2.6499,-2.6499,-2.6499,-2.6499,-2.6499,-2.6474,-2.6436,-2.5568,-2.4425,-2.2977,-2.2754,-2.1868,-2.0031,-1.9586,-1.9011,-1.8202,-1.8144,-1.8262,-1.8654,-1.8594,-1.8978,-1.9824,-1.9824,-2.0078,-0.8236,-0.9491,-1.0858,-1.2722,0.0,0.0,0.0,0.0,0.0,0.0,0.0,0.0,0.0,0.0,0.0,0.0,0.0,0.0,0.0,0.0,0.0,0.0,0.0,0.0,0.0,0.0,0.0,0.0,0.0,0.0,-2.259,-2.1631,-2.0972,-2.0605,-2.0605,-2.0605,-2.0605,-2.0605,-2.0605,-2.0605,-2.0605,-2.0605,-2.0605,-2.0605,-2.0605,-2.0605,-2.0605,-2.0605,-2.0605,-2.0605,-2.0605,-2.0605,-2.0605,-2.0828,-2.1116,-2.1116,-2.1745,-2.2627,-2.2999,-2.3551,-2.412,-2.4516,-2.4624,-2.4541,-2.4181,-2.4072,-2.4072,-2.4072,-2.4528,-2.5229,-2.6245,-2.6499,-2.6499,-2.6499,-2.6499,-2.6499,-2.6499,-2.6499,-2.6499,-2.6499,-2.6499,-2.6499,-2.6499,-2.6499,-2.6499,-2.6499,-2.6499,-2.6499,-2.6499,-2.6499,-2.6499,-2.6499,-2.5955,-2.5581,-2.5581,-2.4671,-2.3557,-2.2416,-2.2076,-2.1188,-1.9606,-1.9093,-1.8864,-1.8799,-1.8281,-1.8213,-1.8598,-1.8598,-1.8773,-1.9095,-1.9668,-1.9863,-0.8087,-0.9479,-1.1057,0.0,0.0,0.0,0.0,0.0,0.0,0.0,0.0,0.0,0.0,0.0,0.0,0.0,0.0,0.0,0.0,0.0,0.0,0.0,0.0,0.0,0.0,0.0,0.0,0.0,0.0,0.0,0.0,-2.1116,-2.0605,-2.0605,-2.0605,-2.0605,-2.0605,-2.0605,-2.0605,-2.0605,-2.0605,-2.0605,-2.0605,-2.0605,-2.0605,-2.0605,-2.0605,-2.0605,-2.0605,-2.0605,-2.0605,-2.0605,-2.0605,-2.0605,-2.0605,-2.0605,-2.1011,-2.1593,-2.1886,-2.244,-2.3073,-2.3404,-2.3514,-2.3441,-2.311,-2.3257,-2.3441,-2.311,-2.3963,-2.5158,-2.5838,-2.6267,-2.6418,-2.6094,-2.628,-2.6499,-2.6499,-2.6499,-2.6499,-2.6499,-2.6499,-2.6499,-2.6499,-2.6499,-2.6499,-2.6499,-2.6499,-2.6499,-2.6499,-2.6499,-2.6383,-2.606,-2.5406,-2.4862,-2.4564,-2.3588,-2.2739,-2.2027,-2.1455,-2.065,-1.9539,-1.8909,-1.8744,-1.9072,-1.8379,-1.8213,-1.8598,-1.8598,-1.8676,-1.8857,-1.9443,-1.9561,-0.8311,-0.9491,0.0,0.0,0.0,0.0,0.0,0.0,0.0,0.0,0.0,0.0,0.0,0.0,0.0,0.0,0.0,0.0,0.0,0.0,0.0,0.0,0.0,0.0,0.0,0.0,0.0,0.0,0.0,0.0,0.0,-2.1106,-2.0595,-2.0595,-2.0595,-2.0595,-2.0595,-2.0595,-2.0595,-2.0595,-2.0605,-2.0605,-2.0605,-2.0605,-2.0605,-2.0605,-2.0605,-2.0605,-2.0605,-2.0605,-2.0605,-2.0605,-2.0605,-2.0605,-2.0605,-2.0605,-2.0605,-2.0712,-2.1659,-2.1989,-2.214,-2.3147,-2.3478,-2.3294,-2.2291,-2.2664,-2.3257,-2.2253,-2.3441,-2.4969,-2.4969,-2.5734,-2.6233,-2.5264,-2.5769,-2.6499,-2.6499,-2.6499,-2.6499,-2.6499,-2.6499,-2.6499,-2.6499,-2.6499,-2.6499,-2.6499,-2.6499,-2.6499,-2.6499,-2.6499,-2.6094,-2.5075,-2.4981,-2.4564,-2.3551,-2.2553,-2.1989,-2.1989,-2.1116,-2.041,-1.9941,-1.9065,-1.8617,-1.8617,-1.8232,-1.8188,-1.8607,-1.8598,-1.8857,-1.9277,-1.9287,-1.9287,-0.8862,0.0,0.0,0.0,0.0,0.0,0.0,0.0,0.0,0.0,0.0,0.0,0.0,0.0,0.0,0.0,0.0,0.0,0.0,0.0,0.0,0.0,0.0,0.0,0.0,0.0,0.0,0.0,0.0,0.0,0.0,-1.9844,-1.9705,-1.9705,-1.9705,-1.9705,-1.9705,-1.9961,-2.0107,-2.0107,-2.0458,-2.0605,-2.0605,-2.0605,-2.0605,-2.0605,-2.0605,-2.0605,-2.0605,-2.0605,-2.0605,-2.0605,-2.0605,-2.0605,-2.0605,-2.0605,-2.0605,-2.0644,-2.0934,-2.1011,-2.1039,-2.1375,-2.1451,-2.1413,-2.1116,-2.1231,-2.1423,-2.1078,-2.2414,-2.3781,-2.3073,-2.4684,-2.6418,-2.6129,-2.628,-2.6499,-2.6499,-2.6499,-2.6499,-2.6499,-2.6499,-2.6499,-2.6499,-2.6499,-2.6499,-2.6499,-2.6499,-2.6245,-2.5558,-2.5441,-2.5075,-2.4036,-2.3294,-2.2776,-2.2478,-2.1555,-2.1011,-2.1011,-2.075,-2.0546,-2.0419,-1.9834,-1.9678,-1.999,-1.8975,-1.8627,-1.9092,-1.8754,-1.852,-1.8408,-1.9004,-1.8965,-1.0233,0.0,0.0,0.0,0.0,0.0,0.0,0.0,0.0,0.0,0.0,0.0,0.0,0.0,0.0,0.0,0.0,0.0,0.0,0.0,0.0,0.0,0.0,0.0,0.0,0.0,0.0,0.0,0.0,0.0,0.0,-1.9287,-1.9287,-1.9287,-1.9287,-1.9287,-1.9287,-1.9541,-1.9668,-1.9668,-1.9969,-2.0184,-2.0312,-2.0527,-2.0605,-2.0605,-2.0605,-2.0605,-2.0605,-2.0605,-2.0605,-2.0605,-2.0605,-2.0605,-2.0605,-2.0605,-2.0605,-2.0605,-2.0605,-2.0605,-2.0605,-2.0605,-2.0605,-2.0605,-2.0605,-2.0857,-2.1078,-2.0712,-2.201,-2.3257,-2.2253,-2.3649,-2.5394,-2.5804,-2.6198,-2.6499,-2.6499,-2.6499,-2.6499,-2.6499,-2.6499,-2.6499,-2.6499,-2.6164,-2.5908,-2.5908,-2.5791,-2.5687,-2.5616,-2.4886,-2.4192,-2.3551,-2.2962,-2.2291,-2.1517,-2.0934,-2.0605,-2.0605,-2.0605,-2.0605,-2.0605,-2.0146,-2.0039,-2.0341,-1.9173,-1.8734,-1.9023,-1.8594,-1.8252,-1.8018,-1.8535,-1.8506,0.0,0.0,0.0,0.0,0.0,0.0,0.0,0.0,0.0,0.0,0.0,0.0,0.0,0.0,0.0,0.0,0.0,0.0,0.0,0.0,0.0,0.0,0.0,0.0,0.0,0.0,0.0,0.0,0.0,0.0,0.0,-1.917,-1.917,-1.917,-1.917,-1.917,-1.917,-1.9209,-1.9228,-1.9228,-1.9268,-1.9482,-1.9873,-2.0341,-2.0566,-2.0605,-2.0605,-2.0605,-2.0605,-2.0605,-2.0605,-2.0605,-2.0605,-2.0605,-2.0605,-2.0605,-2.0605,-2.0605,-2.0605,-2.0605,-2.0605,-2.0605,-2.0605,-2.0605,-2.0605,-2.1193,-2.1697,-2.0828,-2.1935,-2.3147,-2.2253,-2.2739,-2.3745,-2.4636,-2.5546,-2.6233,-2.6233,-2.6233,-2.6233,-2.6233,-2.6233,-2.6233,-2.6233,-2.5476,-2.4898,-2.4933,-2.4624,-2.4838,-2.6082,-2.4624,-2.3441,-2.3257,-2.322,-2.2526,-2.075,-2.0605,-2.0605,-2.0605,-2.0605,-2.0605,-2.0605,-2.0185,-1.9971,-1.9971,-1.9095,-1.8656,-1.8656,-1.8232,-1.8008,-1.8008,-1.8008,-1.8008,0.0,0.0,0.0,0.0,0.0,0.0,0.0,0.0,0.0,0.0,0.0,0.0,0.0,0.0,0.0,0.0,0.0,0.0,0.0,0.0,0.0,0.0,0.0,0.0,0.0,0.0,0.0,0.0,0.0,0.0,-1.8281,-1.8281,-1.8281,-1.8281,-1.8281,-1.8281,-1.8281,-1.8578,-1.8744,0.0,-1.9121,-1.9336,-1.9434,-1.9863,-2.0244,-2.0605,-2.0605,-2.0605,-2.0605,-2.0605,-2.0605,-2.0605,-2.0605,-2.0605,-2.0605,-2.0605,-2.0605,-2.0605,-2.0605,-2.0605,-2.0605,-2.0605,-2.0605,-2.0605,-2.0605,-2.075,-2.0857,-2.0644,-2.1451,-2.2253,-2.2065,-2.2739,-2.3551,-2.3781,-2.4,-2.4145,-2.4145,-2.4145,-2.4145,-2.4145,-2.4145,-2.4145,-2.4145,-2.3963,-2.4,-2.4516,-2.4108,-2.3818,-2.4108,-2.377,-2.2925,-2.1385,-2.1231,-2.1049,-2.0644,-2.0605,-2.0605,-2.0605,-2.0605,-2.0605,-2.0605,-2.0517,-2.0458,-2.0458,-1.958,-1.915,-1.915,-1.8379,-1.8008,-1.8008,-1.8008,-1.8008,0.0,0.0,0.0,0.0,0.0,0.0,0.0,0.0,0.0,0.0,0.0,0.0,0.0,0.0,0.0,0.0,0.0,0.0,0.0,0.0,0.0,0.0,0.0,0.0,0.0,0.0,0.0,0.0,0.0,-1.8008,-1.8008,-1.8008,-1.8008,-1.8008,-1.8008,-1.8008,-1.8008,-1.8223,-1.8295,-1.8305,-1.8564,-1.8779,-1.8994,-1.9424,-1.9853,-2.0254,-2.0254,-2.041,-2.0605,-2.0605,-2.0605,-2.0605,-2.0605,-2.0605,-2.0605,-2.0605,-2.0605,-2.0605,-2.0605,-2.0605,-2.0605,-2.0605,-2.0605,-2.0605,-2.0605,-2.0605,-2.0605,-2.0605,-2.0934,-2.1336,-2.1336,-2.1707,-2.2124,-2.2124,-2.2824,-2.3514,-2.3514,-2.3514,-2.3514,-2.3514,-2.3514,-2.3514,-2.3514,-2.322,-2.2925,-2.2675,-2.2339,-2.2124,-2.2124,-2.2124,-2.1718,-2.0722,-2.0605,-2.0605,-2.0605,-2.0605,-2.0605,-2.0605,-2.0605,-2.0605,-2.0605,-2.0605,-2.0605,-2.0605,-1.9727,-1.9287,-1.9287,-1.8428,-1.8008,-1.8008,-1.8008,-1.8008,0.0,0.0,0.0,0.0,0.0,0.0,0.0,0.0,0.0,0.0,0.0,0.0,0.0,0.0,0.0,0.0,0.0,0.0,0.0,0.0,0.0,0.0,0.0,0.0,0.0,0.0,0.0,0.0,0.0,-1.8008,-1.8008,-1.8008,-1.8008,-1.8008,-1.8008,-1.8008,-1.8008,-1.8008,-1.8008,-1.8008,-1.8008,-1.8159,-1.851,-1.8906,-1.9336,-1.9814,-1.9883,-2.0117,-2.0498,-2.0576,-2.0605,-2.0605,-2.0605,-2.0605,-2.0605,-2.0605,-2.0605,-2.0605,-2.0605,-2.0605,-2.0605,-2.0605,-2.0605,-2.0605,-2.0605,-2.0605,-2.0605,-2.0605,-2.0605,-2.0605,-2.0605,-2.0605,-2.0605,-2.0605,-2.1821,-2.301,-2.301,-2.301,-2.301,-2.301,-2.301,-2.301,-2.301,-2.2526,-2.1821,-2.075,-2.0605,-2.0605,-2.0605,-2.0605,-2.0605,-2.0605,-2.0605,-2.0605,-2.0605,-2.0605,-2.0605,-2.0605,-2.0605,-2.0605,-2.0605,-2.0605,-2.0566,-2.0488,-1.9687,-1.9287,-1.9287,-1.8428,-1.8008,-1.8008,-1.8008,-1.8008,0.0,0.0,0.0,0.0,0.0,0.0,0.0,0.0,0.0,0.0,0.0,0.0,0.0,0.0,0.0,0.0,0.0,0.0,0.0,0.0,0.0,0.0,0.0,0.0,0.0,0.0,0.0,0.0,-1.8008,-1.8008,-1.8008,-1.8008,-1.8008,-1.8008,-1.8008,-1.8008,-1.8008,-1.8008,-1.8008,-1.8008,-1.8008,-1.8037,-1.8096,-1.8154,-1.8613,-1.9394,-1.9756,-1.9951,-2.0029,-2.0449,-2.0605,-2.0605,-2.0605,-2.0605,-2.0605,-2.0605,-2.0605,-2.0605,-2.0605,-2.0605,-2.0605,-2.0605,-2.0605,-2.0605,-2.0605,-2.0605,-2.0605,-2.0605,-2.0605,-2.0605,-2.0605,-2.0605,-2.0605,-2.0605,-2.0789,-2.0972,-2.0972,-2.0972,-2.0972,-2.0972,-2.0972,-2.0972,-2.0972,-2.0895,-2.0789,-2.0644,-2.0605,-2.0605,-2.0605,-2.0605,-2.0605,-2.0605,-2.0605,-2.0605,-2.0605,-2.0605,-2.0605,-2.0605,-2.0605,-2.0605,-2.0605,-2.0605,-2.0429,-2.001,-1.9531,-1.9287,-1.9287,-1.8428,-1.8008,-1.8008,-1.8008,-1.8008,0.0,0.0,0.0,0.0,0.0,0.0,0.0,0.0,0.0,0.0,0.0,0.0,0.0,0.0,0.0,0.0,0.0,0.0,0.0,0.0,0.0,0.0,0.0,0.0,0.0,0.0,0.0,0.0,-1.8008,-1.8008,-1.8008,-1.8008,-1.8008,-1.8008,-1.8008,-1.8008,-1.8008,-1.8008,-1.8008,-1.8008,-1.8008,-1.8008,-1.8008,-1.8008,-1.834,-1.8936,-1.9085,-1.9336,-1.96,-2.0019,-2.0195,-2.0225,-2.0507,-2.0605,-2.0605,-2.0605,-2.0605,-2.0605,-2.0605,-2.0605,-2.0605,-2.0605,-2.0605,-2.0605,-2.0605,-2.0605,-2.0605,-2.0605,-2.0605,-2.0605,-2.0605,-2.0605,-2.0605,-2.0605,-2.0605,-2.0605,-2.0605,-2.0605,-2.0605,-2.0605,-2.0605,-2.0605,-2.0605,-2.0605,-2.0605,-2.0605,-2.0605,-2.0605,-2.0605,-2.0605,-2.0605,-2.0605,-2.0605,-2.0605,-2.0605,-2.0605,-2.0605,-2.0605,-2.0605,-2.0605,-2.0605,-2.0605,-2.0517,-2.0283,-1.9629,-1.917,-1.8926,-1.8311,-1.8008,-1.8008,-1.8008,-1.8008,0.0,0.0,0.0,0.0,0.0,0.0,0.0,0.0,0.0,0.0,0.0,0.0,0.0,0.0,0.0,0.0,0.0,0.0,0.0,0.0,0.0,0.0,0.0,0.0,0.0,0.0,0.0,0.0,-1.8008,-1.8008,-1.8008,-1.8008,-1.8008,-1.8008,-1.8008,-1.8008,-1.8008,-1.8008,-1.8008,-1.8008,-1.8008,-1.8008,-1.8008,-1.8008,-1.8149,-1.8451,-1.8559,-1.8783,-1.915,-1.958,-1.9814,-1.9941,-2.0273,-2.0507,-2.0605,-2.0605,-2.0605,-2.0605,-2.0605,-2.0605,-2.0605,-2.0605,-2.0605,-2.0605,-2.0605,-2.0605,-2.0605,-2.0605,-2.0605,-2.0605,-2.0605,-2.0605,-2.0605,-2.0605,-2.0605,-2.0605,-2.0605,-2.0605,-2.0605,-2.0605,-2.0605,-2.0605,-2.0605,-2.0605,-2.0605,-2.0605,-2.0605,-2.0605,-2.0605,-2.0605,-2.0605,-2.0605,-2.0605,-2.0605,-2.0605,-2.0605,-2.0605,-2.0605,-2.0605,-2.0605,-2.0605,-2.0605,-2.0546,-2.0439,-1.9668,-1.9131,-1.8763,-1.8237,-1.8008,-1.8008,-1.8008,-1.8008,0.0,0.0,0.0,0.0,0.0,0.0,0.0,0.0,0.0,0.0,0.0,0.0,0.0,0.0,0.0,0.0,0.0,0.0,0.0,0.0,0.0,0.0,0.0,0.0,0.0,0.0,0.0,0.0,-1.8008,-1.8008,-1.8008,-1.8008,-1.8008,-1.8008,-1.8008,-1.8008,-1.8008,-1.8008,-1.8008,-1.8008,-1.8008,-1.8008,-1.8008,-1.8008,-1.8018,-1.8066,-1.8432,-1.8617,-1.8666,-1.9141,-1.9561,-1.9912,-1.9941,-2.0195,-2.0605,-2.0605,-2.0605,-2.0605,-2.0605,-2.0605,-2.0605,-2.0605,-2.0605,-2.0605,-2.0605,-2.0605,-2.0605,-2.0605,-2.0605,-2.0605,-2.0605,-2.0605,-2.0605,-2.0605,-2.0605,-2.0605,-2.0605,-2.0605,-2.0605,-2.0605,-2.0605,-2.0605,-2.0605,-2.0605,-2.0605,-2.0605,-2.0605,-2.0605,-2.0605,-2.0605,-2.0605,-2.0605,-2.0605,-2.0605,-2.0605,-2.0605,-2.0605,-2.0605,-2.0605,-2.0605,-2.0605,-2.0605,-2.041,-1.9961,-1.9512,-1.9277,-1.9248,-1.8418,-1.8008,-1.8008,-1.8008,-1.8008,0.0,0.0,0.0,0.0,0.0,0.0,0.0,0.0,0.0,0.0,0.0,0.0,0.0,0.0,0.0,0.0,0.0,0.0,0.0,0.0,0.0,0.0,0.0,0.0,0.0,0.0,0.0,0.0,0.0,-1.7155,-1.7155,-1.7155,-1.7155,-1.7155,-1.7461,-1.7734,-1.8008,-1.8008,-1.8008,-1.8008,-1.8008,-1.8008,-1.8008,-1.8008,-1.8008,-1.8018,-1.813,-1.8198,-1.8237,-1.8656,-1.8919,-1.9085,-1.9404,-1.9609,-1.9783,-1.9783,-1.9922,-2.0146,-2.0146,-2.037,-2.0605,-2.0605,-2.0605,-2.0605,-2.0605,-2.0605,-2.0605,-2.0605,-2.0605,-2.0605,-2.0605,-2.0605,-2.0605,-2.0605,-2.0605,-2.0605,-2.0605,-2.0605,-2.0605,-2.0605,-2.0605,-2.0605,-2.0605,-2.0605,-2.0605,-2.0605,-2.0605,-2.0605,-2.0605,-2.0605,-2.0605,-2.0605,-2.0605,-2.0605,-2.0605,-2.0605,-2.0605,-2.0605,-2.0605,-2.0605,-2.0605,-2.0605,-2.04,-1.9922,-1.9502,-1.915,-1.8867,-1.8291,-1.8008,-1.8008,-1.8008,-1.8008,0.0,0.0,0.0,0.0,0.0,0.0,0.0,0.0,0.0,0.0,0.0,0.0,0.0,0.0,0.0,0.0,0.0,0.0,0.0,0.0,0.0,0.0,0.0,0.0,0.0,0.0,0.0,0.0,0.0,0.0,-1.6697,-1.6697,-1.6697,-1.6697,-1.7158,-1.7519,-1.7803,-1.7939,-1.8008,-1.8008,-1.8008,-1.8008,-1.8008,-1.8008,-1.8008,-1.8008,-1.8008,-1.8008,-1.8037,-1.8276,-1.8481,-1.8627,-1.8955,-1.916,-1.9287,-1.9287,-1.9463,-1.9707,-1.9707,-1.9893,-2.0175,-2.0175,-2.0175,-2.0175,-2.0175,-2.0243,-2.0283,-2.0283,-2.042,-2.0556,-2.0332,-2.0312,-2.0381,-2.0566,-2.0605,-2.0605,-2.0605,-2.0605,-2.0605,-2.0605,-2.0605,-2.0605,-2.0605,-2.0605,-2.0605,-2.0605,-2.0605,-2.0605,-2.0605,-2.0605,-2.0605,-2.0605,-2.0605,-2.0605,-2.0605,-2.0605,-2.0605,-2.0605,-2.0605,-2.0605,-2.0605,-2.0605,-2.04,-1.9922,-1.9502,-1.9072,-1.8598,-1.8213,-1.8008,-1.8008,-1.8008,-1.8008,0.0,0.0,0.0,0.0,0.0,0.0,0.0,0.0,0.0,0.0,0.0,0.0,0.0,0.0,0.0,0.0,0.0,0.0,0.0,0.0,0.0,0.0,0.0,0.0,0.0,0.0,0.0,0.0,-1.6658,-1.6658,-1.6658,-1.6658,-1.6668,-1.6677,-1.7119,-1.7386,-1.7363,-1.7783,-1.7988,-1.7988,-1.8008,-1.8008,-1.8008,-1.8008,-1.8008,-1.8008,-1.8008,-1.8008,-1.8008,-1.8008,-1.8217,-1.8588,-1.8588,-1.8877,-1.9248,-1.9248,-1.9258,-1.9268,-1.9268,-1.9277,-1.9287,-1.9287,-1.9287,-1.9287,-1.9287,-1.9482,-1.9679,-1.9718,-2.0127,-2.0439,-1.9816,-1.9767,-2.0,-2.0478,-2.0576,-2.0586,-2.0595,-2.0605,-2.0605,-2.0605,-2.0605,-2.0605,-2.0605,-2.0605,-2.0605,-2.0605,-2.0605,-2.0605,-2.0605,-2.0605,-2.0605,-2.0605,-2.0605,-2.0605,-2.0605,-2.0605,-2.0605,-2.0605,-2.0605,-2.0605,-2.0605,-2.0595,-2.038,-1.9902,-1.9482,-1.9053,-1.8588,-1.8178,-1.8008,-1.8008,-1.8008,-1.8008,-0.6782,0.0,0.0,0.0,0.0,0.0,0.0,0.0,0.0,0.0,0.0,0.0,0.0,0.0,0.0,0.0,0.0,0.0,0.0,0.0,0.0,0.0,0.0,0.0,0.0,0.0,0.0,0.0,-1.5751,-1.5751,-1.5751,-1.5751,-1.5918,-1.6271,-1.6398,-1.6582,-1.6882,-1.7344,-1.7559,-1.7559,-1.7871,-1.8008,-1.8008,-1.8008,-1.8008,-1.8008,-1.8008,-1.8008,-1.8008,-1.8008,-1.8076,-1.8184,-1.8184,-1.8262,-1.8359,-1.8359,-1.8555,-1.8783,-1.8783,-1.9023,-1.9287,-1.9287,-1.9287,-1.9287,-1.9287,-1.9209,-1.9287,-2.0107,-2.0038,-1.9597,-1.9209,-1.9287,-1.9541,-1.9883,-1.9961,-2.0078,-2.0517,-2.0605,-2.0605,-2.0605,-2.0605,-2.0605,-2.0605,-2.0605,-2.0605,-2.0605,-2.0605,-2.0605,-2.0605,-2.0605,-2.0605,-2.0605,-2.0605,-2.0605,-2.0605,-2.0605,-2.0605,-2.0605,-2.0605,-2.0605,-2.0605,-2.0264,-1.9893,-1.9473,-1.9033,-1.8568,-1.8184,-1.8066,-1.8008,-1.8008,-1.8008,-1.8008,0.0,0.0,0.0,0.0,0.0,0.0,0.0,0.0,0.0,0.0,0.0,0.0,0.0,0.0,0.0,0.0,0.0,0.0,0.0,0.0,0.0,0.0,0.0,0.0,0.0,-1.541,-1.541,-1.541,-1.541,-1.541,-1.541,-1.541,-1.5527,-1.5811,-1.5997,-1.6222,-1.6445,-1.6894,-1.7109,-1.7119,-1.7363,-1.7568,-1.7744,-1.7744,-1.7842,-1.8008,-1.8008,-1.8008,-1.8008,-1.8008,-1.8008,-1.8008,-1.8008,-1.8008,-1.8008,-1.8008,-1.8164,-1.8344,-1.8344,-1.8545,-1.875,-1.875,-1.875,-1.875,-1.875,-1.8643,-1.8652,-1.9316,-1.8759,-1.7992,-1.8076,-1.8217,-1.8423,-1.8807,-1.9506,-2.0166,-2.0537,-2.0605,-2.0605,-2.0605,-2.0605,-2.0605,-2.0605,-2.0605,-2.0605,-2.0605,-2.0605,-2.0605,-2.0605,-2.0605,-2.0605,-2.0605,-2.0605,-2.0605,-2.0605,-2.0605,-2.0605,-2.0605,-2.0605,-2.0517,-2.0341,-2.0049,-1.9629,-1.9023,-1.8734,-1.8393,-1.8008,-1.8008,-1.8008,-1.8008,-1.8008,-1.8008,0.0,-0.8372,0.0,0.0,0.0,0.0,-1.1422,-1.0728,0.0,0.0,0.0,0.0,0.0,0.0,0.0,0.0,0.0,0.0,0.0,0.0,0.0,0.0,0.0,0.0,-1.5273,-1.5273,-1.5273,-1.5273,-1.5312,-1.5361,-1.541,-1.541,-1.541,-1.541,-1.5791,-1.6016,-1.6016,-1.6436,-1.6629,-1.6629,-1.6677,-1.6934,-1.7314,-1.7314,-1.7539,-1.7939,-1.7939,-1.7969,-1.8008,-1.8008,-1.8008,-1.8008,-1.8008,-1.8008,-1.8008,-1.8008,-1.8008,-1.8008,-1.8008,-1.8008,-1.8008,-1.8008,-1.8008,-1.8008,-1.8008,-1.8008,-1.7974,-1.7828,-1.6985,-1.6202,-1.6666,-1.6861,-1.7049,-1.7669,-1.9117,-2.037,-2.0566,-2.0605,-2.0605,-2.0605,-2.0605,-2.0605,-2.0605,-2.0605,-2.0605,-2.0605,-2.0605,-2.0605,-2.0605,-2.0605,-2.0605,-2.0605,-2.0605,-2.0605,-2.0605,-2.0605,-2.0586,-2.0537,-2.0537,-2.0341,-1.9863,-1.9795,-1.9341,-1.8466,-1.8373,-1.8205,-1.8008,-1.8008,-1.8008,-1.8008,-1.8008,-1.8008,-0.9456,-0.9829,-1.04,0.0,0.0,0.0,0.0,-0.9027,0.0,0.0,0.0,0.0,0.0,0.0,0.0,0.0,0.0,0.0,0.0,0.0,0.0,0.0,0.0,0.0,-1.4358,-1.4358,-1.4358,-1.4358,-1.4707,-1.5049,-1.5391,-1.541,-1.541,-1.541,-1.5498,-1.5537,-1.5537,-1.6007,-1.6222,-1.6232,-1.6562,-1.6746,-1.6824,-1.6824,-1.71,-1.75,-1.75,-1.7695,-1.8008,-1.8008,-1.8008,-1.8008,-1.8008,-1.8008,-1.8008,-1.8008,-1.8008,-1.8008,-1.8008,-1.8008,-1.8008,-1.8008,-1.8008,-1.8008,-1.8008,-1.8008,-1.7794,-1.6768,-1.6306,-1.6009,-1.5644,-1.5918,-1.6554,-1.77,-1.8244,-1.8887,-2.0312,-2.0605,-2.0605,-2.0605,-2.0605,-2.0605,-2.0605,-2.0605,-2.0605,-2.0605,-2.0605,-2.0605,-2.0605,-2.0605,-2.0605,-2.0605,-2.0605,-2.0605,-2.0605,-2.0605,-2.0458,-2.0059,-2.0039,-1.9853,-1.9424,-1.9036,-1.8407,-1.7477,-1.69,-1.7058,-1.8008,-1.8008,-1.8008,-1.8008,-1.8008,-1.8008,0.0,-1.0742,-1.1154,-1.0703,0.0,0.0,0.0,0.0,0.0,0.0,0.0,0.0,0.0,0.0,0.0,0.0,0.0,0.0,0.0,0.0,0.0,0.0,0.0,0.0,-1.4104,-1.4104,-1.4104,-1.4104,-1.4309,-1.4648,-1.5078,-1.5098,-1.5195,-1.5371,-1.541,-1.541,-1.541,-1.5625,-1.5732,-1.5742,-1.5967,-1.6161,-1.6396,-1.6396,-1.6641,-1.707,-1.7285,-1.75,-1.7715,-1.793,-1.8008,-1.8008,-1.8008,-1.8008,-1.8008,-1.8008,-1.8008,-1.8008,-1.8008,-1.8008,-1.8008,-1.8008,-1.8008,-1.8008,-1.8008,-1.8008,-1.7759,-1.6655,-1.6018,-1.549,-1.4887,-1.445,-1.4378,-1.5013,-1.6611,-1.8252,-1.9102,-1.9287,-1.9287,-1.9287,-1.9287,-1.9597,-2.0458,-2.0605,-2.0605,-2.0605,-2.0605,-2.0605,-2.0605,-2.0605,-2.0605,-2.0605,-2.0605,-2.0605,-2.0605,-1.9323,-1.8585,-1.8834,-1.8421,-1.7978,-1.7551,-1.7343,-1.7036,-1.6679,-1.6903,-1.7373,-1.8008,-1.6079,-1.5649,-1.6585,-1.5614,-1.5517,0.0,0.0,0.0,0.0,0.0,-1.0654,0.0,0.0,0.0,-1.041,0.0,0.0,0.0,0.0,0.0,0.0,0.0,0.0,0.0,0.0,0.0,0.0,0.0,0.0,0.0,-1.3656,-1.3714,-1.3968,-1.3841,-1.4007,-1.4629,-1.4736,-1.4941,-1.5283,-1.5371,-1.541,-1.541,-1.541,-1.541,-1.541,-1.541,-1.5596,-1.5968,-1.5968,-1.6182,-1.6621,-1.6982,-1.7178,-1.7285,-1.7627,-1.7812,-1.79,-1.7978,-1.8008,-1.8008,-1.8008,-1.8008,-1.8008,-1.8008,-1.8008,-1.8008,-1.8008,-1.8008,-1.8008,-1.8008,-1.7862,-1.7535,-1.6602,-1.5649,-1.4736,-1.4034,-1.3062,-1.2305,-1.2305,-1.5226,-1.8008,-1.8008,-1.8008,-1.8008,-1.8008,-1.8008,-1.8447,-1.9871,-2.0106,-2.0224,-2.0556,-2.0605,-2.0605,-2.0605,-2.0605,-2.0605,-2.0605,-2.0605,-2.0605,-2.0605,-1.7515,-1.6099,-1.7199,-1.6565,-1.6026,-1.5718,-1.5556,-1.5785,-1.6455,-1.6759,-1.6897,-1.6897,-1.3803,-1.3127,-1.4629,-1.3273,-1.3208,0.0,0.0,0.0,0.0,-1.1787,0.0,0.0,0.0,-1.0038,-0.9355,0.0,0.0,0.0,0.0,0.0,0.0,0.0,0.0,0.0,0.0,0.0,0.0,0.0,0.0,0.0,-1.209,-1.2357,-1.3486,-1.2847,-1.2934,-1.4124,-1.457,-1.4805,-1.4882,-1.5215,-1.541,-1.541,-1.541,-1.541,-1.541,-1.541,-1.5439,-1.5488,-1.5488,-1.5723,-1.6173,-1.6222,-1.6436,-1.6775,-1.6824,-1.7077,-1.749,-1.7861,-1.8008,-1.8008,-1.8008,-1.8008,-1.8008,-1.8008,-1.8008,-1.8008,-1.8008,-1.8008,-1.8008,-1.8008,-1.7432,-1.6567,-1.5623,-1.4629,-1.3673,-1.2732,-1.2409,-1.2305,-1.2305,-1.5226,-1.8008,-1.8008,-1.8008,-1.8008,-1.8008,-1.8008,-1.8076,-1.8262,-1.8301,-1.8818,-2.038,-2.0605,-2.0605,-2.0605,-2.0605,-2.0605,-2.0605,-2.0605,-2.0605,-2.0605,-1.5791,-1.3503,-1.5287,-1.5294,-1.5266,-1.5281,-1.4693,-1.5461,-1.7725,-1.4585,-1.2945,-1.2945,-1.2512,-1.2409,-1.2659,-1.3564,-1.407,0.0,0.0,0.0,0.0,0.0,0.0,0.0,0.0,-1.0254,0.0,0.0,0.0,0.0,0.0,0.0,0.0,0.0,0.0,0.0,0.0,0.0,0.0,0.0,0.0,0.0,0.0,0.0,0.0,-1.1831,-1.1715,-1.2719,-1.3203,-1.3688,-1.4195,-1.4753,-1.5166,-1.541,-1.541,-1.541,-1.541,-1.541,-1.541,-1.541,-1.541,-1.5508,-1.5703,-1.5977,-1.6202,-1.6367,-1.659,-1.6804,-1.7021,-1.7165,-1.7535,-1.8008,-1.8008,-1.8008,-1.8008,-1.8008,-1.8008,-1.8008,-1.8008,-1.8008,-1.7896,-1.7354,-1.6922,-1.628,-1.4772,-1.4027,-1.3491,-1.2556,-1.2305,-1.2305,-1.2305,-1.3513,-1.4692,-1.4692,-1.6437,-1.8008,-1.8008,-1.8008,-1.8008,-1.8008,-1.8008,-1.8252,-1.8975,-1.719,-1.5791,-1.5791,-1.5791,-1.5791,-1.5791,-1.5791,-1.5791,-1.5791,-1.3644,-1.2624,-1.3414,-1.3496,-1.3491,-1.3528,-1.3237,-1.3593,-1.4657,-1.3127,-1.2305,-1.2305,-1.2305,-1.2305,-1.2298,-1.2842,-1.3098,-1.2856,0.0,0.0,0.0,0.0,0.0,0.0,0.0,0.0,0.0,0.0,0.0,0.0,0.0,0.0,0.0,0.0,0.0,0.0,0.0,0.0,0.0,0.0,0.0,0.0,0.0,0.0,0.0,0.0,-1.0717,-1.1598,-1.2234,-1.2871,-1.3423,-1.4315,-1.4932,-1.5234,-1.5352,-1.5294,-1.5079,-1.5079,-1.4962,-1.4746,-1.4746,-1.4746,-1.4765,-1.5095,-1.5266,-1.5254,-1.5573,-1.577,-1.5864,-1.6094,-1.6737,-1.7509,-1.7765,-1.791,-1.8008,-1.8008,-1.8008,-1.8008,-1.8008,-1.8008,-1.7828,-1.6888,-1.6419,-1.586,-1.4163,-1.3528,-1.3164,-1.2482,-1.2305,-1.2305,-1.2305,-1.2305,-1.2305,-1.2305,-1.5296,-1.8008,-1.8008,-1.8008,-1.7691,-1.6611,-1.7295,-1.8008,-1.8008,-1.4764,-1.2305,-1.2305,-1.2305,-1.2305,-1.2305,-1.2305,-1.2305,-1.2305,-1.2305,-1.2305,-1.2305,-1.2305,-1.2305,-1.2305,-1.2305,-1.2305,-1.2305,-1.2305,-1.2305,-1.2305,-1.2305,-1.2305,-1.2305,-1.2305,-1.2305,0.0,0.0,0.0,-1.1819,0.0,0.0,0.0,0.0,-1.0868,0.0,0.0,0.0,0.0,0.0,0.0,-0.9709,0.0,0.0,0.0,0.0,0.0,0.0,0.0,0.0,0.0,0.0,0.0,0.0,0.0,0.0,-1.1165,-1.2277,-1.2763,-1.256,-1.4019,-1.4823,-1.4805,-1.5205,-1.5021,-1.4243,-1.4243,-1.3816,-1.307,-1.307,-1.307,-1.307,-1.3078,-1.3086,-1.3086,-1.3094,-1.3341,-1.3775,-1.4631,-1.5465,-1.6257,-1.711,-1.7666,-1.8008,-1.8008,-1.8008,-1.8008,-1.8008,-1.8008,-1.7828,-1.6888,-1.5974,-1.5021,-1.3991,-1.3062,-1.2335,-1.2305,-1.2305,-1.2305,-1.2305,-1.2305,-1.2305,-1.2305,-1.5296,-1.8008,-1.8008,-1.8008,-1.6828,-1.3127,-1.5544,-1.8008,-1.8008,-1.4764,-1.2305,-1.2305,-1.2305,-1.2305,-1.2305,-1.2305,-1.2305,-1.2305,-1.2305,-1.2305,-1.2305,-1.2305,-1.2305,-1.2305,-1.2305,-1.2305,-1.2305,-1.2305,-1.2305,-1.2305,-1.2305,-1.2305,-1.2305,-1.2305,-1.2305,0.0,0.0,-1.1485,-1.1361,0.0,0.0,0.0,0.0,0.0,0.0,0.0,0.0,0.0,0.0,-1.0723,-1.0156,-0.959,0.0,0.0,0.0,0.0,0.0,0.0,0.0,0.0,0.0,0.0,0.0,-0.9313,0.0,0.0,-1.0573,-1.1149,-1.1808,-1.3032,-1.4042,-1.4785,-1.5205,-1.4991,-1.4213,-1.4213,-1.3786,-1.3009,-1.3009,-1.3009,-1.3009,-1.3009,-1.3009,-1.3009,-1.3009,-1.3083,-1.3221,-1.3529,-1.3982,-1.4672,-1.6651,-1.7259,-1.7001,-1.6367,-1.6158,-1.6158,-1.6158,-1.6158,-1.5974,-1.4977,-1.445,-1.4027,-1.3025,-1.2556,-1.2305,-1.2305,-1.2305,-1.2305,-1.2305,-1.2305,-1.2305,-1.2305,-1.3302,-1.4227,-1.4227,-1.4227,-1.3803,-1.2519,-1.3375,-1.4227,-1.4227,-1.312,-1.2305,-1.2305,-1.2305,-1.2305,-1.2305,-1.2305,-1.2305,-1.2305,-1.2305,-1.2305,-1.2305,-1.2305,-1.2305,-1.2305,-1.2305,-1.2305,-1.2305,-1.2305,-1.2305,-1.2305,-1.2305,-1.2305,-1.2305,-1.2305,-1.2305,-1.0737,-1.0788,0.0,-1.0965,-1.0781,0.0,-1.0592,0.0,0.0,0.0,0.0,0.0,0.0,0.0,0.0,-1.042,-0.9687,0.0,0.0,0.0,0.0,0.0,0.0,0.0,0.0,0.0,-0.872,-0.9516,0.0,0.0,0.0,0.0,-1.0339,-1.0872,-1.1961,-1.2923,-1.3765,-1.4182,-1.4039,-1.3356,-1.3356,-1.2931,-1.2151,-1.2151,-1.2151,-1.2151,-1.2151,-1.2151,-1.2151,-1.2151,-1.2151,-1.2182,-1.2451,-1.282,-1.3404,-1.5321,-1.6009,-1.5852,-1.5361,-1.5199,-1.5234,-1.5446,-1.5376,-1.5021,-1.4135,-1.3781,-1.3491,-1.2556,-1.2305,-1.2305,-1.2305,-1.2305,-1.2305,-1.2305,-1.2305,-1.2305,-1.2305,-1.2305,-1.2305,-1.2305,-1.2305,-1.2305,-1.2305,-1.2305,-1.2305,-1.2305,-1.2305,-1.2305,-1.2305,-1.2305,-1.2305,-1.2305,-1.2305,-1.2305,-1.2305,-1.2305,-1.2305,-1.2305,-1.2305,-1.2305,-1.2305,-1.2305,-1.2305,-1.2305,-1.2305,-1.2305,-1.2305,-1.2305,-1.2305,-1.2305,-1.2305,-1.2305]}]]